Wetterdaten: Mittwoch, 28.11.2018
Datum Zeit Temp. A. Pool Temp. Temp. 5cm Feuchte A. Luftdruck Regen Wind Richtung Richtung Sonnenschein ET UV Solar Taupunkt Windchill Windben Empfang
28.11.2018 00:01 -0,1 C 3,9 C -1,1 C 97 % 1023,8 hPa 0,0 l/m 1,8 km/h (1 Bft) SW 215 0 min 0,000 mm 0,0 UV-I 0 W/m -0,5 C -0,1 C 3,2 km/h (1 Bft) 95,65 %
28.11.2018 00:02 -0,1 C 3,9 C -1,1 C 97 % 1023,8 hPa 0,0 l/m 2,0 km/h (1 Bft) SW 215 0 min 0,000 mm 0,0 UV-I 0 W/m -0,5 C -0,1 C 3,2 km/h (1 Bft) 100,00 %
28.11.2018 00:04 -0,2 C 3,9 C -1,1 C 97 % 1023,8 hPa 0,0 l/m 2,3 km/h (1 Bft) SW 215 0 min 0,000 mm 0,0 UV-I 0 W/m -0,6 C -0,2 C 3,2 km/h (1 Bft) 96,23 %
28.11.2018 00:06 -0,2 C 3,9 C -1,7 C 97 % 1023,8 hPa 0,0 l/m 3,3 km/h (1 Bft) SW 214 0 min 0,000 mm 0,0 UV-I 0 W/m -0,6 C -0,2 C 4,8 km/h (1 Bft) 97,87 %
28.11.2018 00:08 -0,2 C 3,9 C -1,1 C 97 % 1023,8 hPa 0,0 l/m 2,9 km/h (1 Bft) SW 214 0 min 0,000 mm 0,0 UV-I 0 W/m -0,6 C -0,2 C 4,8 km/h (1 Bft) 97,56 %
28.11.2018 00:10 -0,2 C 3,9 C -1,1 C 97 % 1023,9 hPa 0,0 l/m 2,3 km/h (1 Bft) SW 214 0 min 0,000 mm 0,0 UV-I 0 W/m -0,6 C -0,2 C 3,2 km/h (1 Bft) 100,00 %
28.11.2018 00:12 -0,2 C 3,9 C -1,1 C 97 % 1023,9 hPa 0,0 l/m 2,4 km/h (1 Bft) SW 214 0 min 0,000 mm 0,0 UV-I 0 W/m -0,6 C -0,2 C 3,2 km/h (1 Bft) 100,00 %
28.11.2018 00:14 -0,2 C 3,9 C -1,1 C 97 % 1024,0 hPa 0,0 l/m 2,3 km/h (1 Bft) SW 214 0 min 0,000 mm 0,0 UV-I 0 W/m -0,6 C -0,2 C 3,2 km/h (1 Bft) 100,00 %
28.11.2018 00:16 -0,2 C 3,9 C -1,1 C 97 % 1023,9 hPa 0,0 l/m 2,8 km/h (1 Bft) SW 214 0 min 0,000 mm 0,0 UV-I 0 W/m -0,6 C -0,2 C 3,2 km/h (1 Bft) 100,00 %
28.11.2018 00:18 -0,2 C 3,9 C -1,1 C 97 % 1023,9 hPa 0,0 l/m 3,2 km/h (1 Bft) SW 214 0 min 0,000 mm 0,0 UV-I 0 W/m -0,6 C -0,2 C 4,8 km/h (1 Bft) 100,00 %
28.11.2018 00:20 -0,2 C 3,9 C -1,1 C 97 % 1023,9 hPa 0,0 l/m 3,7 km/h (1 Bft) SW 214 0 min 0,000 mm 0,0 UV-I 0 W/m -0,6 C -0,2 C 4,8 km/h (1 Bft) 100,00 %
28.11.2018 00:22 -0,2 C 3,9 C -1,1 C 97 % 1023,9 hPa 0,0 l/m 3,6 km/h (1 Bft) SW 214 0 min 0,000 mm 0,0 UV-I 0 W/m -0,6 C -0,2 C 4,8 km/h (1 Bft) 100,00 %
28.11.2018 00:24 -0,3 C 3,9 C -1,7 C 97 % 1024,0 hPa 0,0 l/m 2,1 km/h (1 Bft) SW 214 0 min 0,000 mm 0,0 UV-I 0 W/m -0,7 C -0,3 C 3,2 km/h (1 Bft) 100,00 %
28.11.2018 00:26 -0,3 C 3,9 C -1,7 C 97 % 1024,0 hPa 0,0 l/m 1,3 km/h (1 Bft) SW 214 0 min 0,000 mm 0,0 UV-I 0 W/m -0,7 C -0,3 C 1,6 km/h (1 Bft) 100,00 %
28.11.2018 00:28 -0,3 C 3,9 C -1,7 C 97 % 1024,0 hPa 0,0 l/m 2,4 km/h (1 Bft) SW 214 0 min 0,000 mm 0,0 UV-I 0 W/m -0,7 C -0,3 C 3,2 km/h (1 Bft) 94,74 %
28.11.2018 00:30 -0,3 C 3,9 C -1,1 C 97 % 1024,0 hPa 0,0 l/m 2,1 km/h (1 Bft) SW 214 0 min 0,000 mm 0,0 UV-I 0 W/m -0,7 C -0,3 C 3,2 km/h (1 Bft) 100,00 %
28.11.2018 00:32 -0,3 C 3,9 C -1,1 C 97 % 1024,0 hPa 0,0 l/m 0,7 km/h (0 Bft) SW 214 0 min 0,000 mm 0,0 UV-I 0 W/m -0,7 C -0,3 C 1,6 km/h (1 Bft) 96,00 %
28.11.2018 00:34 -0,3 C 3,9 C -1,1 C 97 % 1023,9 hPa 0,0 l/m 1,1 km/h (1 Bft) SW 214 0 min 0,000 mm 0,0 UV-I 0 W/m -0,7 C -0,3 C 3,2 km/h (1 Bft) 97,87 %
28.11.2018 00:36 -0,3 C 3,9 C -1,1 C 97 % 1023,9 hPa 0,0 l/m 3,4 km/h (1 Bft) SW 214 0 min 0,000 mm 0,0 UV-I 0 W/m -0,7 C -0,3 C 4,8 km/h (1 Bft) 100,00 %
28.11.2018 00:38 -0,4 C 3,9 C -1,1 C 97 % 1023,9 hPa 0,0 l/m 4,8 km/h (1 Bft) O-NO 58 0 min 0,000 mm 0,0 UV-I 0 W/m -0,8 C -0,4 C 6,4 km/h (2 Bft) 96,23 %
28.11.2018 00:40 -0,4 C 3,9 C -1,1 C 97 % 1024,0 hPa 0,0 l/m 2,8 km/h (1 Bft) O 91 0 min 0,000 mm 0,0 UV-I 0 W/m -0,8 C -0,4 C 6,4 km/h (2 Bft) 98,00 %
28.11.2018 00:42 -0,3 C 3,9 C -0,6 C 97 % 1024,2 hPa 0,0 l/m 2,9 km/h (1 Bft) S 178 0 min 0,000 mm 0,0 UV-I 0 W/m -0,7 C -0,3 C 4,8 km/h (1 Bft) 95,12 %
28.11.2018 00:44 -0,3 C 3,9 C -0,6 C 97 % 1024,1 hPa 0,0 l/m 4,5 km/h (1 Bft) SW 215 0 min 0,000 mm 0,0 UV-I 0 W/m -0,7 C -0,3 C 6,4 km/h (2 Bft) 98,00 %
28.11.2018 00:46 -0,3 C 3,9 C -0,6 C 97 % 1024,0 hPa 0,0 l/m 3,3 km/h (1 Bft) SW 215 0 min 0,000 mm 0,0 UV-I 0 W/m -0,7 C -0,3 C 4,8 km/h (1 Bft) 98,00 %
28.11.2018 00:48 -0,3 C 3,9 C 0,0 C 97 % 1024,0 hPa 0,0 l/m 3,7 km/h (1 Bft) S-SO 162 0 min 0,000 mm 0,0 UV-I 0 W/m -0,7 C -0,3 C 8,0 km/h (2 Bft) 95,74 %
28.11.2018 00:50 -0,3 C 3,9 C 0,0 C 97 % 1024,0 hPa 0,0 l/m 4,3 km/h (1 Bft) S-SO 158 0 min 0,000 mm 0,0 UV-I 0 W/m -0,7 C -0,3 C 6,4 km/h (2 Bft) 97,56 %
28.11.2018 00:52 -0,3 C 3,9 C -0,6 C 97 % 1024,0 hPa 0,0 l/m 3,4 km/h (1 Bft) SO 146 0 min 0,000 mm 0,0 UV-I 0 W/m -0,7 C -0,3 C 4,8 km/h (1 Bft) 98,11 %
28.11.2018 00:54 -0,3 C 3,9 C -0,6 C 98 % 1024,1 hPa 0,0 l/m 1,6 km/h (1 Bft) SO 146 0 min 0,000 mm 0,0 UV-I 0 W/m -0,6 C -0,3 C 4,8 km/h (1 Bft) 94,74 %
28.11.2018 00:56 -0,3 C 3,9 C -0,6 C 97 % 1024,1 hPa 0,0 l/m 1,6 km/h (1 Bft) SO 146 0 min 0,000 mm 0,0 UV-I 0 W/m -0,7 C -0,3 C 4,8 km/h (1 Bft) 96,00 %
28.11.2018 00:58 -0,3 C 3,9 C -0,6 C 98 % 1024,1 hPa 0,0 l/m 3,5 km/h (1 Bft) S-SO 150 0 min 0,000 mm 0,0 UV-I 0 W/m -0,6 C -0,3 C 6,4 km/h (2 Bft) 96,00 %
28.11.2018 01:00 -0,3 C 3,9 C -0,6 C 97 % 1024,1 hPa 0,0 l/m 3,2 km/h (1 Bft) S-SO 147 0 min 0,000 mm 0,0 UV-I 0 W/m -0,7 C -0,3 C 6,4 km/h (2 Bft) 97,87 %
28.11.2018 01:02 -0,3 C 3,9 C -0,6 C 98 % 1024,1 hPa 0,0 l/m 4,2 km/h (1 Bft) S-SO 161 0 min 0,000 mm 0,0 UV-I 0 W/m -0,6 C -0,3 C 8,0 km/h (2 Bft) 94,87 %
28.11.2018 01:04 -0,3 C 3,9 C -0,6 C 97 % 1024,1 hPa 0,0 l/m 4,5 km/h (1 Bft) S-SO 156 0 min 0,000 mm 0,0 UV-I 0 W/m -0,7 C -0,3 C 8,0 km/h (2 Bft) 96,23 %
28.11.2018 01:06 -0,3 C 3,9 C -0,6 C 97 % 1024,2 hPa 0,0 l/m 1,8 km/h (1 Bft) S-SO 156 0 min 0,000 mm 0,0 UV-I 0 W/m -0,7 C -0,3 C 3,2 km/h (1 Bft) 95,12 %
28.11.2018 01:08 -0,3 C 3,9 C -0,6 C 97 % 1024,3 hPa 0,0 l/m 2,3 km/h (1 Bft) S-SO 166 0 min 0,000 mm 0,0 UV-I 0 W/m -0,7 C -0,3 C 8,0 km/h (2 Bft) 92,00 %
28.11.2018 01:10 -0,3 C 3,9 C -0,6 C 97 % 1024,2 hPa 0,0 l/m 2,8 km/h (1 Bft) S-SO 166 0 min 0,000 mm 0,0 UV-I 0 W/m -0,7 C -0,3 C 6,4 km/h (2 Bft) 94,34 %
28.11.2018 01:12 -0,3 C 3,9 C -0,6 C 97 % 1024,2 hPa 0,0 l/m 6,6 km/h (2 Bft) SO 134 0 min 0,000 mm 0,0 UV-I 0 W/m -0,7 C -0,5 C 12,9 km/h (3 Bft) 94,74 %
28.11.2018 01:14 -0,3 C 3,9 C -0,6 C 97 % 1024,1 hPa 0,0 l/m 7,6 km/h (2 Bft) SO 137 0 min 0,000 mm 0,0 UV-I 0 W/m -0,7 C -1,6 C 11,3 km/h (2 Bft) 95,74 %
28.11.2018 01:16 -0,3 C 3,9 C -0,6 C 97 % 1024,1 hPa 0,0 l/m 7,1 km/h (2 Bft) S-SO 147 0 min 0,000 mm 0,0 UV-I 0 W/m -0,7 C -1,0 C 12,9 km/h (3 Bft) 95,74 %
28.11.2018 01:18 -0,3 C 3,9 C -0,6 C 97 % 1024,1 hPa 0,0 l/m 6,6 km/h (2 Bft) SO 140 0 min 0,000 mm 0,0 UV-I 0 W/m -0,7 C -0,5 C 12,9 km/h (3 Bft) 97,56 %
28.11.2018 01:20 -0,3 C 3,9 C -0,6 C 97 % 1024,1 hPa 0,0 l/m 7,4 km/h (2 Bft) SO 133 0 min 0,000 mm 0,0 UV-I 0 W/m -0,7 C -1,4 C 11,3 km/h (2 Bft) 96,23 %
28.11.2018 01:22 -0,3 C 3,9 C -0,6 C 97 % 1024,2 hPa 0,0 l/m 5,2 km/h (1 Bft) SO 134 0 min 0,000 mm 0,0 UV-I 0 W/m -0,7 C -0,3 C 8,0 km/h (2 Bft) 98,11 %
28.11.2018 01:24 -0,3 C 3,9 C -0,6 C 97 % 1024,2 hPa 0,0 l/m 6,8 km/h (2 Bft) O-SO 117 0 min 0,000 mm 0,0 UV-I 0 W/m -0,7 C -0,7 C 11,3 km/h (2 Bft) 97,56 %
28.11.2018 01:26 -0,3 C 3,9 C -0,6 C 97 % 1024,3 hPa 0,0 l/m 8,9 km/h (2 Bft) O-SO 104 0 min 0,000 mm 0,0 UV-I 0 W/m -0,7 C -2,8 C 12,9 km/h (3 Bft) 100,00 %
28.11.2018 01:28 -0,3 C 3,9 C -0,6 C 97 % 1024,3 hPa 0,0 l/m 7,1 km/h (2 Bft) S-SO 148 0 min 0,000 mm 0,0 UV-I 0 W/m -0,7 C -1,0 C 11,3 km/h (2 Bft) 97,37 %
28.11.2018 01:30 -0,3 C 3,9 C -0,6 C 97 % 1024,3 hPa 0,0 l/m 6,6 km/h (2 Bft) O-SO 108 0 min 0,000 mm 0,0 UV-I 0 W/m -0,7 C -0,5 C 11,3 km/h (2 Bft) 100,00 %
28.11.2018 01:32 -0,3 C 3,9 C -0,6 C 97 % 1024,3 hPa 0,0 l/m 5,0 km/h (1 Bft) O-SO 106 0 min 0,000 mm 0,0 UV-I 0 W/m -0,7 C -0,3 C 9,7 km/h (2 Bft) 100,00 %
28.11.2018 01:34 -0,3 C 3,9 C -0,6 C 97 % 1024,3 hPa 0,0 l/m 4,7 km/h (1 Bft) SO 126 0 min 0,000 mm 0,0 UV-I 0 W/m -0,7 C -0,3 C 6,4 km/h (2 Bft) 100,00 %
28.11.2018 01:36 -0,3 C 3,9 C -0,6 C 97 % 1024,3 hPa 0,0 l/m 3,9 km/h (1 Bft) O-SO 116 0 min 0,000 mm 0,0 UV-I 0 W/m -0,7 C -0,3 C 6,4 km/h (2 Bft) 100,00 %
28.11.2018 01:38 -0,3 C 3,9 C -0,6 C 97 % 1024,3 hPa 0,0 l/m 6,2 km/h (2 Bft) SO 134 0 min 0,000 mm 0,0 UV-I 0 W/m -0,7 C -0,3 C 8,0 km/h (2 Bft) 96,00 %
28.11.2018 01:40 -0,3 C 3,9 C -0,6 C 97 % 1024,3 hPa 0,0 l/m 3,9 km/h (1 Bft) SO 132 0 min 0,000 mm 0,0 UV-I 0 W/m -0,7 C -0,3 C 6,4 km/h (2 Bft) 100,00 %
28.11.2018 01:42 -0,3 C 3,9 C -0,6 C 96 % 1024,3 hPa 0,0 l/m 1,9 km/h (1 Bft) O 94 0 min 0,000 mm 0,0 UV-I 0 W/m -0,9 C -0,3 C 4,8 km/h (1 Bft) 100,00 %
28.11.2018 01:44 -0,3 C 3,9 C -0,6 C 96 % 1024,3 hPa 0,0 l/m 1,1 km/h (1 Bft) O 94 0 min 0,000 mm 0,0 UV-I 0 W/m -0,9 C -0,3 C 3,2 km/h (1 Bft) 97,87 %
28.11.2018 01:46 -0,3 C 3,9 C -0,6 C 96 % 1024,3 hPa 0,0 l/m 4,7 km/h (1 Bft) O 90 0 min 0,000 mm 0,0 UV-I 0 W/m -0,9 C -0,3 C 11,3 km/h (2 Bft) 97,87 %
28.11.2018 01:48 -0,3 C 3,9 C -0,6 C 96 % 1024,4 hPa 0,0 l/m 4,2 km/h (1 Bft) O 84 0 min 0,000 mm 0,0 UV-I 0 W/m -0,9 C -0,3 C 9,7 km/h (2 Bft) 100,00 %
28.11.2018 01:50 -0,3 C 3,9 C -0,6 C 96 % 1024,4 hPa 0,0 l/m 4,0 km/h (1 Bft) O 90 0 min 0,000 mm 0,0 UV-I 0 W/m -0,9 C -0,3 C 6,4 km/h (2 Bft) 100,00 %
28.11.2018 01:52 -0,4 C 3,9 C -0,6 C 96 % 1024,4 hPa 0,0 l/m 4,7 km/h (1 Bft) O 92 0 min 0,000 mm 0,0 UV-I 0 W/m -1,0 C -0,4 C 6,4 km/h (2 Bft) 100,00 %
28.11.2018 01:54 -0,4 C 3,9 C -0,6 C 96 % 1024,4 hPa 0,0 l/m 5,4 km/h (1 Bft) O 84 0 min 0,000 mm 0,0 UV-I 0 W/m -1,0 C -0,4 C 11,3 km/h (2 Bft) 100,00 %
28.11.2018 01:56 -0,4 C 3,9 C -0,6 C 96 % 1024,4 hPa 0,0 l/m 5,4 km/h (1 Bft) O 88 0 min 0,000 mm 0,0 UV-I 0 W/m -1,0 C -0,4 C 9,7 km/h (2 Bft) 100,00 %
28.11.2018 01:58 -0,4 C 3,9 C -0,6 C 96 % 1024,4 hPa 0,0 l/m 4,9 km/h (1 Bft) O 99 0 min 0,000 mm 0,0 UV-I 0 W/m -1,0 C -0,4 C 6,4 km/h (2 Bft) 100,00 %
28.11.2018 02:00 -0,4 C 3,9 C -0,6 C 95 % 1024,4 hPa 0,0 l/m 4,9 km/h (1 Bft) O-SO 113 0 min 0,000 mm 0,0 UV-I 0 W/m -1,1 C -0,4 C 6,4 km/h (2 Bft) 100,00 %
28.11.2018 02:02 -0,4 C 3,9 C -0,6 C 95 % 1024,5 hPa 0,0 l/m 7,4 km/h (2 Bft) O-SO 120 0 min 0,000 mm 0,0 UV-I 0 W/m -1,1 C -1,5 C 12,9 km/h (3 Bft) 100,00 %
28.11.2018 02:04 -0,4 C 3,9 C -0,6 C 95 % 1024,4 hPa 0,0 l/m 7,5 km/h (2 Bft) O-SO 114 0 min 0,000 mm 0,0 UV-I 0 W/m -1,1 C -1,6 C 11,3 km/h (2 Bft) 100,00 %
28.11.2018 02:06 -0,4 C 3,9 C -0,6 C 95 % 1024,5 hPa 0,0 l/m 7,9 km/h (2 Bft) O-SO 111 0 min 0,000 mm 0,0 UV-I 0 W/m -1,1 C -2,0 C 12,9 km/h (3 Bft) 97,56 %
28.11.2018 02:08 -0,4 C 3,9 C -0,6 C 95 % 1024,5 hPa 0,0 l/m 5,4 km/h (1 Bft) O-SO 113 0 min 0,000 mm 0,0 UV-I 0 W/m -1,1 C -0,4 C 9,7 km/h (2 Bft) 100,00 %
28.11.2018 02:10 -0,4 C 3,9 C -0,6 C 95 % 1024,5 hPa 0,0 l/m 5,2 km/h (1 Bft) O 96 0 min 0,000 mm 0,0 UV-I 0 W/m -1,1 C -0,4 C 9,7 km/h (2 Bft) 97,87 %
28.11.2018 02:12 -0,4 C 3,9 C -0,6 C 95 % 1024,6 hPa 0,0 l/m 6,2 km/h (2 Bft) SO 129 0 min 0,000 mm 0,0 UV-I 0 W/m -1,1 C -0,4 C 12,9 km/h (3 Bft) 100,00 %
28.11.2018 02:14 -0,5 C 3,9 C -0,6 C 95 % 1024,6 hPa 0,0 l/m 4,2 km/h (1 Bft) O-SO 111 0 min 0,000 mm 0,0 UV-I 0 W/m -1,2 C -0,5 C 6,4 km/h (2 Bft) 100,00 %
28.11.2018 02:16 -0,6 C 3,9 C -0,6 C 95 % 1024,6 hPa 0,0 l/m 5,9 km/h (2 Bft) O-SO 105 0 min 0,000 mm 0,0 UV-I 0 W/m -1,3 C -0,6 C 11,3 km/h (2 Bft) 95,74 %
28.11.2018 02:18 -0,6 C 3,9 C -0,6 C 95 % 1024,7 hPa 0,0 l/m 5,1 km/h (1 Bft) O 88 0 min 0,000 mm 0,0 UV-I 0 W/m -1,3 C -0,6 C 9,7 km/h (2 Bft) 95,74 %
28.11.2018 02:20 -0,6 C 3,9 C -0,6 C 95 % 1024,7 hPa 0,0 l/m 4,2 km/h (1 Bft) O-SO 117 0 min 0,000 mm 0,0 UV-I 0 W/m -1,3 C -0,6 C 9,7 km/h (2 Bft) 95,83 %
28.11.2018 02:22 -0,6 C 3,9 C -0,6 C 95 % 1024,7 hPa 0,0 l/m 2,8 km/h (1 Bft) O-SO 119 0 min 0,000 mm 0,0 UV-I 0 W/m -1,3 C -0,6 C 4,8 km/h (1 Bft) 98,00 %
28.11.2018 02:24 -0,6 C 3,9 C -1,1 C 95 % 1024,8 hPa 0,0 l/m 3,7 km/h (1 Bft) O 91 0 min 0,000 mm 0,0 UV-I 0 W/m -1,3 C -0,6 C 6,4 km/h (2 Bft) 97,37 %
28.11.2018 02:26 -0,6 C 3,9 C -1,1 C 95 % 1024,7 hPa 0,0 l/m 5,3 km/h (1 Bft) O 94 0 min 0,000 mm 0,0 UV-I 0 W/m -1,3 C -0,6 C 9,7 km/h (2 Bft) 96,23 %
28.11.2018 02:28 -0,6 C 3,9 C -1,1 C 95 % 1024,8 hPa 0,0 l/m 5,7 km/h (1 Bft) O-SO 110 0 min 0,000 mm 0,0 UV-I 0 W/m -1,3 C -0,6 C 9,7 km/h (2 Bft) 96,00 %
28.11.2018 02:30 -0,6 C 3,9 C -1,1 C 94 % 1024,7 hPa 0,0 l/m 7,9 km/h (2 Bft) O 100 0 min 0,000 mm 0,0 UV-I 0 W/m -1,4 C -2,2 C 11,3 km/h (2 Bft) 100,00 %
28.11.2018 02:32 -0,6 C 3,9 C -1,1 C 94 % 1024,8 hPa 0,0 l/m 8,0 km/h (2 Bft) O-SO 119 0 min 0,000 mm 0,0 UV-I 0 W/m -1,4 C -2,3 C 11,3 km/h (2 Bft) 96,23 %
28.11.2018 02:34 -0,7 C 3,9 C -1,1 C 94 % 1024,8 hPa 0,0 l/m 8,4 km/h (2 Bft) O 96 0 min 0,000 mm 0,0 UV-I 0 W/m -1,5 C -2,8 C 14,5 km/h (3 Bft) 97,37 %
28.11.2018 02:36 -0,7 C 3,9 C -1,1 C 94 % 1024,8 hPa 0,0 l/m 8,9 km/h (2 Bft) O 90 0 min 0,000 mm 0,0 UV-I 0 W/m -1,5 C -3,2 C 12,9 km/h (3 Bft) 94,00 %
28.11.2018 02:38 -0,7 C 3,9 C -1,1 C 94 % 1024,8 hPa 0,0 l/m 7,5 km/h (2 Bft) O 100 0 min 0,000 mm 0,0 UV-I 0 W/m -1,5 C -1,9 C 11,3 km/h (2 Bft) 98,00 %
28.11.2018 02:40 -0,7 C 3,9 C -1,1 C 93 % 1024,9 hPa 0,0 l/m 10,0 km/h (2 Bft) O 82 0 min 0,000 mm 0,0 UV-I 0 W/m -1,7 C -4,2 C 14,5 km/h (3 Bft) 92,68 %
28.11.2018 02:42 -0,7 C 3,9 C -1,1 C 94 % 1024,9 hPa 0,0 l/m 9,0 km/h (2 Bft) O-SO 109 0 min 0,000 mm 0,0 UV-I 0 W/m -1,5 C -3,3 C 12,9 km/h (3 Bft) 98,00 %
28.11.2018 02:44 -0,7 C 3,9 C -1,1 C 93 % 1024,9 hPa 0,0 l/m 7,6 km/h (2 Bft) O-SO 117 0 min 0,000 mm 0,0 UV-I 0 W/m -1,7 C -2,0 C 12,9 km/h (3 Bft) 97,87 %
28.11.2018 02:46 -0,7 C 3,9 C -1,1 C 93 % 1024,9 hPa 0,0 l/m 6,5 km/h (2 Bft) O 89 0 min 0,000 mm 0,0 UV-I 0 W/m -1,7 C -0,8 C 9,7 km/h (2 Bft) 93,62 %
28.11.2018 02:48 -0,8 C 3,9 C -1,1 C 93 % 1024,9 hPa 0,0 l/m 8,5 km/h (2 Bft) O 100 0 min 0,000 mm 0,0 UV-I 0 W/m -1,8 C -3,0 C 14,5 km/h (3 Bft) 96,23 %
28.11.2018 02:50 -0,8 C 3,9 C -1,1 C 93 % 1024,9 hPa 0,0 l/m 10,2 km/h (2 Bft) O 88 0 min 0,000 mm 0,0 UV-I 0 W/m -1,8 C -4,5 C 14,5 km/h (3 Bft) 94,87 %
28.11.2018 02:52 -0,8 C 3,9 C -1,1 C 93 % 1024,9 hPa 0,0 l/m 9,9 km/h (2 Bft) O-SO 105 0 min 0,000 mm 0,0 UV-I 0 W/m -1,8 C -4,2 C 14,5 km/h (3 Bft) 96,23 %
28.11.2018 02:54 -0,8 C 3,9 C -1,1 C 92 % 1024,9 hPa 0,0 l/m 9,1 km/h (2 Bft) O-SO 107 0 min 0,000 mm 0,0 UV-I 0 W/m -1,9 C -3,5 C 12,9 km/h (3 Bft) 97,44 %
28.11.2018 02:56 -0,8 C 3,9 C -1,7 C 92 % 1024,9 hPa 0,0 l/m 6,5 km/h (2 Bft) O 90 0 min 0,000 mm 0,0 UV-I 0 W/m -1,9 C -0,9 C 9,7 km/h (2 Bft) 96,23 %
28.11.2018 02:58 -0,8 C 3,9 C -1,7 C 92 % 1024,9 hPa 0,0 l/m 7,5 km/h (2 Bft) O 98 0 min 0,000 mm 0,0 UV-I 0 W/m -1,9 C -2,0 C 11,3 km/h (2 Bft) 89,36 %
28.11.2018 03:00 -0,9 C 3,9 C -1,7 C 92 % 1024,9 hPa 0,0 l/m 9,8 km/h (2 Bft) O 88 0 min 0,000 mm 0,0 UV-I 0 W/m -2,0 C -4,3 C 12,9 km/h (3 Bft) 100,00 %
28.11.2018 03:02 -0,9 C 3,9 C -1,7 C 92 % 1024,9 hPa 0,0 l/m 7,2 km/h (2 Bft) O-SO 107 0 min 0,000 mm 0,0 UV-I 0 W/m -2,0 C -1,8 C 11,3 km/h (2 Bft) 93,22 %
28.11.2018 03:04 -0,9 C 3,9 C -1,7 C 92 % 1024,9 hPa 0,0 l/m 8,6 km/h (2 Bft) O-SO 109 0 min 0,000 mm 0,0 UV-I 0 W/m -2,0 C -3,2 C 12,9 km/h (3 Bft) 94,74 %
28.11.2018 03:06 -0,9 C 3,9 C -1,7 C 92 % 1024,9 hPa 0,0 l/m 8,2 km/h (2 Bft) O 94 0 min 0,000 mm 0,0 UV-I 0 W/m -2,0 C -2,8 C 11,3 km/h (2 Bft) 96,23 %
28.11.2018 03:08 -1,0 C 3,9 C -1,7 C 92 % 1024,9 hPa 0,0 l/m 8,4 km/h (2 Bft) O-SO 111 0 min 0,000 mm 0,0 UV-I 0 W/m -2,1 C -3,1 C 12,9 km/h (3 Bft) 95,45 %
28.11.2018 03:10 -1,0 C 3,9 C -1,7 C 92 % 1024,9 hPa 0,0 l/m 8,4 km/h (2 Bft) O 96 0 min 0,000 mm 0,0 UV-I 0 W/m -2,1 C -3,1 C 12,9 km/h (3 Bft) 95,74 %
28.11.2018 03:12 -1,1 C 3,9 C -1,7 C 92 % 1024,9 hPa 0,0 l/m 9,3 km/h (2 Bft) O 97 0 min 0,000 mm 0,0 UV-I 0 W/m -2,2 C -4,0 C 14,5 km/h (3 Bft) 95,74 %
28.11.2018 03:14 -1,1 C 3,9 C -1,7 C 92 % 1025,0 hPa 0,0 l/m 7,2 km/h (2 Bft) O 84 0 min 0,000 mm 0,0 UV-I 0 W/m -2,2 C -2,0 C 12,9 km/h (3 Bft) 95,45 %
28.11.2018 03:16 -1,1 C 3,9 C -1,7 C 92 % 1025,0 hPa 0,0 l/m 9,0 km/h (2 Bft) O-SO 121 0 min 0,000 mm 0,0 UV-I 0 W/m -2,2 C -3,8 C 14,5 km/h (3 Bft) 92,45 %
28.11.2018 03:18 -1,1 C 3,9 C -1,7 C 92 % 1025,0 hPa 0,0 l/m 6,8 km/h (2 Bft) SO 126 0 min 0,000 mm 0,0 UV-I 0 W/m -2,2 C -1,5 C 11,3 km/h (2 Bft) 95,74 %
28.11.2018 03:20 -1,1 C 3,9 C -1,7 C 92 % 1025,0 hPa 0,0 l/m 7,4 km/h (2 Bft) O-SO 112 0 min 0,000 mm 0,0 UV-I 0 W/m -2,2 C -2,2 C 11,3 km/h (2 Bft) 92,11 %
28.11.2018 03:22 -1,1 C 3,9 C -1,7 C 92 % 1025,1 hPa 0,0 l/m 7,7 km/h (2 Bft) O-SO 103 0 min 0,000 mm 0,0 UV-I 0 W/m -2,2 C -2,5 C 12,9 km/h (3 Bft) 100,00 %
28.11.2018 03:24 -1,1 C 3,9 C -1,7 C 92 % 1025,1 hPa 0,0 l/m 10,0 km/h (2 Bft) O-SO 104 0 min 0,000 mm 0,0 UV-I 0 W/m -2,2 C -4,7 C 14,5 km/h (3 Bft) 96,23 %
28.11.2018 03:26 -1,2 C 3,9 C -1,7 C 92 % 1025,0 hPa 0,0 l/m 10,9 km/h (2 Bft) O-SO 111 0 min 0,000 mm 0,0 UV-I 0 W/m -2,3 C -5,5 C 16,1 km/h (3 Bft) 97,87 %
28.11.2018 03:28 -1,2 C 3,9 C -1,7 C 92 % 1025,1 hPa 0,0 l/m 8,9 km/h (2 Bft) SO 125 0 min 0,000 mm 0,0 UV-I 0 W/m -2,3 C -3,8 C 14,5 km/h (3 Bft) 97,37 %
28.11.2018 03:30 -1,2 C 3,9 C -1,7 C 92 % 1025,1 hPa 0,0 l/m 9,0 km/h (2 Bft) O-SO 113 0 min 0,000 mm 0,0 UV-I 0 W/m -2,3 C -3,9 C 14,5 km/h (3 Bft) 89,29 %
28.11.2018 03:32 -1,2 C 3,9 C -1,7 C 92 % 1025,1 hPa 0,0 l/m 6,8 km/h (2 Bft) SO 127 0 min 0,000 mm 0,0 UV-I 0 W/m -2,3 C -1,6 C 11,3 km/h (2 Bft) 95,12 %
28.11.2018 03:34 -1,2 C 3,9 C -1,7 C 92 % 1025,1 hPa 0,0 l/m 9,4 km/h (2 Bft) O-SO 113 0 min 0,000 mm 0,0 UV-I 0 W/m -2,3 C -4,2 C 14,5 km/h (3 Bft) 96,23 %
28.11.2018 03:36 -1,2 C 3,9 C -1,7 C 92 % 1025,1 hPa 0,0 l/m 9,1 km/h (2 Bft) O-SO 106 0 min 0,000 mm 0,0 UV-I 0 W/m -2,3 C -4,0 C 14,5 km/h (3 Bft) 95,24 %
28.11.2018 03:38 -1,2 C 3,9 C -1,7 C 92 % 1025,1 hPa 0,0 l/m 6,8 km/h (2 Bft) O-SO 123 0 min 0,000 mm 0,0 UV-I 0 W/m -2,3 C -1,6 C 11,3 km/h (2 Bft) 96,00 %
28.11.2018 03:40 -1,2 C 3,9 C -1,7 C 92 % 1025,1 hPa 0,0 l/m 7,8 km/h (2 Bft) O-SO 107 0 min 0,000 mm 0,0 UV-I 0 W/m -2,3 C -2,7 C 12,9 km/h (3 Bft) 97,37 %
28.11.2018 03:42 -1,2 C 3,9 C -1,7 C 92 % 1025,2 hPa 0,0 l/m 8,7 km/h (2 Bft) SO 124 0 min 0,000 mm 0,0 UV-I 0 W/m -2,3 C -3,6 C 12,9 km/h (3 Bft) 98,00 %
28.11.2018 03:44 -1,2 C 3,9 C -1,7 C 92 % 1025,3 hPa 0,0 l/m 8,6 km/h (2 Bft) SO 128 0 min 0,000 mm 0,0 UV-I 0 W/m -2,3 C -3,5 C 12,9 km/h (3 Bft) 98,00 %
28.11.2018 03:46 -1,2 C 3,9 C -1,7 C 92 % 1025,2 hPa 0,0 l/m 5,5 km/h (1 Bft) O-SO 113 0 min 0,000 mm 0,0 UV-I 0 W/m -2,3 C -1,2 C 9,7 km/h (2 Bft) 97,87 %
28.11.2018 03:48 -1,2 C 3,9 C -1,7 C 92 % 1025,3 hPa 0,0 l/m 8,2 km/h (2 Bft) O-SO 116 0 min 0,000 mm 0,0 UV-I 0 W/m -2,3 C -3,1 C 12,9 km/h (3 Bft) 98,00 %
28.11.2018 03:50 -1,2 C 3,9 C -1,7 C 92 % 1025,3 hPa 0,0 l/m 8,0 km/h (2 Bft) O 96 0 min 0,000 mm 0,0 UV-I 0 W/m -2,3 C -2,9 C 11,3 km/h (2 Bft) 97,37 %
28.11.2018 03:52 -1,2 C 3,9 C -1,7 C 92 % 1025,3 hPa 0,0 l/m 7,4 km/h (2 Bft) O-SO 119 0 min 0,000 mm 0,0 UV-I 0 W/m -2,3 C -2,3 C 11,3 km/h (2 Bft) 100,00 %
28.11.2018 03:54 -1,2 C 3,9 C -1,7 C 92 % 1025,3 hPa 0,0 l/m 9,7 km/h (2 Bft) O-SO 103 0 min 0,000 mm 0,0 UV-I 0 W/m -2,3 C -4,5 C 12,9 km/h (3 Bft) 98,11 %
28.11.2018 03:56 -1,2 C 3,9 C -1,7 C 92 % 1025,3 hPa 0,0 l/m 7,5 km/h (2 Bft) O-SO 120 0 min 0,000 mm 0,0 UV-I 0 W/m -2,3 C -2,4 C 12,9 km/h (3 Bft) 100,00 %
28.11.2018 03:58 -1,2 C 3,9 C -1,7 C 91 % 1025,4 hPa 0,0 l/m 7,4 km/h (2 Bft) O-SO 110 0 min 0,000 mm 0,0 UV-I 0 W/m -2,5 C -2,3 C 12,9 km/h (3 Bft) 100,00 %
28.11.2018 04:00 -1,2 C 3,9 C -1,7 C 91 % 1025,3 hPa 0,0 l/m 6,1 km/h (2 Bft) O-SO 119 0 min 0,000 mm 0,0 UV-I 0 W/m -2,5 C -1,2 C 12,9 km/h (3 Bft) 100,00 %
28.11.2018 04:02 -1,2 C 3,9 C -1,7 C 91 % 1025,4 hPa 0,0 l/m 6,1 km/h (2 Bft) O-SO 105 0 min 0,000 mm 0,0 UV-I 0 W/m -2,5 C -1,2 C 11,3 km/h (2 Bft) 100,00 %
28.11.2018 04:04 -1,2 C 3,9 C -1,7 C 92 % 1025,4 hPa 0,0 l/m 5,3 km/h (1 Bft) O 90 0 min 0,000 mm 0,0 UV-I 0 W/m -2,3 C -1,2 C 11,3 km/h (2 Bft) 97,87 %
28.11.2018 04:06 -1,2 C 3,9 C -1,7 C 92 % 1025,4 hPa 0,0 l/m 6,0 km/h (2 Bft) O-SO 106 0 min 0,000 mm 0,0 UV-I 0 W/m -2,3 C -1,2 C 11,3 km/h (2 Bft) 98,11 %
28.11.2018 04:08 -1,2 C 3,9 C -1,7 C 92 % 1025,5 hPa 0,0 l/m 9,1 km/h (2 Bft) O 100 0 min 0,000 mm 0,0 UV-I 0 W/m -2,3 C -4,0 C 12,9 km/h (3 Bft) 100,00 %
28.11.2018 04:10 -1,1 C 3,9 C -1,7 C 91 % 1025,5 hPa 0,0 l/m 8,2 km/h (2 Bft) O-SO 115 0 min 0,000 mm 0,0 UV-I 0 W/m -2,4 C -3,0 C 11,3 km/h (2 Bft) 98,00 %
28.11.2018 04:12 -1,1 C 3,9 C -1,7 C 91 % 1025,5 hPa 0,0 l/m 8,8 km/h (2 Bft) O-SO 103 0 min 0,000 mm 0,0 UV-I 0 W/m -2,4 C -3,6 C 12,9 km/h (3 Bft) 100,00 %
28.11.2018 04:14 -1,1 C 3,9 C -1,7 C 92 % 1025,5 hPa 0,0 l/m 6,3 km/h (2 Bft) O-SO 117 0 min 0,000 mm 0,0 UV-I 0 W/m -2,2 C -1,1 C 9,7 km/h (2 Bft) 97,44 %
28.11.2018 04:16 -1,1 C 3,9 C -1,7 C 92 % 1025,5 hPa 0,0 l/m 7,1 km/h (2 Bft) SO 124 0 min 0,000 mm 0,0 UV-I 0 W/m -2,2 C -1,9 C 11,3 km/h (2 Bft) 100,00 %
28.11.2018 04:18 -1,1 C 3,9 C -1,7 C 92 % 1025,5 hPa 0,0 l/m 5,4 km/h (1 Bft) SO 132 0 min 0,000 mm 0,0 UV-I 0 W/m -2,2 C -1,1 C 9,7 km/h (2 Bft) 100,00 %
28.11.2018 04:20 -1,1 C 3,9 C -1,7 C 91 % 1025,5 hPa 0,0 l/m 5,4 km/h (1 Bft) O-SO 115 0 min 0,000 mm 0,0 UV-I 0 W/m -2,4 C -1,1 C 9,7 km/h (2 Bft) 100,00 %
28.11.2018 04:22 -1,1 C 3,9 C -1,7 C 91 % 1025,5 hPa 0,0 l/m 5,2 km/h (1 Bft) O-SO 107 0 min 0,000 mm 0,0 UV-I 0 W/m -2,4 C -1,1 C 9,7 km/h (2 Bft) 100,00 %
28.11.2018 04:24 -1,1 C 3,9 C -1,7 C 91 % 1025,6 hPa 0,0 l/m 4,1 km/h (1 Bft) O-SO 115 0 min 0,000 mm 0,0 UV-I 0 W/m -2,4 C -1,1 C 6,4 km/h (2 Bft) 92,11 %
28.11.2018 04:26 -1,1 C 3,9 C -1,7 C 92 % 1025,6 hPa 0,0 l/m 3,4 km/h (1 Bft) SO 134 0 min 0,000 mm 0,0 UV-I 0 W/m -2,2 C -1,1 C 6,4 km/h (2 Bft) 100,00 %
28.11.2018 04:28 -1,1 C 3,9 C -1,7 C 92 % 1025,6 hPa 0,0 l/m 3,1 km/h (1 Bft) O-SO 107 0 min 0,000 mm 0,0 UV-I 0 W/m -2,2 C -1,1 C 4,8 km/h (1 Bft) 97,87 %
28.11.2018 04:30 -1,1 C 3,9 C -1,7 C 92 % 1025,6 hPa 0,0 l/m 3,5 km/h (1 Bft) O-SO 113 0 min 0,000 mm 0,0 UV-I 0 W/m -2,2 C -1,1 C 4,8 km/h (1 Bft) 100,00 %
28.11.2018 04:32 -1,2 C 3,9 C -1,7 C 92 % 1025,7 hPa 0,0 l/m 3,7 km/h (1 Bft) O-SO 113 0 min 0,000 mm 0,0 UV-I 0 W/m -2,3 C -1,2 C 4,8 km/h (1 Bft) 98,00 %
28.11.2018 04:34 -1,1 C 3,9 C -1,7 C 92 % 1025,6 hPa 0,0 l/m 4,7 km/h (1 Bft) O-SO 113 0 min 0,000 mm 0,0 UV-I 0 W/m -2,2 C -1,1 C 9,7 km/h (2 Bft) 100,00 %
28.11.2018 04:36 -1,1 C 3,9 C -1,7 C 92 % 1025,7 hPa 0,0 l/m 3,4 km/h (1 Bft) O-SO 115 0 min 0,000 mm 0,0 UV-I 0 W/m -2,2 C -1,1 C 6,4 km/h (2 Bft) 97,37 %
28.11.2018 04:38 -1,1 C 3,9 C -1,7 C 92 % 1025,7 hPa 0,0 l/m 4,7 km/h (1 Bft) O-SO 113 0 min 0,000 mm 0,0 UV-I 0 W/m -2,2 C -1,1 C 6,4 km/h (2 Bft) 98,00 %
28.11.2018 04:40 -1,1 C 3,9 C -1,7 C 92 % 1025,7 hPa 0,0 l/m 3,5 km/h (1 Bft) O 100 0 min 0,000 mm 0,0 UV-I 0 W/m -2,2 C -1,1 C 4,8 km/h (1 Bft) 100,00 %
28.11.2018 04:42 -1,1 C 3,9 C -1,1 C 91 % 1025,8 hPa 0,0 l/m 3,4 km/h (1 Bft) O 101 0 min 0,000 mm 0,0 UV-I 0 W/m -2,4 C -1,1 C 4,8 km/h (1 Bft) 94,00 %
28.11.2018 04:44 -1,1 C 3,9 C -1,1 C 91 % 1025,7 hPa 0,0 l/m 2,9 km/h (1 Bft) O-SO 103 0 min 0,000 mm 0,0 UV-I 0 W/m -2,4 C -1,1 C 6,4 km/h (2 Bft) 97,22 %
28.11.2018 04:46 -1,0 C 3,9 C -1,1 C 91 % 1025,8 hPa 0,0 l/m 3,7 km/h (1 Bft) O-SO 117 0 min 0,000 mm 0,0 UV-I 0 W/m -2,3 C -1,0 C 6,4 km/h (2 Bft) 94,23 %
28.11.2018 04:48 -1,0 C 3,9 C -1,1 C 91 % 1025,8 hPa 0,0 l/m 3,8 km/h (1 Bft) O 99 0 min 0,000 mm 0,0 UV-I 0 W/m -2,3 C -1,0 C 6,4 km/h (2 Bft) 98,00 %
28.11.2018 04:50 -1,0 C 3,9 C -1,1 C 91 % 1025,8 hPa 0,0 l/m 2,1 km/h (1 Bft) O 99 0 min 0,000 mm 0,0 UV-I 0 W/m -2,3 C -1,0 C 3,2 km/h (1 Bft) 98,00 %
28.11.2018 04:52 -1,1 C 3,9 C -1,1 C 92 % 1025,8 hPa 0,0 l/m 5,2 km/h (1 Bft) O 98 0 min 0,000 mm 0,0 UV-I 0 W/m -2,2 C -1,1 C 9,7 km/h (2 Bft) 97,62 %
28.11.2018 04:54 -1,1 C 3,9 C -1,1 C 91 % 1025,8 hPa 0,0 l/m 5,5 km/h (1 Bft) O-SO 105 0 min 0,000 mm 0,0 UV-I 0 W/m -2,4 C -1,1 C 9,7 km/h (2 Bft) 96,00 %
28.11.2018 04:56 -1,0 C 3,9 C -1,1 C 91 % 1025,8 hPa 0,0 l/m 3,6 km/h (1 Bft) O-SO 117 0 min 0,000 mm 0,0 UV-I 0 W/m -2,3 C -1,0 C 4,8 km/h (1 Bft) 95,12 %
28.11.2018 04:58 -1,0 C 3,9 C -1,1 C 91 % 1025,8 hPa 0,0 l/m 3,7 km/h (1 Bft) O 101 0 min 0,000 mm 0,0 UV-I 0 W/m -2,3 C -1,0 C 6,4 km/h (2 Bft) 93,62 %
28.11.2018 05:00 -1,0 C 3,9 C -1,1 C 91 % 1025,9 hPa 0,0 l/m 5,4 km/h (1 Bft) O 98 0 min 0,000 mm 0,0 UV-I 0 W/m -2,3 C -1,0 C 6,4 km/h (2 Bft) 94,00 %
28.11.2018 05:02 -0,9 C 3,9 C -1,1 C 91 % 1025,9 hPa 0,0 l/m 3,0 km/h (1 Bft) O 98 0 min 0,000 mm 0,0 UV-I 0 W/m -2,2 C -0,9 C 4,8 km/h (1 Bft) 96,00 %
28.11.2018 05:04 -1,0 C 3,9 C -1,1 C 91 % 1025,9 hPa 0,0 l/m 2,8 km/h (1 Bft) O 98 0 min 0,000 mm 0,0 UV-I 0 W/m -2,3 C -1,0 C 4,8 km/h (1 Bft) 94,74 %
28.11.2018 05:06 -1,0 C 3,9 C -1,1 C 91 % 1025,9 hPa 0,0 l/m 4,0 km/h (1 Bft) O-SO 102 0 min 0,000 mm 0,0 UV-I 0 W/m -2,3 C -1,0 C 6,4 km/h (2 Bft) 96,43 %
28.11.2018 05:08 -1,0 C 3,9 C -1,1 C 91 % 1026,0 hPa 0,0 l/m 3,1 km/h (1 Bft) O 101 0 min 0,000 mm 0,0 UV-I 0 W/m -2,3 C -1,0 C 6,4 km/h (2 Bft) 97,37 %
28.11.2018 05:11 -0,9 C 3,9 C -1,1 C 91 % 1026,0 hPa 0,0 l/m 3,5 km/h (1 Bft) O 101 0 min 0,000 mm 0,0 UV-I 0 W/m -2,2 C -0,9 C 4,8 km/h (1 Bft) 97,30 %
28.11.2018 05:12 -0,9 C 3,9 C -1,1 C 91 % 1026,0 hPa 0,0 l/m 4,0 km/h (1 Bft) O 101 0 min 0,000 mm 0,0 UV-I 0 W/m -2,2 C -0,9 C 4,8 km/h (1 Bft) 95,65 %
28.11.2018 05:14 -1,0 C 3,9 C -1,1 C 91 % 1026,0 hPa 0,0 l/m 4,2 km/h (1 Bft) O 101 0 min 0,000 mm 0,0 UV-I 0 W/m -2,3 C -1,0 C 6,4 km/h (2 Bft) 97,87 %
28.11.2018 05:16 -1,0 C 3,9 C -1,1 C 91 % 1025,9 hPa 0,0 l/m 3,4 km/h (1 Bft) O 94 0 min 0,000 mm 0,0 UV-I 0 W/m -2,3 C -1,0 C 4,8 km/h (1 Bft) 96,00 %
28.11.2018 05:18 -1,0 C 3,9 C -1,1 C 91 % 1026,0 hPa 0,0 l/m 2,5 km/h (1 Bft) O 94 0 min 0,000 mm 0,0 UV-I 0 W/m -2,3 C -1,0 C 4,8 km/h (1 Bft) 95,74 %
28.11.2018 05:20 -1,0 C 3,9 C -1,1 C 91 % 1026,0 hPa 0,0 l/m 2,5 km/h (1 Bft) O 94 0 min 0,000 mm 0,0 UV-I 0 W/m -2,3 C -1,0 C 4,8 km/h (1 Bft) 97,56 %
28.11.2018 05:22 -1,0 C 3,9 C -1,1 C 91 % 1026,0 hPa 0,0 l/m 3,1 km/h (1 Bft) O 94 0 min 0,000 mm 0,0 UV-I 0 W/m -2,3 C -1,0 C 4,8 km/h (1 Bft) 98,00 %
28.11.2018 05:24 -1,0 C 3,9 C -1,1 C 91 % 1026,0 hPa 0,0 l/m 3,4 km/h (1 Bft) O 94 0 min 0,000 mm 0,0 UV-I 0 W/m -2,3 C -1,0 C 4,8 km/h (1 Bft) 98,00 %
28.11.2018 05:26 -1,1 C 3,9 C -1,1 C 92 % 1026,0 hPa 0,0 l/m 3,6 km/h (1 Bft) O-SO 103 0 min 0,000 mm 0,0 UV-I 0 W/m -2,2 C -1,1 C 4,8 km/h (1 Bft) 98,00 %
28.11.2018 05:28 -1,1 C 3,9 C -1,1 C 92 % 1026,0 hPa 0,0 l/m 2,9 km/h (1 Bft) O-SO 103 0 min 0,000 mm 0,0 UV-I 0 W/m -2,2 C -1,1 C 4,8 km/h (1 Bft) 100,00 %
28.11.2018 05:30 -1,1 C 3,9 C -1,1 C 92 % 1026,0 hPa 0,0 l/m 2,6 km/h (1 Bft) O-SO 103 0 min 0,000 mm 0,0 UV-I 0 W/m -2,2 C -1,1 C 4,8 km/h (1 Bft) 100,00 %
28.11.2018 05:32 -1,1 C 3,9 C -1,1 C 92 % 1026,0 hPa 0,0 l/m 2,8 km/h (1 Bft) O-SO 103 0 min 0,000 mm 0,0 UV-I 0 W/m -2,2 C -1,1 C 3,2 km/h (1 Bft) 98,04 %
28.11.2018 05:35 -1,1 C 3,9 C -1,1 C 92 % 1026,0 hPa 0,0 l/m 1,7 km/h (1 Bft) O-SO 103 0 min 0,000 mm 0,0 UV-I 0 W/m -2,2 C -1,1 C 3,2 km/h (1 Bft) 100,00 %
28.11.2018 05:36 -1,1 C 3,9 C -1,1 C 93 % 1026,0 hPa 0,0 l/m 1,2 km/h (1 Bft) O-SO 103 0 min 0,000 mm 0,0 UV-I 0 W/m -2,1 C -1,1 C 3,2 km/h (1 Bft) 100,00 %
28.11.2018 05:38 -1,1 C 3,9 C -1,1 C 92 % 1026,0 hPa 0,0 l/m 2,0 km/h (1 Bft) O-SO 103 0 min 0,000 mm 0,0 UV-I 0 W/m -2,2 C -1,1 C 3,2 km/h (1 Bft) 100,00 %
28.11.2018 05:40 -1,1 C 3,9 C -1,1 C 93 % 1026,0 hPa 0,0 l/m 1,9 km/h (1 Bft) O-SO 103 0 min 0,000 mm 0,0 UV-I 0 W/m -2,1 C -1,1 C 3,2 km/h (1 Bft) 98,00 %
28.11.2018 05:42 -1,1 C 3,9 C -1,1 C 93 % 1026,0 hPa 0,0 l/m 1,8 km/h (1 Bft) O-SO 103 0 min 0,000 mm 0,0 UV-I 0 W/m -2,1 C -1,1 C 3,2 km/h (1 Bft) 100,00 %
28.11.2018 05:44 -1,1 C 3,9 C -1,1 C 93 % 1026,0 hPa 0,0 l/m 2,6 km/h (1 Bft) O 89 0 min 0,000 mm 0,0 UV-I 0 W/m -2,1 C -1,1 C 6,4 km/h (2 Bft) 100,00 %
28.11.2018 05:46 -1,1 C 3,9 C -1,1 C 93 % 1026,1 hPa 0,0 l/m 3,3 km/h (1 Bft) O 95 0 min 0,000 mm 0,0 UV-I 0 W/m -2,1 C -1,1 C 4,8 km/h (1 Bft) 97,87 %
28.11.2018 05:48 -1,1 C 3,9 C -1,1 C 93 % 1026,1 hPa 0,0 l/m 2,6 km/h (1 Bft) O-SO 102 0 min 0,000 mm 0,0 UV-I 0 W/m -2,1 C -1,1 C 4,8 km/h (1 Bft) 100,00 %
28.11.2018 05:50 -1,1 C 3,9 C -1,1 C 93 % 1026,1 hPa 0,0 l/m 2,3 km/h (1 Bft) O-SO 102 0 min 0,000 mm 0,0 UV-I 0 W/m -2,1 C -1,1 C 3,2 km/h (1 Bft) 100,00 %
28.11.2018 05:52 -1,1 C 3,9 C -1,1 C 93 % 1026,1 hPa 0,0 l/m 3,1 km/h (1 Bft) O 92 0 min 0,000 mm 0,0 UV-I 0 W/m -2,1 C -1,1 C 4,8 km/h (1 Bft) 100,00 %
28.11.2018 05:54 -1,1 C 3,9 C -1,1 C 93 % 1026,1 hPa 0,0 l/m 3,2 km/h (1 Bft) SO 129 0 min 0,000 mm 0,0 UV-I 0 W/m -2,1 C -1,1 C 6,4 km/h (2 Bft) 100,00 %
28.11.2018 05:56 -1,1 C 3,9 C -1,1 C 93 % 1026,1 hPa 0,0 l/m 3,7 km/h (1 Bft) SO 127 0 min 0,000 mm 0,0 UV-I 0 W/m -2,1 C -1,1 C 4,8 km/h (1 Bft) 100,00 %
28.11.2018 05:58 -1,1 C 3,9 C -1,1 C 93 % 1026,2 hPa 0,0 l/m 2,9 km/h (1 Bft) O 92 0 min 0,000 mm 0,0 UV-I 0 W/m -2,1 C -1,1 C 4,8 km/h (1 Bft) 98,00 %
28.11.2018 06:00 -1,1 C 3,9 C -1,1 C 93 % 1026,2 hPa 0,0 l/m 2,2 km/h (1 Bft) O 92 0 min 0,000 mm 0,0 UV-I 0 W/m -2,1 C -1,1 C 3,2 km/h (1 Bft) 98,00 %
28.11.2018 06:02 -1,1 C 3,9 C -1,1 C 93 % 1026,2 hPa 0,0 l/m 1,7 km/h (1 Bft) O 92 0 min 0,000 mm 0,0 UV-I 0 W/m -2,1 C -1,1 C 3,2 km/h (1 Bft) 95,83 %
28.11.2018 06:04 -1,1 C 3,9 C -1,1 C 93 % 1026,2 hPa 0,0 l/m 2,0 km/h (1 Bft) O 92 0 min 0,000 mm 0,0 UV-I 0 W/m -2,1 C -1,1 C 4,8 km/h (1 Bft) 98,44 %
28.11.2018 06:06 -1,1 C 3,9 C -1,1 C 93 % 1026,3 hPa 0,0 l/m 1,8 km/h (1 Bft) O-SO 103 0 min 0,000 mm 0,0 UV-I 0 W/m -2,1 C -1,1 C 3,2 km/h (1 Bft) 94,87 %
28.11.2018 06:08 -1,1 C 3,9 C -1,1 C 93 % 1026,3 hPa 0,0 l/m 3,2 km/h (1 Bft) O-NO 66 0 min 0,000 mm 0,0 UV-I 0 W/m -2,1 C -1,1 C 4,8 km/h (1 Bft) 98,11 %
28.11.2018 06:10 -1,1 C 3,9 C -1,1 C 93 % 1026,2 hPa 0,0 l/m 1,6 km/h (1 Bft) O-NO 66 0 min 0,000 mm 0,0 UV-I 0 W/m -2,1 C -1,1 C 4,8 km/h (1 Bft) 95,74 %
28.11.2018 06:12 -1,1 C 3,9 C -1,1 C 93 % 1026,2 hPa 0,0 l/m 2,7 km/h (1 Bft) O 81 0 min 0,000 mm 0,0 UV-I 0 W/m -2,1 C -1,1 C 6,4 km/h (2 Bft) 98,11 %
28.11.2018 06:14 -1,1 C 3,9 C -1,1 C 93 % 1026,3 hPa 0,0 l/m 3,3 km/h (1 Bft) O 90 0 min 0,000 mm 0,0 UV-I 0 W/m -2,1 C -1,1 C 4,8 km/h (1 Bft) 92,00 %
28.11.2018 06:16 -1,1 C 3,9 C -1,1 C 93 % 1026,3 hPa 0,0 l/m 3,7 km/h (1 Bft) O 94 0 min 0,000 mm 0,0 UV-I 0 W/m -2,1 C -1,1 C 4,8 km/h (1 Bft) 97,37 %
28.11.2018 06:18 -1,1 C 3,9 C -1,1 C 93 % 1026,3 hPa 0,0 l/m 4,1 km/h (1 Bft) O-SO 107 0 min 0,000 mm 0,0 UV-I 0 W/m -2,1 C -1,1 C 6,4 km/h (2 Bft) 98,00 %
28.11.2018 06:20 -1,1 C 3,9 C -1,1 C 92 % 1026,3 hPa 0,0 l/m 3,5 km/h (1 Bft) O-NO 78 0 min 0,000 mm 0,0 UV-I 0 W/m -2,2 C -1,1 C 4,8 km/h (1 Bft) 97,87 %
28.11.2018 06:22 -1,0 C 3,9 C -1,1 C 92 % 1026,3 hPa 0,0 l/m 5,2 km/h (1 Bft) O 82 0 min 0,000 mm 0,0 UV-I 0 W/m -2,1 C -1,0 C 8,0 km/h (2 Bft) 98,00 %
28.11.2018 06:24 -1,0 C 3,9 C -1,1 C 92 % 1026,4 hPa 0,0 l/m 5,9 km/h (2 Bft) O 88 0 min 0,000 mm 0,0 UV-I 0 W/m -2,1 C -1,0 C 9,7 km/h (2 Bft) 98,00 %
28.11.2018 06:26 -1,0 C 3,9 C -1,1 C 91 % 1026,4 hPa 0,0 l/m 5,8 km/h (2 Bft) O 84 0 min 0,000 mm 0,0 UV-I 0 W/m -2,3 C -1,0 C 8,0 km/h (2 Bft) 97,37 %
28.11.2018 06:28 -1,0 C 3,9 C -1,1 C 91 % 1026,4 hPa 0,0 l/m 4,9 km/h (1 Bft) O-NO 76 0 min 0,000 mm 0,0 UV-I 0 W/m -2,3 C -1,0 C 8,0 km/h (2 Bft) 100,00 %
28.11.2018 06:30 -1,0 C 3,9 C -1,1 C 91 % 1026,5 hPa 0,0 l/m 4,7 km/h (1 Bft) O-NO 71 0 min 0,000 mm 0,0 UV-I 0 W/m -2,3 C -1,0 C 9,7 km/h (2 Bft) 97,37 %
28.11.2018 06:32 -0,9 C 3,9 C -1,1 C 91 % 1026,4 hPa 0,0 l/m 3,4 km/h (1 Bft) O-NO 78 0 min 0,000 mm 0,0 UV-I 0 W/m -2,2 C -0,9 C 6,4 km/h (2 Bft) 98,00 %
28.11.2018 06:34 -1,0 C 3,9 C -1,1 C 91 % 1026,5 hPa 0,0 l/m 5,8 km/h (2 Bft) O 85 0 min 0,000 mm 0,0 UV-I 0 W/m -2,3 C -1,0 C 9,7 km/h (2 Bft) 96,00 %
28.11.2018 06:36 -1,0 C 3,9 C -1,1 C 91 % 1026,5 hPa 0,0 l/m 6,3 km/h (2 Bft) O 89 0 min 0,000 mm 0,0 UV-I 0 W/m -2,3 C -1,0 C 9,7 km/h (2 Bft) 95,45 %
28.11.2018 06:38 -0,9 C 3,9 C -1,1 C 91 % 1026,5 hPa 0,0 l/m 5,7 km/h (1 Bft) O-NO 68 0 min 0,000 mm 0,0 UV-I 0 W/m -2,2 C -0,9 C 9,7 km/h (2 Bft) 97,56 %
28.11.2018 06:40 -0,9 C 3,9 C -1,1 C 91 % 1026,5 hPa 0,0 l/m 4,6 km/h (1 Bft) O-NO 71 0 min 0,000 mm 0,0 UV-I 0 W/m -2,2 C -0,9 C 6,4 km/h (2 Bft) 98,11 %
28.11.2018 06:42 -0,9 C 3,9 C -1,1 C 91 % 1026,5 hPa 0,0 l/m 3,5 km/h (1 Bft) O 82 0 min 0,000 mm 0,0 UV-I 0 W/m -2,2 C -0,9 C 4,8 km/h (1 Bft) 97,44 %
28.11.2018 06:44 -0,9 C 3,9 C -1,1 C 91 % 1026,5 hPa 0,0 l/m 3,7 km/h (1 Bft) O 80 0 min 0,000 mm 0,0 UV-I 0 W/m -2,2 C -0,9 C 6,4 km/h (2 Bft) 98,18 %
28.11.2018 06:46 -0,9 C 3,9 C -1,1 C 91 % 1026,6 hPa 0,0 l/m 3,3 km/h (1 Bft) O 85 0 min 0,000 mm 0,0 UV-I 0 W/m -2,2 C -0,9 C 4,8 km/h (1 Bft) 97,87 %
28.11.2018 06:48 -0,9 C 3,9 C -1,1 C 91 % 1026,6 hPa 0,0 l/m 3,6 km/h (1 Bft) O 82 0 min 0,000 mm 0,0 UV-I 0 W/m -2,2 C -0,9 C 8,0 km/h (2 Bft) 96,00 %
28.11.2018 06:50 -0,9 C 3,9 C -1,1 C 91 % 1026,7 hPa 0,0 l/m 3,1 km/h (1 Bft) NO 55 0 min 0,000 mm 0,0 UV-I 0 W/m -2,2 C -0,9 C 4,8 km/h (1 Bft) 96,00 %
28.11.2018 06:52 -0,9 C 3,9 C -1,1 C 91 % 1026,7 hPa 0,0 l/m 4,1 km/h (1 Bft) O-NO 58 0 min 0,000 mm 0,0 UV-I 0 W/m -2,2 C -0,9 C 6,4 km/h (2 Bft) 97,44 %
28.11.2018 06:54 -0,9 C 3,9 C -1,1 C 91 % 1026,8 hPa 0,0 l/m 4,1 km/h (1 Bft) NO 44 0 min 0,000 mm 0,0 UV-I 0 W/m -2,2 C -0,9 C 6,4 km/h (2 Bft) 95,74 %
28.11.2018 06:56 -0,9 C 3,9 C -1,1 C 91 % 1026,8 hPa 0,0 l/m 4,1 km/h (1 Bft) NO 55 0 min 0,000 mm 0,0 UV-I 0 W/m -2,2 C -0,9 C 4,8 km/h (1 Bft) 95,74 %
28.11.2018 06:58 -0,9 C 3,9 C -1,1 C 91 % 1026,8 hPa 0,0 l/m 4,8 km/h (1 Bft) O-NO 62 0 min 0,000 mm 0,0 UV-I 0 W/m -2,2 C -0,9 C 6,4 km/h (2 Bft) 95,74 %
28.11.2018 07:00 -0,9 C 3,9 C -1,1 C 91 % 1026,8 hPa 0,0 l/m 4,6 km/h (1 Bft) O-NO 67 0 min 0,000 mm 0,0 UV-I 0 W/m -2,2 C -0,9 C 6,4 km/h (2 Bft) 95,74 %
28.11.2018 07:02 -0,9 C 3,9 C -1,1 C 91 % 1026,8 hPa 0,0 l/m 4,8 km/h (1 Bft) O-NO 69 0 min 0,000 mm 0,0 UV-I 0 W/m -2,2 C -0,9 C 6,4 km/h (2 Bft) 96,23 %
28.11.2018 07:04 -0,9 C 3,9 C -1,1 C 91 % 1026,8 hPa 0,0 l/m 4,0 km/h (1 Bft) NO 51 0 min 0,000 mm 0,0 UV-I 0 W/m -2,2 C -0,9 C 6,4 km/h (2 Bft) 95,12 %
28.11.2018 07:06 -0,9 C 3,9 C -1,1 C 91 % 1026,8 hPa 0,0 l/m 6,3 km/h (2 Bft) O-NO 73 0 min 0,000 mm 0,0 UV-I 0 W/m -2,2 C -0,9 C 8,0 km/h (2 Bft) 94,74 %
28.11.2018 07:08 -0,9 C 3,9 C -1,1 C 90 % 1026,8 hPa 0,0 l/m 5,4 km/h (1 Bft) O-NO 69 0 min 0,000 mm 0,0 UV-I 0 W/m -2,3 C -0,9 C 8,0 km/h (2 Bft) 95,38 %
28.11.2018 07:10 -0,9 C 3,9 C -1,1 C 90 % 1026,8 hPa 0,0 l/m 7,5 km/h (2 Bft) O-NO 64 0 min 0,000 mm 0,0 UV-I 0 W/m -2,3 C -2,1 C 11,3 km/h (2 Bft) 88,46 %
28.11.2018 07:12 -0,9 C 3,9 C -1,1 C 90 % 1026,8 hPa 0,0 l/m 7,6 km/h (2 Bft) O-NO 73 0 min 0,000 mm 0,0 UV-I 0 W/m -2,3 C -2,2 C 11,3 km/h (2 Bft) 95,38 %
28.11.2018 07:14 -0,9 C 3,9 C -1,1 C 90 % 1026,8 hPa 0,0 l/m 7,3 km/h (2 Bft) O-NO 76 0 min 0,000 mm 0,0 UV-I 0 W/m -2,3 C -1,9 C 12,9 km/h (3 Bft) 93,62 %
28.11.2018 07:16 -0,9 C 3,9 C -1,1 C 90 % 1026,9 hPa 0,0 l/m 6,9 km/h (2 Bft) O-NO 65 0 min 0,000 mm 0,0 UV-I 0 W/m -2,3 C -1,4 C 8,0 km/h (2 Bft) 92,68 %
28.11.2018 07:18 -0,9 C 3,9 C -1,1 C 90 % 1026,9 hPa 0,0 l/m 7,5 km/h (2 Bft) O 82 0 min 0,000 mm 0,0 UV-I 0 W/m -2,3 C -2,1 C 11,3 km/h (2 Bft) 94,74 %
28.11.2018 07:20 -0,9 C 3,9 C -1,1 C 90 % 1026,9 hPa 0,0 l/m 6,3 km/h (2 Bft) O 82 0 min 0,000 mm 0,0 UV-I 0 W/m -2,3 C -0,9 C 11,3 km/h (2 Bft) 94,64 %
28.11.2018 07:22 -0,9 C 3,9 C -1,1 C 90 % 1026,9 hPa 0,0 l/m 7,0 km/h (2 Bft) O-NO 69 0 min 0,000 mm 0,0 UV-I 2 W/m -2,3 C -1,5 C 11,3 km/h (2 Bft) 95,12 %
28.11.2018 07:24 -0,9 C 3,9 C -1,1 C 90 % 1026,9 hPa 0,0 l/m 7,1 km/h (2 Bft) O 83 0 min 0,000 mm 0,0 UV-I 5 W/m -2,3 C -1,6 C 11,3 km/h (2 Bft) 96,00 %
28.11.2018 07:26 -0,9 C 3,9 C -1,1 C 90 % 1027,0 hPa 0,0 l/m 7,4 km/h (2 Bft) O 94 0 min 0,000 mm 0,0 UV-I 5 W/m -2,3 C -2,0 C 11,3 km/h (2 Bft) 94,00 %
28.11.2018 07:28 -0,9 C 3,9 C -1,7 C 89 % 1027,0 hPa 0,0 l/m 7,6 km/h (2 Bft) O 82 0 min 0,000 mm 0,0 UV-I 5 W/m -2,5 C -2,2 C 11,3 km/h (2 Bft) 94,87 %
28.11.2018 07:30 -1,0 C 3,9 C -1,7 C 90 % 1027,0 hPa 0,0 l/m 6,9 km/h (2 Bft) O 96 0 min 0,000 mm 0,0 UV-I 5 W/m -2,4 C -1,5 C 12,9 km/h (3 Bft) 96,00 %
28.11.2018 07:32 -1,0 C 3,9 C -1,1 C 90 % 1027,1 hPa 0,0 l/m 7,2 km/h (2 Bft) O-NO 69 0 min 0,000 mm 0,0 UV-I 6 W/m -2,4 C -1,9 C 9,7 km/h (2 Bft) 98,21 %
28.11.2018 07:34 -1,0 C 3,9 C -1,1 C 90 % 1027,1 hPa 0,0 l/m 8,0 km/h (2 Bft) O 96 0 min 0,000 mm 0,0 UV-I 7 W/m -2,4 C -2,7 C 11,3 km/h (2 Bft) 100,00 %
28.11.2018 07:36 -1,0 C 3,9 C -1,1 C 90 % 1027,1 hPa 0,0 l/m 10,2 km/h (2 Bft) O-SO 108 0 min 0,000 mm 0,0 UV-I 7 W/m -2,4 C -4,7 C 12,9 km/h (3 Bft) 100,00 %
28.11.2018 07:38 -1,0 C 3,9 C -1,7 C 90 % 1027,1 hPa 0,0 l/m 5,6 km/h (1 Bft) O-SO 108 0 min 0,000 mm 0,0 UV-I 7 W/m -2,4 C -1,0 C 12,9 km/h (3 Bft) 100,00 %
28.11.2018 07:40 -1,1 C 3,9 C -1,7 C 90 % 1027,1 hPa 0,0 l/m 6,1 km/h (2 Bft) O-NO 71 0 min 0,000 mm 0,0 UV-I 9 W/m -2,5 C -1,1 C 11,3 km/h (2 Bft) 100,00 %
28.11.2018 07:42 -1,1 C 3,9 C -1,7 C 90 % 1027,1 hPa 0,0 l/m 7,7 km/h (2 Bft) O-SO 110 0 min 0,000 mm 0,0 UV-I 9 W/m -2,5 C -2,5 C 12,9 km/h (3 Bft) 98,00 %
28.11.2018 07:44 -1,1 C 3,9 C -1,7 C 90 % 1027,1 hPa 0,0 l/m 8,6 km/h (2 Bft) O 95 0 min 0,000 mm 0,0 UV-I 10 W/m -2,5 C -3,4 C 14,5 km/h (3 Bft) 100,00 %
28.11.2018 07:46 -1,1 C 3,9 C -1,7 C 90 % 1027,1 hPa 0,0 l/m 7,6 km/h (2 Bft) O 88 0 min 0,000 mm 0,0 UV-I 11 W/m -2,5 C -2,4 C 11,3 km/h (2 Bft) 100,00 %
28.11.2018 07:48 -1,1 C 3,9 C -1,7 C 90 % 1027,2 hPa 0,0 l/m 6,3 km/h (2 Bft) O 91 0 min 0,000 mm 0,0 UV-I 11 W/m -2,5 C -1,1 C 11,3 km/h (2 Bft) 97,56 %
28.11.2018 07:50 -1,1 C 3,9 C -1,7 C 90 % 1027,2 hPa 0,0 l/m 5,8 km/h (2 Bft) O 101 0 min 0,000 mm 0,0 UV-I 11 W/m -2,5 C -1,1 C 9,7 km/h (2 Bft) 100,00 %
28.11.2018 07:52 -1,1 C 3,9 C -1,7 C 90 % 1027,2 hPa 0,0 l/m 8,2 km/h (2 Bft) O-SO 103 0 min 0,000 mm 0,0 UV-I 11 W/m -2,5 C -3,0 C 11,3 km/h (2 Bft) 100,00 %
28.11.2018 07:54 -1,1 C 3,9 C -1,1 C 90 % 1027,3 hPa 0,0 l/m 6,6 km/h (2 Bft) O-SO 103 0 min 0,000 mm 0,0 UV-I 11 W/m -2,5 C -1,3 C 9,7 km/h (2 Bft) 100,00 %
28.11.2018 07:56 -1,1 C 3,9 C -1,1 C 90 % 1027,3 hPa 0,0 l/m 8,9 km/h (2 Bft) O-SO 103 0 min 0,000 mm 0,0 UV-I 11 W/m -2,5 C -3,7 C 14,5 km/h (3 Bft) 100,00 %
28.11.2018 07:58 -1,1 C 3,9 C -1,1 C 90 % 1027,3 hPa 0,0 l/m 6,5 km/h (2 Bft) O 90 0 min 0,000 mm 0,0 UV-I 12 W/m -2,5 C -1,2 C 11,3 km/h (2 Bft) 100,00 %
28.11.2018 08:00 -1,1 C 3,9 C -1,1 C 90 % 1027,3 hPa 0,0 l/m 7,1 km/h (2 Bft) O 99 0 min 0,000 mm 0,0 UV-I 13 W/m -2,5 C -1,9 C 11,3 km/h (2 Bft) 100,00 %
28.11.2018 08:02 -1,1 C 3,9 C -1,1 C 90 % 1027,3 hPa 0,0 l/m 6,9 km/h (2 Bft) O 97 0 min 0,000 mm 0,0 UV-I 14 W/m -2,5 C -1,6 C 11,3 km/h (2 Bft) 100,00 %
28.11.2018 08:04 -1,1 C 3,9 C -1,1 C 90 % 1027,4 hPa 0,0 l/m 6,1 km/h (2 Bft) O-SO 105 0 min 0,000 mm 0,0 UV-I 14 W/m -2,5 C -1,1 C 9,7 km/h (2 Bft) 100,00 %
28.11.2018 08:06 -1,1 C 3,9 C -1,1 C 90 % 1027,4 hPa 0,0 l/m 5,0 km/h (1 Bft) O 87 0 min 0,000 mm 0,0 UV-I 15 W/m -2,5 C -1,1 C 9,7 km/h (2 Bft) 100,00 %
28.11.2018 08:08 -1,1 C 3,9 C -1,1 C 90 % 1027,4 hPa 0,0 l/m 5,0 km/h (1 Bft) O 90 0 min 0,000 mm 0,0 UV-I 16 W/m -2,5 C -1,1 C 6,4 km/h (2 Bft) 100,00 %
28.11.2018 08:10 -1,0 C 3,9 C -1,1 C 90 % 1027,4 hPa 0,0 l/m 7,6 km/h (2 Bft) O-NO 76 0 min 0,000 mm 0,0 UV-I 16 W/m -2,4 C -2,3 C 11,3 km/h (2 Bft) 96,15 %
28.11.2018 08:12 -1,0 C 3,9 C -1,1 C 90 % 1027,5 hPa 0,0 l/m 7,3 km/h (2 Bft) O-NO 71 0 min 0,000 mm 0,0 UV-I 18 W/m -2,4 C -2,0 C 12,9 km/h (3 Bft) 100,00 %
28.11.2018 08:14 -1,0 C 3,9 C -1,1 C 90 % 1027,4 hPa 0,0 l/m 7,1 km/h (2 Bft) O-NO 67 0 min 0,000 mm 0,0 UV-I 20 W/m -2,4 C -1,7 C 8,0 km/h (2 Bft) 100,00 %
28.11.2018 08:16 -1,0 C 3,9 C -1,1 C 90 % 1027,5 hPa 0,0 l/m 6,8 km/h (2 Bft) O 97 0 min 0,000 mm 0,0 UV-I 21 W/m -2,4 C -1,4 C 9,7 km/h (2 Bft) 100,00 %
28.11.2018 08:18 -0,9 C 3,9 C -1,1 C 90 % 1027,5 hPa 0,0 l/m 5,3 km/h (1 Bft) O-NO 76 0 min 0,000 mm 0,0 UV-I 22 W/m -2,3 C -0,9 C 6,4 km/h (2 Bft) 98,00 %
28.11.2018 08:20 -1,0 C 3,9 C -1,1 C 90 % 1027,5 hPa 0,0 l/m 6,7 km/h (2 Bft) O-SO 102 0 min 0,000 mm 0,0 UV-I 25 W/m -2,4 C -1,3 C 9,7 km/h (2 Bft) 100,00 %
28.11.2018 08:22 -0,9 C 3,9 C -1,1 C 90 % 1027,6 hPa 0,0 l/m 4,8 km/h (1 Bft) O-NO 67 0 min 0,000 mm 0,0 UV-I 32 W/m -2,3 C -0,9 C 9,7 km/h (2 Bft) 98,00 %
28.11.2018 08:24 -0,9 C 3,9 C -1,1 C 90 % 1027,6 hPa 0,0 l/m 4,7 km/h (1 Bft) O 82 0 min 0,000 mm 0,0 UV-I 43 W/m -2,3 C -0,9 C 6,4 km/h (2 Bft) 100,00 %
28.11.2018 08:26 -0,9 C 3,9 C -0,6 C 90 % 1027,7 hPa 0,0 l/m 5,7 km/h (1 Bft) O 88 0 min 0,000 mm 0,0 UV-I 47 W/m -2,3 C -0,9 C 9,7 km/h (2 Bft) 96,00 %
28.11.2018 08:28 -0,9 C 3,9 C -0,6 C 90 % 1027,7 hPa 0,0 l/m 5,7 km/h (1 Bft) O-NO 78 0 min 0,000 mm 0,0 UV-I 47 W/m -2,3 C -0,9 C 9,7 km/h (2 Bft) 97,87 %
28.11.2018 08:30 -0,8 C 3,9 C -0,6 C 90 % 1027,7 hPa 0,0 l/m 5,8 km/h (2 Bft) O-NO 57 0 min 0,000 mm 0,0 UV-I 48 W/m -2,2 C -0,8 C 8,0 km/h (2 Bft) 97,87 %
28.11.2018 08:32 -0,8 C 3,9 C -0,6 C 90 % 1027,7 hPa 0,0 l/m 7,7 km/h (2 Bft) O-NO 67 0 min 0,000 mm 0,0 UV-I 50 W/m -2,2 C -2,2 C 11,3 km/h (2 Bft) 98,11 %
28.11.2018 08:34 -0,8 C 3,9 C -0,6 C 89 % 1027,7 hPa 0,0 l/m 7,4 km/h (2 Bft) O-NO 62 0 min 0,000 mm 0,0 UV-I 53 W/m -2,4 C -1,9 C 11,3 km/h (2 Bft) 97,37 %
28.11.2018 08:36 -0,8 C 3,9 C -0,6 C 90 % 1027,7 hPa 0,0 l/m 6,4 km/h (2 Bft) O-NO 71 0 min 0,000 mm 0,0 UV-I 55 W/m -2,2 C -0,8 C 9,7 km/h (2 Bft) 98,11 %
28.11.2018 08:38 -0,8 C 3,9 C -0,6 C 90 % 1027,7 hPa 0,0 l/m 6,7 km/h (2 Bft) O 84 0 min 0,000 mm 0,0 UV-I 56 W/m -2,2 C -1,1 C 11,3 km/h (2 Bft) 97,56 %
28.11.2018 08:40 -0,8 C 3,9 C -0,6 C 90 % 1027,7 hPa 0,0 l/m 6,3 km/h (2 Bft) O-SO 106 0 min 0,000 mm 0,0 UV-I 60 W/m -2,2 C -0,8 C 9,7 km/h (2 Bft) 97,62 %
28.11.2018 08:42 -0,8 C 3,9 C -0,6 C 90 % 1027,7 hPa 0,0 l/m 6,3 km/h (2 Bft) O 87 0 min 0,000 mm 0,0 UV-I 66 W/m -2,2 C -0,8 C 11,3 km/h (2 Bft) 98,11 %
28.11.2018 08:44 -0,8 C 3,9 C -0,6 C 90 % 1027,7 hPa 0,0 l/m 6,9 km/h (2 Bft) O-SO 107 0 min 0,000 mm 0,0 UV-I 69 W/m -2,2 C -1,3 C 11,3 km/h (2 Bft) 96,00 %
28.11.2018 08:46 -0,8 C 3,9 C 0,0 C 90 % 1027,7 hPa 0,0 l/m 5,8 km/h (2 Bft) O-NO 76 0 min 0,000 mm 0,0 UV-I 68 W/m -2,2 C -0,8 C 9,7 km/h (2 Bft) 97,87 %
28.11.2018 08:48 -0,8 C 3,9 C 0,0 C 90 % 1027,7 hPa 0,0 l/m 7,8 km/h (2 Bft) O 97 0 min 0,000 mm 0,0 UV-I 69 W/m -2,2 C -2,3 C 12,9 km/h (3 Bft) 98,00 %
28.11.2018 08:50 -0,8 C 3,9 C 0,0 C 89 % 1027,8 hPa 0,0 l/m 6,8 km/h (2 Bft) O-NO 66 0 min 0,000 mm 0,0 UV-I 71 W/m -2,4 C -1,2 C 9,7 km/h (2 Bft) 100,00 %
28.11.2018 08:52 -0,7 C 3,9 C 0,0 C 89 % 1027,8 hPa 0,0 l/m 7,3 km/h (2 Bft) O 82 0 min 0,000 mm 0,0 UV-I 76 W/m -2,3 C -1,7 C 9,7 km/h (2 Bft) 98,11 %
28.11.2018 08:54 -0,7 C 3,9 C 0,0 C 89 % 1027,8 hPa 0,0 l/m 7,4 km/h (2 Bft) O 92 0 min 0,000 mm 0,0 UV-I 79 W/m -2,3 C -1,8 C 11,3 km/h (2 Bft) 100,00 %
28.11.2018 08:56 -0,7 C 3,9 C 0,0 C 89 % 1027,8 hPa 0,0 l/m 6,8 km/h (2 Bft) O 101 0 min 0,000 mm 0,0 UV-I 79 W/m -2,3 C -1,1 C 11,3 km/h (2 Bft) 100,00 %
28.11.2018 08:58 -0,7 C 3,9 C 0,0 C 89 % 1027,8 hPa 0,0 l/m 6,3 km/h (2 Bft) O 101 0 min 0,000 mm 0,0 UV-I 80 W/m -2,3 C -0,7 C 9,7 km/h (2 Bft) 97,87 %
28.11.2018 09:00 -0,7 C 3,9 C 0,0 C 89 % 1027,8 hPa 0,0 l/m 5,3 km/h (1 Bft) O 96 0 min 0,025 mm 0,0 UV-I 84 W/m -2,3 C -0,7 C 9,7 km/h (2 Bft) 97,87 %
28.11.2018 09:02 -0,7 C 3,9 C 0,0 C 89 % 1027,8 hPa 0,0 l/m 6,2 km/h (2 Bft) O 94 0 min 0,000 mm 0,0 UV-I 90 W/m -2,3 C -0,7 C 11,3 km/h (2 Bft) 97,87 %
28.11.2018 09:04 -0,7 C 3,9 C 0,0 C 89 % 1027,8 hPa 0,0 l/m 6,9 km/h (2 Bft) O-SO 111 0 min 0,000 mm 0,0 UV-I 95 W/m -2,3 C -1,2 C 11,3 km/h (2 Bft) 93,62 %
28.11.2018 09:06 -0,6 C 3,9 C 0,0 C 89 % 1027,8 hPa 0,0 l/m 4,3 km/h (1 Bft) O-SO 104 0 min 0,000 mm 0,0 UV-I 97 W/m -2,2 C -0,6 C 12,9 km/h (3 Bft) 98,00 %
28.11.2018 09:08 -0,6 C 3,9 C 0,0 C 88 % 1027,8 hPa 0,0 l/m 8,1 km/h (2 Bft) O-SO 102 0 min 0,000 mm 0,0 UV-I 99 W/m -2,3 C -2,4 C 11,3 km/h (2 Bft) 98,00 %
28.11.2018 09:10 -0,6 C 3,9 C 0,0 C 89 % 1027,7 hPa 0,0 l/m 7,7 km/h (2 Bft) O 90 0 min 0,000 mm 0,0 UV-I 102 W/m -2,2 C -2,0 C 11,3 km/h (2 Bft) 92,11 %
28.11.2018 09:12 -0,6 C 3,9 C 0,6 C 88 % 1027,7 hPa 0,0 l/m 9,1 km/h (2 Bft) O 88 0 min 0,000 mm 0,0 UV-I 103 W/m -2,3 C -3,3 C 14,5 km/h (3 Bft) 96,23 %
28.11.2018 09:14 -0,6 C 3,9 C 0,0 C 88 % 1027,7 hPa 0,0 l/m 10,9 km/h (2 Bft) O-SO 105 0 min 0,000 mm 0,0 UV-I 107 W/m -2,3 C -4,9 C 14,5 km/h (3 Bft) 97,56 %
28.11.2018 09:16 -0,6 C 3,9 C 0,0 C 87 % 1027,7 hPa 0,0 l/m 10,7 km/h (2 Bft) O 85 0 min 0,000 mm 0,0 UV-I 114 W/m -2,5 C -4,7 C 16,1 km/h (3 Bft) 98,00 %
28.11.2018 09:18 -0,6 C 3,9 C 0,0 C 87 % 1027,7 hPa 0,0 l/m 9,2 km/h (2 Bft) O 94 0 min 0,000 mm 0,0 UV-I 116 W/m -2,5 C -3,4 C 12,9 km/h (3 Bft) 98,00 %
28.11.2018 09:20 -0,6 C 3,9 C 0,0 C 87 % 1027,7 hPa 0,0 l/m 7,1 km/h (2 Bft) O 89 0 min 0,000 mm 0,0 UV-I 116 W/m -2,5 C -1,3 C 12,9 km/h (3 Bft) 96,00 %
28.11.2018 09:22 -0,6 C 3,9 C 0,0 C 87 % 1027,7 hPa 0,0 l/m 9,1 km/h (2 Bft) O-NO 77 0 min 0,000 mm 0,0 UV-I 118 W/m -2,5 C -3,3 C 12,9 km/h (3 Bft) 100,00 %
28.11.2018 09:24 -0,6 C 3,9 C 0,0 C 87 % 1027,7 hPa 0,0 l/m 8,2 km/h (2 Bft) O-NO 74 2 min 0,000 mm 0,0 UV-I 128 W/m -2,5 C -2,5 C 12,9 km/h (3 Bft) 96,61 %
28.11.2018 09:26 -0,6 C 3,9 C 0,0 C 87 % 1027,7 hPa 0,0 l/m 10,2 km/h (2 Bft) O 90 2 min 0,000 mm 0,0 UV-I 140 W/m -2,5 C -4,3 C 14,5 km/h (3 Bft) 96,00 %
28.11.2018 09:28 -0,6 C 3,9 C 0,0 C 87 % 1027,7 hPa 0,0 l/m 12,3 km/h (3 Bft) O 82 2 min 0,000 mm 0,0 UV-I 162 W/m -2,5 C -5,9 C 19,3 km/h (3 Bft) 96,00 %
28.11.2018 09:30 -0,5 C 3,9 C 0,0 C 86 % 1027,7 hPa 0,0 l/m 11,0 km/h (2 Bft) O-NO 63 2 min 0,000 mm 0,0 UV-I 186 W/m -2,5 C -4,8 C 16,1 km/h (3 Bft) 96,00 %
28.11.2018 09:32 -0,4 C 3,9 C 0,6 C 86 % 1027,7 hPa 0,0 l/m 13,3 km/h (3 Bft) O-NO 58 2 min 0,000 mm 0,0 UV-I 201 W/m -2,4 C -6,4 C 16,1 km/h (3 Bft) 97,14 %
28.11.2018 09:34 -0,4 C 3,9 C 0,6 C 86 % 1027,7 hPa 0,0 l/m 12,5 km/h (3 Bft) O 92 2 min 0,000 mm 0,0 UV-I 187 W/m -2,4 C -5,8 C 16,1 km/h (3 Bft) 98,08 %
28.11.2018 09:36 -0,4 C 3,9 C 0,6 C 86 % 1027,8 hPa 0,0 l/m 13,2 km/h (3 Bft) O-NO 68 2 min 0,000 mm 0,0 UV-I 175 W/m -2,4 C -6,3 C 17,7 km/h (3 Bft) 94,34 %
28.11.2018 09:39 -0,4 C 3,9 C 0,6 C 86 % 1027,8 hPa 0,0 l/m 12,4 km/h (3 Bft) O-NO 71 3 min 0,000 mm 0,0 UV-I 189 W/m -2,4 C -5,8 C 17,7 km/h (3 Bft) 96,77 %
28.11.2018 09:40 -0,3 C 3,9 C 0,6 C 86 % 1027,8 hPa 0,0 l/m 13,3 km/h (3 Bft) O-NO 65 1 min 0,000 mm 0,0 UV-I 208 W/m -2,3 C -6,3 C 19,3 km/h (3 Bft) 100,00 %
28.11.2018 09:42 -0,3 C 3,9 C 0,6 C 86 % 1027,8 hPa 0,0 l/m 12,9 km/h (3 Bft) O-NO 71 2 min 0,000 mm 0,0 UV-I 248 W/m -2,3 C -6,0 C 17,7 km/h (3 Bft) 95,74 %
28.11.2018 09:44 -0,3 C 3,9 C 0,6 C 86 % 1027,8 hPa 0,0 l/m 12,9 km/h (3 Bft) O 88 2 min 0,000 mm 0,0 UV-I 268 W/m -2,3 C -6,0 C 16,1 km/h (3 Bft) 95,74 %
28.11.2018 09:46 -0,2 C 3,9 C 0,6 C 85 % 1027,8 hPa 0,0 l/m 13,4 km/h (3 Bft) O 82 2 min 0,000 mm 0,0 UV-I 264 W/m -2,4 C -6,2 C 19,3 km/h (3 Bft) 93,62 %
28.11.2018 09:48 -0,2 C 3,9 C 0,6 C 85 % 1027,8 hPa 0,0 l/m 14,9 km/h (3 Bft) O 80 2 min 0,000 mm 0,0 UV-I 272 W/m -2,4 C -7,2 C 20,9 km/h (4 Bft) 97,56 %
28.11.2018 09:50 -0,2 C 3,9 C 0,6 C 85 % 1027,8 hPa 0,0 l/m 12,1 km/h (2 Bft) O-NO 61 2 min 0,000 mm 0,0 UV-I 222 W/m -2,4 C -5,3 C 19,3 km/h (3 Bft) 95,24 %
28.11.2018 09:52 -0,2 C 3,9 C 0,6 C 85 % 1027,8 hPa 0,0 l/m 13,0 km/h (3 Bft) O-NO 76 2 min 0,000 mm 0,0 UV-I 270 W/m -2,4 C -5,9 C 17,7 km/h (3 Bft) 96,15 %
28.11.2018 09:54 -0,1 C 3,9 C 0,6 C 84 % 1027,9 hPa 0,0 l/m 12,8 km/h (3 Bft) O-NO 69 2 min 0,000 mm 0,0 UV-I 290 W/m -2,5 C -5,7 C 17,7 km/h (3 Bft) 98,21 %
28.11.2018 09:56 -0,1 C 3,9 C 1,1 C 84 % 1028,0 hPa 0,0 l/m 11,0 km/h (2 Bft) O 91 2 min 0,000 mm 0,0 UV-I 308 W/m -2,5 C -4,4 C 16,1 km/h (3 Bft) 97,73 %
28.11.2018 09:58 -0,1 C 3,9 C 1,1 C 84 % 1028,0 hPa 0,0 l/m 13,1 km/h (3 Bft) O 81 2 min 0,000 mm 0,0 UV-I 326 W/m -2,5 C -5,9 C 17,7 km/h (3 Bft) 94,87 %
28.11.2018 10:00 0,0 C 3,9 C 1,1 C 84 % 1028,0 hPa 0,0 l/m 12,9 km/h (3 Bft) O-NO 68 2 min 0,077 mm 0,0 UV-I 318 W/m -2,4 C -5,6 C 17,7 km/h (3 Bft) 100,00 %
28.11.2018 10:02 0,0 C 3,9 C 1,7 C 83 % 1028,0 hPa 0,0 l/m 9,7 km/h (2 Bft) O-NO 73 2 min 0,000 mm 0,0 UV-I 244 W/m -2,5 C -3,2 C 12,9 km/h (3 Bft) 100,00 %
28.11.2018 10:04 0,0 C 3,9 C 1,7 C 83 % 1028,0 hPa 0,0 l/m 12,0 km/h (2 Bft) O-NO 78 2 min 0,000 mm 0,0 UV-I 222 W/m -2,5 C -5,0 C 16,1 km/h (3 Bft) 100,00 %
28.11.2018 10:06 0,0 C 3,9 C 1,7 C 83 % 1028,0 hPa 0,0 l/m 11,1 km/h (2 Bft) O-NO 74 2 min 0,000 mm 0,0 UV-I 234 W/m -2,5 C -4,3 C 14,5 km/h (3 Bft) 100,00 %
28.11.2018 10:08 0,0 C 3,9 C 1,7 C 84 % 1028,0 hPa 0,0 l/m 10,2 km/h (2 Bft) O-NO 74 2 min 0,000 mm 0,0 UV-I 234 W/m -2,4 C -3,6 C 14,5 km/h (3 Bft) 100,00 %
28.11.2018 10:10 0,0 C 3,9 C 1,7 C 83 % 1028,0 hPa 0,0 l/m 10,5 km/h (2 Bft) O-NO 65 2 min 0,000 mm 0,0 UV-I 225 W/m -2,5 C -3,9 C 14,5 km/h (3 Bft) 100,00 %
28.11.2018 10:12 0,0 C 3,9 C 2,2 C 83 % 1028,1 hPa 0,0 l/m 8,6 km/h (2 Bft) O 92 2 min 0,000 mm 0,0 UV-I 209 W/m -2,5 C -2,2 C 12,9 km/h (3 Bft) 100,00 %
28.11.2018 10:14 0,0 C 3,9 C 2,2 C 83 % 1028,1 hPa 0,0 l/m 9,6 km/h (2 Bft) O 86 2 min 0,000 mm 0,0 UV-I 194 W/m -2,5 C -3,1 C 14,5 km/h (3 Bft) 97,87 %
28.11.2018 10:16 0,0 C 3,9 C 2,2 C 83 % 1028,1 hPa 0,0 l/m 9,1 km/h (2 Bft) O-NO 78 2 min 0,000 mm 0,0 UV-I 186 W/m -2,5 C -2,7 C 12,9 km/h (3 Bft) 98,11 %
28.11.2018 10:18 0,0 C 3,9 C 2,2 C 84 % 1028,2 hPa 0,0 l/m 8,6 km/h (2 Bft) O-NO 71 2 min 0,000 mm 0,0 UV-I 186 W/m -2,4 C -2,2 C 12,9 km/h (3 Bft) 100,00 %
28.11.2018 10:20 0,0 C 3,9 C 2,2 C 83 % 1028,2 hPa 0,0 l/m 9,1 km/h (2 Bft) NO 51 2 min 0,000 mm 0,0 UV-I 186 W/m -2,5 C -2,7 C 12,9 km/h (3 Bft) 100,00 %
28.11.2018 10:22 0,0 C 3,9 C 2,2 C 83 % 1028,2 hPa 0,0 l/m 7,8 km/h (2 Bft) NO 56 2 min 0,000 mm 0,0 UV-I 183 W/m -2,5 C -1,4 C 14,5 km/h (3 Bft) 100,00 %
28.11.2018 10:24 0,0 C 3,9 C 2,2 C 84 % 1028,2 hPa 0,0 l/m 7,8 km/h (2 Bft) O-NO 59 2 min 0,000 mm 0,0 UV-I 177 W/m -2,4 C -1,4 C 11,3 km/h (2 Bft) 100,00 %
28.11.2018 10:26 0,1 C 3,9 C 2,2 C 84 % 1028,2 hPa 0,0 l/m 7,1 km/h (2 Bft) O-NO 67 0 min 0,000 mm 0,0 UV-I 170 W/m -2,3 C -0,6 C 12,9 km/h (3 Bft) 98,21 %
28.11.2018 10:28 0,1 C 3,9 C 2,2 C 83 % 1028,2 hPa 0,0 l/m 9,7 km/h (2 Bft) NO 51 0 min 0,000 mm 0,0 UV-I 168 W/m -2,4 C -3,1 C 14,5 km/h (3 Bft) 100,00 %
28.11.2018 10:30 0,1 C 3,9 C 2,2 C 83 % 1028,2 hPa 0,0 l/m 6,8 km/h (2 Bft) O-NO 77 0 min 0,000 mm 0,0 UV-I 168 W/m -2,4 C -0,3 C 12,9 km/h (3 Bft) 98,11 %
28.11.2018 10:32 0,1 C 3,9 C 1,7 C 84 % 1028,1 hPa 0,0 l/m 9,9 km/h (2 Bft) O-NO 74 0 min 0,000 mm 0,0 UV-I 172 W/m -2,3 C -3,3 C 14,5 km/h (3 Bft) 100,00 %
28.11.2018 10:34 0,1 C 3,9 C 2,2 C 84 % 1028,1 hPa 0,0 l/m 7,1 km/h (2 Bft) O 80 0 min 0,000 mm 0,0 UV-I 175 W/m -2,3 C -0,6 C 11,3 km/h (2 Bft) 100,00 %
28.11.2018 10:36 0,1 C 3,9 C 2,2 C 84 % 1028,1 hPa 0,0 l/m 8,6 km/h (2 Bft) O-NO 71 0 min 0,000 mm 0,0 UV-I 176 W/m -2,3 C -2,1 C 12,9 km/h (3 Bft) 100,00 %
28.11.2018 10:38 0,1 C 3,9 C 2,2 C 84 % 1028,1 hPa 0,0 l/m 9,3 km/h (2 Bft) O-NO 61 0 min 0,000 mm 0,0 UV-I 177 W/m -2,3 C -2,7 C 14,5 km/h (3 Bft) 98,11 %
28.11.2018 10:40 0,1 C 3,9 C 2,2 C 83 % 1028,1 hPa 0,0 l/m 9,4 km/h (2 Bft) O-NO 78 0 min 0,000 mm 0,0 UV-I 179 W/m -2,4 C -2,8 C 12,9 km/h (3 Bft) 97,87 %
28.11.2018 10:42 0,1 C 3,9 C 2,2 C 84 % 1028,1 hPa 0,0 l/m 8,1 km/h (2 Bft) O-NO 68 2 min 0,000 mm 0,0 UV-I 183 W/m -2,3 C -1,6 C 12,9 km/h (3 Bft) 100,00 %
28.11.2018 10:44 0,1 C 3,9 C 2,2 C 83 % 1028,1 hPa 0,0 l/m 8,2 km/h (2 Bft) O-NO 74 2 min 0,000 mm 0,0 UV-I 191 W/m -2,4 C -1,7 C 12,9 km/h (3 Bft) 100,00 %
28.11.2018 10:46 0,1 C 3,9 C 2,2 C 84 % 1028,0 hPa 0,0 l/m 7,2 km/h (2 Bft) O-NO 72 2 min 0,000 mm 0,0 UV-I 204 W/m -2,3 C -0,7 C 11,3 km/h (2 Bft) 98,00 %
28.11.2018 10:48 0,1 C 3,9 C 2,8 C 84 % 1028,1 hPa 0,0 l/m 9,7 km/h (2 Bft) NO 39 2 min 0,000 mm 0,0 UV-I 225 W/m -2,3 C -3,1 C 12,9 km/h (3 Bft) 98,00 %
28.11.2018 10:50 0,2 C 3,9 C 2,8 C 84 % 1028,0 hPa 0,0 l/m 7,2 km/h (2 Bft) O-NO 68 2 min 0,000 mm 0,0 UV-I 230 W/m -2,2 C -0,6 C 9,7 km/h (2 Bft) 94,74 %
28.11.2018 10:52 0,2 C 3,9 C 2,8 C 84 % 1028,0 hPa 0,0 l/m 9,5 km/h (2 Bft) O 82 2 min 0,000 mm 0,3 UV-I 247 W/m -2,2 C -2,8 C 12,9 km/h (3 Bft) 93,22 %
28.11.2018 10:54 0,2 C 3,9 C 2,8 C 84 % 1028,0 hPa 0,0 l/m 10,7 km/h (2 Bft) O-NO 70 2 min 0,000 mm 0,5 UV-I 239 W/m -2,2 C -3,8 C 14,5 km/h (3 Bft) 92,11 %
28.11.2018 10:56 0,2 C 3,9 C 2,8 C 84 % 1028,1 hPa 0,0 l/m 11,3 km/h (2 Bft) O-NO 69 2 min 0,000 mm 0,5 UV-I 233 W/m -2,2 C -4,3 C 16,1 km/h (3 Bft) 92,45 %
28.11.2018 10:58 0,2 C 3,9 C 2,8 C 84 % 1028,0 hPa 0,0 l/m 11,8 km/h (2 Bft) O 86 2 min 0,000 mm 0,5 UV-I 235 W/m -2,2 C -4,6 C 16,1 km/h (3 Bft) 92,11 %
28.11.2018 11:00 0,2 C 3,9 C 2,8 C 84 % 1028,0 hPa 0,0 l/m 13,5 km/h (3 Bft) O 88 2 min 0,076 mm 0,5 UV-I 245 W/m -2,2 C -5,8 C 17,7 km/h (3 Bft) 94,64 %
28.11.2018 11:02 0,2 C 3,9 C 2,8 C 84 % 1028,0 hPa 0,0 l/m 12,4 km/h (3 Bft) O-NO 67 2 min 0,000 mm 0,5 UV-I 262 W/m -2,2 C -5,1 C 16,1 km/h (3 Bft) 92,68 %
28.11.2018 11:04 0,2 C 3,9 C 2,8 C 84 % 1028,0 hPa 0,0 l/m 11,2 km/h (2 Bft) O-NO 68 2 min 0,000 mm 0,5 UV-I 275 W/m -2,2 C -4,2 C 16,1 km/h (3 Bft) 90,00 %
28.11.2018 11:06 0,2 C 3,9 C 2,8 C 84 % 1028,0 hPa 0,0 l/m 12,4 km/h (3 Bft) O-NO 71 2 min 0,000 mm 0,5 UV-I 277 W/m -2,2 C -5,1 C 17,7 km/h (3 Bft) 90,24 %
28.11.2018 11:08 0,3 C 3,9 C 2,8 C 84 % 1027,9 hPa 0,0 l/m 13,4 km/h (3 Bft) O-SO 107 2 min 0,000 mm 0,5 UV-I 279 W/m -2,1 C -5,6 C 16,1 km/h (3 Bft) 94,00 %
28.11.2018 11:10 0,3 C 3,9 C 2,8 C 84 % 1028,0 hPa 0,0 l/m 12,8 km/h (3 Bft) O-NO 74 2 min 0,000 mm 0,5 UV-I 269 W/m -2,1 C -5,2 C 16,1 km/h (3 Bft) 96,00 %
28.11.2018 11:12 0,3 C 3,9 C 2,8 C 84 % 1028,0 hPa 0,0 l/m 11,5 km/h (2 Bft) O 85 2 min 0,000 mm 0,5 UV-I 297 W/m -2,1 C -4,3 C 16,1 km/h (3 Bft) 92,00 %
28.11.2018 11:14 0,2 C 3,9 C 2,2 C 84 % 1028,0 hPa 0,0 l/m 12,0 km/h (2 Bft) O-SO 105 2 min 0,000 mm 0,5 UV-I 258 W/m -2,2 C -4,8 C 16,1 km/h (3 Bft) 97,56 %
28.11.2018 11:16 0,2 C 3,9 C 2,2 C 84 % 1028,0 hPa 0,0 l/m 12,6 km/h (3 Bft) O 96 2 min 0,000 mm 0,6 UV-I 222 W/m -2,2 C -5,2 C 16,1 km/h (3 Bft) 94,00 %
28.11.2018 11:18 0,2 C 3,9 C 1,7 C 84 % 1028,0 hPa 0,0 l/m 13,5 km/h (3 Bft) O 99 2 min 0,000 mm 0,6 UV-I 302 W/m -2,2 C -5,8 C 16,1 km/h (3 Bft) 92,86 %
28.11.2018 11:20 0,2 C 3,9 C 1,7 C 84 % 1028,1 hPa 0,0 l/m 12,1 km/h (2 Bft) O-NO 73 2 min 0,000 mm 0,5 UV-I 239 W/m -2,2 C -4,8 C 16,1 km/h (3 Bft) 94,00 %
28.11.2018 11:22 0,1 C 3,9 C 1,7 C 84 % 1028,1 hPa 0,0 l/m 12,1 km/h (2 Bft) O 88 2 min 0,000 mm 0,5 UV-I 226 W/m -2,3 C -5,0 C 14,5 km/h (3 Bft) 93,18 %
28.11.2018 11:24 0,1 C 3,9 C 1,7 C 83 % 1028,0 hPa 0,0 l/m 10,7 km/h (2 Bft) O-NO 71 2 min 0,000 mm 0,5 UV-I 206 W/m -2,4 C -3,9 C 14,5 km/h (3 Bft) 95,45 %
28.11.2018 11:26 0,1 C 3,9 C 1,7 C 84 % 1028,0 hPa 0,0 l/m 9,9 km/h (2 Bft) O-SO 105 2 min 0,000 mm 0,6 UV-I 242 W/m -2,3 C -3,3 C 12,9 km/h (3 Bft) 98,31 %
28.11.2018 11:28 0,2 C 3,9 C 1,7 C 84 % 1028,1 hPa 0,0 l/m 10,2 km/h (2 Bft) O-NO 66 2 min 0,000 mm 0,6 UV-I 240 W/m -2,2 C -3,4 C 12,9 km/h (3 Bft) 97,56 %
28.11.2018 11:30 0,2 C 3,9 C 1,7 C 84 % 1028,0 hPa 0,0 l/m 9,4 km/h (2 Bft) O 96 2 min 0,000 mm 0,5 UV-I 201 W/m -2,2 C -2,7 C 12,9 km/h (3 Bft) 97,37 %
28.11.2018 11:32 0,2 C 3,9 C 1,7 C 84 % 1028,0 hPa 0,0 l/m 9,5 km/h (2 Bft) O-NO 68 2 min 0,000 mm 0,6 UV-I 283 W/m -2,2 C -2,8 C 14,5 km/h (3 Bft) 98,21 %
28.11.2018 11:34 0,2 C 3,9 C 1,7 C 83 % 1028,0 hPa 0,0 l/m 8,6 km/h (2 Bft) O 85 2 min 0,000 mm 0,6 UV-I 248 W/m -2,3 C -2,0 C 12,9 km/h (3 Bft) 96,00 %
28.11.2018 11:36 0,2 C 3,9 C 1,7 C 83 % 1028,0 hPa 0,0 l/m 9,0 km/h (2 Bft) O-NO 72 2 min 0,000 mm 0,6 UV-I 301 W/m -2,3 C -2,4 C 12,9 km/h (3 Bft) 100,00 %
28.11.2018 11:38 0,3 C 3,9 C 2,2 C 84 % 1028,0 hPa 0,0 l/m 7,5 km/h (2 Bft) O 86 2 min 0,000 mm 0,6 UV-I 312 W/m -2,1 C -0,8 C 12,9 km/h (3 Bft) 94,00 %
28.11.2018 11:40 0,3 C 3,9 C 2,2 C 84 % 1028,0 hPa 0,0 l/m 6,3 km/h (2 Bft) O-NO 69 2 min 0,000 mm 0,5 UV-I 249 W/m -2,1 C 0,3 C 9,7 km/h (2 Bft) 95,74 %
28.11.2018 11:42 0,4 C 3,9 C 2,2 C 84 % 1028,0 hPa 0,0 l/m 7,6 km/h (2 Bft) O-NO 65 2 min 0,000 mm 0,6 UV-I 288 W/m -2,0 C -0,8 C 12,9 km/h (3 Bft) 97,87 %
28.11.2018 11:44 0,4 C 3,9 C 2,8 C 84 % 1028,1 hPa 0,0 l/m 7,2 km/h (2 Bft) O-NO 76 2 min 0,000 mm 0,6 UV-I 290 W/m -2,0 C -0,4 C 12,9 km/h (3 Bft) 96,23 %
28.11.2018 11:46 0,5 C 3,9 C 2,8 C 84 % 1028,1 hPa 0,0 l/m 8,9 km/h (2 Bft) O-NO 66 2 min 0,000 mm 0,6 UV-I 284 W/m -1,9 C -2,0 C 14,5 km/h (3 Bft) 97,37 %
28.11.2018 11:48 0,5 C 3,9 C 2,2 C 83 % 1028,0 hPa 0,0 l/m 10,0 km/h (2 Bft) O 96 2 min 0,000 mm 0,6 UV-I 236 W/m -2,0 C -2,9 C 12,9 km/h (3 Bft) 98,21 %
28.11.2018 11:50 0,5 C 3,9 C 2,2 C 83 % 1028,0 hPa 0,0 l/m 6,5 km/h (2 Bft) O-NO 71 2 min 0,000 mm 0,6 UV-I 273 W/m -2,0 C 0,4 C 11,3 km/h (2 Bft) 97,87 %
28.11.2018 11:52 0,5 C 3,9 C 2,2 C 83 % 1028,0 hPa 0,0 l/m 6,2 km/h (2 Bft) O-NO 67 2 min 0,000 mm 0,6 UV-I 212 W/m -2,0 C 0,5 C 9,7 km/h (2 Bft) 97,22 %
28.11.2018 11:54 0,5 C 3,9 C 2,2 C 83 % 1028,0 hPa 0,0 l/m 7,1 km/h (2 Bft) O-NO 61 0 min 0,000 mm 0,5 UV-I 194 W/m -2,0 C -0,2 C 9,7 km/h (2 Bft) 98,00 %
28.11.2018 11:56 0,4 C 3,9 C 2,2 C 84 % 1028,0 hPa 0,0 l/m 6,5 km/h (2 Bft) O-NO 71 0 min 0,000 mm 0,5 UV-I 188 W/m -2,0 C 0,3 C 9,7 km/h (2 Bft) 95,74 %
28.11.2018 11:58 0,4 C 3,9 C 2,2 C 84 % 1028,0 hPa 0,0 l/m 7,1 km/h (2 Bft) O-NO 77 0 min 0,000 mm 0,5 UV-I 179 W/m -2,0 C -0,3 C 12,9 km/h (3 Bft) 96,23 %
28.11.2018 12:00 0,4 C 3,9 C 1,7 C 84 % 1028,0 hPa 0,0 l/m 9,5 km/h (2 Bft) O 81 2 min 0,101 mm 0,5 UV-I 216 W/m -2,0 C -2,6 C 14,5 km/h (3 Bft) 95,45 %
28.11.2018 12:02 0,4 C 3,9 C 1,7 C 83 % 1028,0 hPa 0,0 l/m 10,2 km/h (2 Bft) O-NO 71 2 min 0,000 mm 0,5 UV-I 208 W/m -2,1 C -3,2 C 12,9 km/h (3 Bft) 97,37 %
28.11.2018 12:04 0,3 C 3,9 C 1,1 C 83 % 1028,0 hPa 0,0 l/m 9,9 km/h (2 Bft) O-SO 104 2 min 0,000 mm 0,5 UV-I 204 W/m -2,2 C -3,0 C 12,9 km/h (3 Bft) 92,00 %
28.11.2018 12:06 0,3 C 3,9 C 1,1 C 84 % 1028,0 hPa 0,0 l/m 10,4 km/h (2 Bft) O 85 2 min 0,000 mm 0,6 UV-I 277 W/m -2,1 C -3,4 C 14,5 km/h (3 Bft) 96,00 %
28.11.2018 12:08 0,4 C 3,9 C 1,1 C 84 % 1028,0 hPa 0,0 l/m 7,5 km/h (2 Bft) O 93 2 min 0,000 mm 0,6 UV-I 253 W/m -2,0 C -0,7 C 12,9 km/h (3 Bft) 94,34 %
28.11.2018 12:10 0,5 C 3,9 C 1,7 C 84 % 1028,0 hPa 0,0 l/m 7,0 km/h (2 Bft) O 94 2 min 0,000 mm 0,6 UV-I 291 W/m -1,9 C -0,1 C 11,3 km/h (2 Bft) 95,74 %
28.11.2018 12:12 0,6 C 3,9 C 1,7 C 84 % 1028,0 hPa 0,0 l/m 5,6 km/h (1 Bft) O-SO 107 2 min 0,000 mm 0,6 UV-I 307 W/m -1,8 C 0,6 C 9,7 km/h (2 Bft) 95,12 %
28.11.2018 12:14 0,7 C 3,9 C 1,7 C 83 % 1028,0 hPa 0,0 l/m 6,9 km/h (2 Bft) O 80 2 min 0,000 mm 0,6 UV-I 306 W/m -1,8 C 0,2 C 9,7 km/h (2 Bft) 96,23 %
28.11.2018 12:16 0,8 C 3,9 C 1,7 C 83 % 1028,0 hPa 0,0 l/m 7,2 km/h (2 Bft) O-NO 67 2 min 0,000 mm 0,6 UV-I 302 W/m -1,8 C -0,0 C 11,3 km/h (2 Bft) 95,12 %
28.11.2018 12:18 0,8 C 3,9 C 2,2 C 83 % 1028,0 hPa 0,0 l/m 6,4 km/h (2 Bft) O-NO 63 2 min 0,000 mm 0,6 UV-I 304 W/m -1,8 C 0,8 C 11,3 km/h (2 Bft) 91,49 %
28.11.2018 12:20 0,8 C 3,9 C 2,2 C 83 % 1027,9 hPa 0,0 l/m 6,8 km/h (2 Bft) O-NO 74 2 min 0,000 mm 0,6 UV-I 306 W/m -1,8 C 0,4 C 9,7 km/h (2 Bft) 97,87 %
28.11.2018 12:22 0,9 C 3,9 C 2,2 C 83 % 1027,9 hPa 0,0 l/m 5,9 km/h (2 Bft) O-NO 57 2 min 0,000 mm 0,6 UV-I 304 W/m -1,7 C 0,9 C 9,7 km/h (2 Bft) 94,00 %
28.11.2018 12:24 0,9 C 3,9 C 2,2 C 83 % 1027,9 hPa 0,0 l/m 7,5 km/h (2 Bft) O 80 2 min 0,000 mm 0,6 UV-I 304 W/m -1,7 C -0,2 C 9,7 km/h (2 Bft) 97,37 %
28.11.2018 12:26 0,9 C 3,9 C 2,2 C 83 % 1027,9 hPa 0,0 l/m 7,4 km/h (2 Bft) O 90 2 min 0,000 mm 0,6 UV-I 305 W/m -1,7 C -0,1 C 11,3 km/h (2 Bft) 96,00 %
28.11.2018 12:28 1,0 C 3,9 C 2,2 C 83 % 1027,8 hPa 0,0 l/m 6,9 km/h (2 Bft) O 95 2 min 0,000 mm 0,6 UV-I 303 W/m -1,6 C 0,5 C 11,3 km/h (2 Bft) 97,62 %
28.11.2018 12:30 1,1 C 3,9 C 2,2 C 83 % 1027,8 hPa 0,0 l/m 5,1 km/h (1 Bft) O 92 2 min 0,000 mm 0,6 UV-I 302 W/m -1,5 C 1,1 C 11,3 km/h (2 Bft) 98,00 %
28.11.2018 12:32 1,1 C 3,9 C 2,2 C 83 % 1027,8 hPa 0,0 l/m 6,9 km/h (2 Bft) O-SO 105 2 min 0,000 mm 0,5 UV-I 300 W/m -1,5 C 0,6 C 11,3 km/h (2 Bft) 95,74 %
28.11.2018 12:34 1,2 C 3,9 C 2,2 C 83 % 1027,9 hPa 0,0 l/m 8,4 km/h (2 Bft) O-SO 107 2 min 0,000 mm 0,5 UV-I 300 W/m -1,4 C -0,8 C 11,3 km/h (2 Bft) 96,00 %
28.11.2018 12:36 1,2 C 3,9 C 2,2 C 82 % 1027,9 hPa 0,0 l/m 10,0 km/h (2 Bft) O 89 2 min 0,000 mm 0,5 UV-I 295 W/m -1,5 C -2,1 C 12,9 km/h (3 Bft) 94,34 %
28.11.2018 12:38 1,2 C 3,9 C 2,2 C 82 % 1027,9 hPa 0,0 l/m 6,2 km/h (2 Bft) O-NO 75 2 min 0,000 mm 0,5 UV-I 295 W/m -1,5 C 1,2 C 9,7 km/h (2 Bft) 92,11 %
28.11.2018 12:40 1,2 C 3,9 C 2,2 C 82 % 1027,9 hPa 0,0 l/m 8,2 km/h (2 Bft) O 90 2 min 0,000 mm 0,5 UV-I 300 W/m -1,5 C -0,6 C 11,3 km/h (2 Bft) 95,74 %
28.11.2018 12:42 1,2 C 3,9 C 2,2 C 82 % 1027,8 hPa 0,0 l/m 6,6 km/h (2 Bft) O-NO 76 2 min 0,000 mm 0,5 UV-I 296 W/m -1,5 C 1,0 C 11,3 km/h (2 Bft) 95,74 %
28.11.2018 12:44 1,2 C 3,9 C 2,2 C 82 % 1027,8 hPa 0,0 l/m 10,5 km/h (2 Bft) O 84 2 min 0,000 mm 0,5 UV-I 294 W/m -1,5 C -2,5 C 12,9 km/h (3 Bft) 92,00 %
28.11.2018 12:46 1,2 C 3,9 C 2,2 C 82 % 1027,8 hPa 0,0 l/m 9,7 km/h (2 Bft) O 92 2 min 0,000 mm 0,5 UV-I 290 W/m -1,5 C -1,9 C 14,5 km/h (3 Bft) 94,00 %
28.11.2018 12:48 1,2 C 3,9 C 2,2 C 81 % 1027,8 hPa 0,0 l/m 8,3 km/h (2 Bft) O 101 2 min 0,000 mm 0,5 UV-I 288 W/m -1,7 C -0,7 C 12,9 km/h (3 Bft) 95,74 %
28.11.2018 12:50 1,3 C 3,9 C 2,2 C 81 % 1027,9 hPa 0,0 l/m 9,2 km/h (2 Bft) O 94 2 min 0,000 mm 0,5 UV-I 284 W/m -1,6 C -1,4 C 14,5 km/h (3 Bft) 91,30 %
28.11.2018 12:52 1,3 C 3,9 C 2,2 C 81 % 1027,9 hPa 0,0 l/m 7,8 km/h (2 Bft) O 99 2 min 0,000 mm 0,5 UV-I 284 W/m -1,6 C -0,1 C 14,5 km/h (3 Bft) 91,94 %
28.11.2018 12:54 1,3 C 3,9 C 2,2 C 81 % 1027,9 hPa 0,0 l/m 7,7 km/h (2 Bft) O 97 2 min 0,000 mm 0,5 UV-I 283 W/m -1,6 C 0,0 C 11,3 km/h (2 Bft) 95,74 %
28.11.2018 12:56 1,3 C 3,9 C 2,2 C 81 % 1027,9 hPa 0,0 l/m 7,3 km/h (2 Bft) O 99 2 min 0,000 mm 0,5 UV-I 282 W/m -1,6 C 0,4 C 12,9 km/h (3 Bft) 96,23 %
28.11.2018 12:58 1,4 C 3,9 C 2,8 C 81 % 1027,9 hPa 0,0 l/m 7,7 km/h (2 Bft) O-SO 119 2 min 0,000 mm 0,5 UV-I 273 W/m -1,5 C 0,1 C 11,3 km/h (2 Bft) 97,56 %
28.11.2018 13:00 1,3 C 3,9 C 2,2 C 80 % 1027,9 hPa 0,0 l/m 7,5 km/h (2 Bft) O 90 2 min 0,102 mm 0,5 UV-I 278 W/m -1,8 C 0,2 C 12,9 km/h (3 Bft) 100,00 %
28.11.2018 13:02 1,3 C 3,9 C 2,2 C 80 % 1027,9 hPa 0,0 l/m 11,5 km/h (2 Bft) O 100 2 min 0,000 mm 0,5 UV-I 276 W/m -1,8 C -3,2 C 14,5 km/h (3 Bft) 98,00 %
28.11.2018 13:04 1,4 C 3,9 C 2,2 C 80 % 1027,9 hPa 0,0 l/m 11,0 km/h (2 Bft) O-SO 111 2 min 0,000 mm 0,5 UV-I 275 W/m -1,7 C -2,7 C 14,5 km/h (3 Bft) 100,00 %
28.11.2018 13:06 1,3 C 3,9 C 2,2 C 80 % 1027,9 hPa 0,0 l/m 12,4 km/h (3 Bft) O 96 2 min 0,000 mm 0,5 UV-I 274 W/m -1,8 C -3,8 C 14,5 km/h (3 Bft) 97,56 %
28.11.2018 13:08 1,3 C 3,9 C 2,2 C 79 % 1027,9 hPa 0,0 l/m 9,5 km/h (2 Bft) O 86 2 min 0,000 mm 0,5 UV-I 268 W/m -1,9 C -1,6 C 14,5 km/h (3 Bft) 96,67 %
28.11.2018 13:10 1,3 C 3,9 C 2,2 C 79 % 1027,9 hPa 0,0 l/m 11,1 km/h (2 Bft) O 88 2 min 0,000 mm 0,5 UV-I 271 W/m -1,9 C -2,9 C 14,5 km/h (3 Bft) 98,51 %
28.11.2018 13:12 1,4 C 3,9 C 2,2 C 79 % 1027,9 hPa 0,0 l/m 10,2 km/h (2 Bft) O 96 2 min 0,000 mm 0,5 UV-I 267 W/m -1,8 C -2,1 C 14,5 km/h (3 Bft) 95,24 %
28.11.2018 13:14 1,4 C 3,9 C 2,2 C 79 % 1027,9 hPa 0,0 l/m 10,9 km/h (2 Bft) O-SO 111 2 min 0,000 mm 0,3 UV-I 261 W/m -1,8 C -2,6 C 12,9 km/h (3 Bft) 98,11 %
28.11.2018 13:16 1,5 C 3,9 C 2,2 C 80 % 1027,9 hPa 0,0 l/m 8,2 km/h (2 Bft) O-SO 107 2 min 0,000 mm 0,0 UV-I 264 W/m -1,6 C -0,3 C 12,9 km/h (3 Bft) 93,62 %
28.11.2018 13:18 1,6 C 3,9 C 2,2 C 79 % 1027,9 hPa 0,0 l/m 8,6 km/h (2 Bft) O-SO 109 2 min 0,000 mm 0,0 UV-I 258 W/m -1,6 C -0,5 C 12,9 km/h (3 Bft) 97,87 %
28.11.2018 13:20 1,5 C 3,9 C 2,2 C 78 % 1027,9 hPa 0,0 l/m 8,2 km/h (2 Bft) O-SO 105 2 min 0,000 mm 0,0 UV-I 259 W/m -1,9 C -0,3 C 12,9 km/h (3 Bft) 95,12 %
28.11.2018 13:22 1,5 C 3,9 C 2,2 C 78 % 1027,9 hPa 0,0 l/m 8,0 km/h (2 Bft) SO 142 2 min 0,000 mm 0,0 UV-I 249 W/m -1,9 C -0,1 C 14,5 km/h (3 Bft) 96,00 %
28.11.2018 13:24 1,5 C 3,9 C 2,2 C 78 % 1027,9 hPa 0,0 l/m 9,7 km/h (2 Bft) O-SO 103 2 min 0,000 mm 0,0 UV-I 248 W/m -1,9 C -1,6 C 14,5 km/h (3 Bft) 100,00 %
28.11.2018 13:26 1,5 C 3,9 C 2,2 C 78 % 1027,8 hPa 0,0 l/m 11,6 km/h (2 Bft) O 94 2 min 0,000 mm 0,0 UV-I 245 W/m -1,9 C -3,0 C 16,1 km/h (3 Bft) 96,15 %
28.11.2018 13:28 1,5 C 3,9 C 2,2 C 78 % 1027,9 hPa 0,0 l/m 9,4 km/h (2 Bft) O 96 2 min 0,000 mm 0,0 UV-I 250 W/m -1,9 C -1,3 C 12,9 km/h (3 Bft) 97,56 %
28.11.2018 13:30 1,6 C 3,9 C 2,2 C 79 % 1027,9 hPa 0,0 l/m 5,8 km/h (2 Bft) O-SO 117 2 min 0,000 mm 0,0 UV-I 247 W/m -1,6 C 1,6 C 11,3 km/h (2 Bft) 98,21 %
28.11.2018 13:32 1,6 C 3,9 C 2,2 C 78 % 1027,9 hPa 0,0 l/m 8,7 km/h (2 Bft) O 87 2 min 0,000 mm 0,0 UV-I 242 W/m -1,8 C -0,6 C 12,9 km/h (3 Bft) 98,00 %
28.11.2018 13:34 1,6 C 3,9 C 2,2 C 78 % 1027,8 hPa 0,0 l/m 7,2 km/h (2 Bft) O-NO 78 2 min 0,000 mm 0,0 UV-I 244 W/m -1,8 C 0,8 C 11,3 km/h (2 Bft) 94,74 %
28.11.2018 13:36 1,6 C 3,9 C 2,2 C 78 % 1027,9 hPa 0,0 l/m 8,3 km/h (2 Bft) O-SO 115 2 min 0,000 mm 0,0 UV-I 240 W/m -1,8 C -0,2 C 14,5 km/h (3 Bft) 100,00 %
28.11.2018 13:38 1,6 C 3,9 C 2,2 C 76 % 1027,8 hPa 0,0 l/m 9,5 km/h (2 Bft) O-NO 69 2 min 0,000 mm 0,0 UV-I 241 W/m -2,2 C -1,3 C 12,9 km/h (3 Bft) 100,00 %
28.11.2018 13:40 1,6 C 3,9 C 1,7 C 75 % 1027,8 hPa 0,0 l/m 12,0 km/h (2 Bft) O 89 2 min 0,000 mm 0,0 UV-I 242 W/m -2,3 C -3,2 C 16,1 km/h (3 Bft) 96,23 %
28.11.2018 13:42 1,5 C 3,9 C 1,7 C 76 % 1027,8 hPa 0,0 l/m 11,1 km/h (2 Bft) O-SO 103 2 min 0,000 mm 0,0 UV-I 241 W/m -2,3 C -2,6 C 14,5 km/h (3 Bft) 97,73 %
28.11.2018 13:44 1,5 C 3,9 C 1,7 C 76 % 1027,8 hPa 0,0 l/m 11,9 km/h (2 Bft) O-SO 106 2 min 0,000 mm 0,0 UV-I 237 W/m -2,3 C -3,2 C 16,1 km/h (3 Bft) 100,00 %
28.11.2018 13:46 1,6 C 3,9 C 1,7 C 76 % 1027,8 hPa 0,0 l/m 8,1 km/h (2 Bft) O 96 2 min 0,000 mm 0,0 UV-I 233 W/m -2,2 C -0,1 C 11,3 km/h (2 Bft) 100,00 %
28.11.2018 13:48 1,6 C 3,9 C 1,7 C 75 % 1027,8 hPa 0,0 l/m 8,0 km/h (2 Bft) O 97 2 min 0,000 mm 0,0 UV-I 226 W/m -2,3 C 0,0 C 12,9 km/h (3 Bft) 100,00 %
28.11.2018 13:50 1,7 C 3,9 C 1,7 C 76 % 1027,8 hPa 0,0 l/m 8,3 km/h (2 Bft) O-NO 71 2 min 0,000 mm 0,0 UV-I 225 W/m -2,1 C -0,1 C 14,5 km/h (3 Bft) 100,00 %
28.11.2018 13:52 1,6 C 3,9 C 1,7 C 76 % 1027,8 hPa 0,0 l/m 9,0 km/h (2 Bft) O 98 2 min 0,000 mm 0,0 UV-I 221 W/m -2,2 C -0,9 C 17,7 km/h (3 Bft) 98,11 %
28.11.2018 13:54 1,6 C 3,9 C 1,7 C 75 % 1027,8 hPa 0,0 l/m 10,2 km/h (2 Bft) O 95 2 min 0,000 mm 0,0 UV-I 218 W/m -2,3 C -1,8 C 12,9 km/h (3 Bft) 100,00 %
28.11.2018 13:56 1,6 C 3,9 C 1,7 C 73 % 1027,7 hPa 0,0 l/m 11,6 km/h (2 Bft) O 93 2 min 0,000 mm 0,0 UV-I 215 W/m -2,7 C -2,9 C 16,1 km/h (3 Bft) 94,74 %
28.11.2018 13:58 1,6 C 3,9 C 1,1 C 74 % 1027,7 hPa 0,0 l/m 9,6 km/h (2 Bft) O-SO 118 2 min 0,000 mm 0,0 UV-I 206 W/m -2,5 C -1,4 C 14,5 km/h (3 Bft) 100,00 %
28.11.2018 14:00 1,6 C 3,9 C 1,1 C 73 % 1027,7 hPa 0,0 l/m 10,3 km/h (2 Bft) O-SO 109 2 min 0,000 mm 0,0 UV-I 207 W/m -2,7 C -1,9 C 14,5 km/h (3 Bft) 96,23 %
28.11.2018 14:02 1,6 C 3,9 C 1,1 C 74 % 1027,7 hPa 0,0 l/m 9,1 km/h (2 Bft) O 88 2 min 0,102 mm 0,0 UV-I 206 W/m -2,5 C -0,9 C 14,5 km/h (3 Bft) 97,56 %
28.11.2018 14:04 1,6 C 3,9 C 1,1 C 73 % 1027,7 hPa 0,0 l/m 10,7 km/h (2 Bft) O 88 2 min 0,000 mm 0,0 UV-I 204 W/m -2,7 C -2,2 C 14,5 km/h (3 Bft) 97,56 %
28.11.2018 14:06 1,6 C 3,9 C 1,7 C 73 % 1027,7 hPa 0,0 l/m 7,4 km/h (2 Bft) O 100 2 min 0,000 mm 0,0 UV-I 200 W/m -2,7 C 0,6 C 12,9 km/h (3 Bft) 96,43 %
28.11.2018 14:08 1,6 C 3,9 C 1,7 C 73 % 1027,6 hPa 0,0 l/m 9,6 km/h (2 Bft) O-SO 107 2 min 0,000 mm 0,0 UV-I 196 W/m -2,7 C -1,4 C 12,9 km/h (3 Bft) 95,74 %
28.11.2018 14:10 1,6 C 3,9 C 1,7 C 73 % 1027,6 hPa 0,0 l/m 10,8 km/h (2 Bft) O 100 2 min 0,000 mm 0,0 UV-I 193 W/m -2,7 C -2,3 C 12,9 km/h (3 Bft) 98,00 %
28.11.2018 14:12 1,6 C 3,9 C 1,7 C 74 % 1027,6 hPa 0,0 l/m 10,4 km/h (2 Bft) O-SO 103 2 min 0,000 mm 0,0 UV-I 189 W/m -2,5 C -2,0 C 12,9 km/h (3 Bft) 95,74 %
28.11.2018 14:14 1,6 C 3,9 C 1,7 C 73 % 1027,6 hPa 0,0 l/m 7,1 km/h (2 Bft) SO 130 2 min 0,000 mm 0,0 UV-I 186 W/m -2,7 C 0,9 C 11,3 km/h (2 Bft) 96,00 %
28.11.2018 14:16 1,6 C 3,9 C 1,7 C 74 % 1027,6 hPa 0,0 l/m 9,4 km/h (2 Bft) O-SO 108 2 min 0,000 mm 0,0 UV-I 185 W/m -2,5 C -1,2 C 14,5 km/h (3 Bft) 96,00 %
28.11.2018 14:18 1,6 C 3,9 C 1,7 C 74 % 1027,6 hPa 0,0 l/m 10,4 km/h (2 Bft) O-SO 112 2 min 0,000 mm 0,0 UV-I 181 W/m -2,5 C -2,0 C 16,1 km/h (3 Bft) 95,12 %
28.11.2018 14:20 1,6 C 3,9 C 1,1 C 74 % 1027,6 hPa 0,0 l/m 11,5 km/h (2 Bft) O 94 2 min 0,000 mm 0,0 UV-I 179 W/m -2,5 C -2,8 C 14,5 km/h (3 Bft) 95,45 %
28.11.2018 14:22 1,6 C 3,9 C 1,1 C 74 % 1027,6 hPa 0,0 l/m 6,7 km/h (2 Bft) O 81 2 min 0,000 mm 0,0 UV-I 176 W/m -2,5 C 1,3 C 11,3 km/h (2 Bft) 98,11 %
28.11.2018 14:24 1,6 C 3,9 C 1,1 C 74 % 1027,6 hPa 0,0 l/m 9,1 km/h (2 Bft) O-SO 102 2 min 0,000 mm 0,0 UV-I 172 W/m -2,5 C -0,9 C 12,9 km/h (3 Bft) 95,74 %
28.11.2018 14:26 1,6 C 3,9 C 0,6 C 74 % 1027,6 hPa 0,0 l/m 10,4 km/h (2 Bft) O-SO 103 2 min 0,000 mm 0,0 UV-I 168 W/m -2,5 C -2,0 C 12,9 km/h (3 Bft) 97,87 %
28.11.2018 14:29 1,5 C 3,9 C 0,6 C 75 % 1027,6 hPa 0,0 l/m 7,3 km/h (2 Bft) O 85 3 min 0,000 mm 0,0 UV-I 163 W/m -2,4 C 0,6 C 11,3 km/h (2 Bft) 98,46 %
28.11.2018 14:30 1,4 C 3,9 C 0,6 C 75 % 1027,6 hPa 0,0 l/m 6,6 km/h (2 Bft) O 95 1 min 0,000 mm 0,0 UV-I 160 W/m -2,5 C 1,2 C 11,3 km/h (2 Bft) 96,30 %
28.11.2018 14:32 1,5 C 3,9 C 0,6 C 76 % 1027,6 hPa 0,0 l/m 4,8 km/h (1 Bft) O 96 2 min 0,000 mm 0,0 UV-I 157 W/m -2,3 C 1,5 C 6,4 km/h (2 Bft) 97,37 %
28.11.2018 14:34 1,6 C 3,9 C 0,0 C 76 % 1027,6 hPa 0,0 l/m 4,5 km/h (1 Bft) O 98 2 min 0,000 mm 0,0 UV-I 156 W/m -2,2 C 1,6 C 6,4 km/h (2 Bft) 98,11 %
28.11.2018 14:36 1,6 C 3,9 C 0,6 C 76 % 1027,6 hPa 0,0 l/m 4,0 km/h (1 Bft) SO 131 2 min 0,000 mm 0,0 UV-I 152 W/m -2,2 C 1,6 C 6,4 km/h (2 Bft) 96,00 %
28.11.2018 14:38 1,6 C 3,9 C 0,6 C 76 % 1027,6 hPa 0,0 l/m 5,7 km/h (1 Bft) O-SO 110 2 min 0,000 mm 0,0 UV-I 148 W/m -2,2 C 1,6 C 9,7 km/h (2 Bft) 97,87 %
28.11.2018 14:40 1,6 C 3,9 C 0,0 C 76 % 1027,6 hPa 0,0 l/m 5,2 km/h (1 Bft) SO 125 2 min 0,000 mm 0,0 UV-I 145 W/m -2,2 C 1,6 C 6,4 km/h (2 Bft) 96,00 %
28.11.2018 14:42 1,5 C 3,9 C 0,0 C 76 % 1027,6 hPa 0,0 l/m 6,8 km/h (2 Bft) O-SO 110 2 min 0,000 mm 0,0 UV-I 142 W/m -2,3 C 1,1 C 11,3 km/h (2 Bft) 97,87 %
28.11.2018 14:44 1,4 C 3,9 C 0,0 C 77 % 1027,6 hPa 0,0 l/m 6,0 km/h (2 Bft) O-SO 109 2 min 0,000 mm 0,0 UV-I 137 W/m -2,2 C 1,4 C 9,7 km/h (2 Bft) 100,00 %
28.11.2018 14:46 1,4 C 3,9 C 0,0 C 76 % 1027,6 hPa 0,0 l/m 5,5 km/h (1 Bft) O 92 2 min 0,000 mm 0,0 UV-I 133 W/m -2,4 C 1,4 C 9,7 km/h (2 Bft) 100,00 %
28.11.2018 14:48 1,4 C 3,9 C 0,0 C 76 % 1027,6 hPa 0,0 l/m 9,2 km/h (2 Bft) O 97 2 min 0,000 mm 0,0 UV-I 129 W/m -2,4 C -1,2 C 12,9 km/h (3 Bft) 100,00 %
28.11.2018 14:50 1,3 C 3,9 C 0,0 C 76 % 1027,6 hPa 0,0 l/m 8,9 km/h (2 Bft) O-SO 119 2 min 0,000 mm 0,0 UV-I 127 W/m -2,5 C -1,1 C 12,9 km/h (3 Bft) 100,00 %
28.11.2018 14:52 1,3 C 3,9 C 0,0 C 78 % 1027,7 hPa 0,0 l/m 6,8 km/h (2 Bft) O-SO 115 2 min 0,000 mm 0,0 UV-I 124 W/m -2,1 C 0,9 C 11,3 km/h (2 Bft) 100,00 %
28.11.2018 14:54 1,3 C 3,9 C 0,0 C 77 % 1027,6 hPa 0,0 l/m 7,1 km/h (2 Bft) O-SO 104 2 min 0,000 mm 0,0 UV-I 119 W/m -2,3 C 0,6 C 9,7 km/h (2 Bft) 100,00 %
28.11.2018 14:56 1,3 C 3,9 C 0,0 C 78 % 1027,6 hPa 0,0 l/m 5,1 km/h (1 Bft) O-SO 105 2 min 0,000 mm 0,0 UV-I 115 W/m -2,1 C 1,3 C 9,7 km/h (2 Bft) 97,87 %
28.11.2018 14:58 1,3 C 3,9 C 0,0 C 78 % 1027,6 hPa 0,0 l/m 5,4 km/h (1 Bft) O-SO 116 2 min 0,000 mm 0,0 UV-I 111 W/m -2,1 C 1,3 C 9,7 km/h (2 Bft) 100,00 %
28.11.2018 15:00 1,3 C 3,9 C -0,6 C 78 % 1027,6 hPa 0,0 l/m 5,4 km/h (1 Bft) O 90 2 min 0,076 mm 0,0 UV-I 106 W/m -2,1 C 1,3 C 9,7 km/h (2 Bft) 97,87 %
28.11.2018 15:02 1,2 C 3,9 C 0,0 C 79 % 1027,6 hPa 0,0 l/m 5,6 km/h (1 Bft) O 98 2 min 0,000 mm 0,0 UV-I 104 W/m -2,0 C 1,2 C 9,7 km/h (2 Bft) 100,00 %
28.11.2018 15:04 1,2 C 3,9 C -0,6 C 78 % 1027,6 hPa 0,0 l/m 5,6 km/h (1 Bft) O-NO 59 2 min 0,000 mm 0,0 UV-I 101 W/m -2,2 C 1,2 C 8,0 km/h (2 Bft) 98,00 %
28.11.2018 15:06 1,2 C 3,9 C -0,6 C 79 % 1027,6 hPa 0,0 l/m 4,8 km/h (1 Bft) O-NO 76 2 min 0,000 mm 0,0 UV-I 98 W/m -2,0 C 1,2 C 9,7 km/h (2 Bft) 100,00 %
28.11.2018 15:08 1,1 C 3,9 C -0,6 C 79 % 1027,6 hPa 0,0 l/m 7,1 km/h (2 Bft) O-NO 72 2 min 0,000 mm 0,0 UV-I 93 W/m -2,1 C 0,4 C 12,9 km/h (3 Bft) 100,00 %
28.11.2018 15:10 1,1 C 3,9 C -0,6 C 79 % 1027,6 hPa 0,0 l/m 6,4 km/h (2 Bft) O 91 2 min 0,000 mm 0,0 UV-I 90 W/m -2,1 C 1,1 C 9,7 km/h (2 Bft) 100,00 %
28.11.2018 15:12 1,0 C 3,9 C -0,6 C 79 % 1027,6 hPa 0,0 l/m 6,2 km/h (2 Bft) O 88 2 min 0,000 mm 0,0 UV-I 88 W/m -2,2 C 1,0 C 9,7 km/h (2 Bft) 94,34 %
28.11.2018 15:14 0,9 C 3,9 C -0,6 C 80 % 1027,6 hPa 0,0 l/m 7,8 km/h (2 Bft) O 94 2 min 0,000 mm 0,0 UV-I 84 W/m -2,2 C -0,5 C 11,3 km/h (2 Bft) 97,56 %
28.11.2018 15:16 0,9 C 3,9 C -0,6 C 79 % 1027,6 hPa 0,0 l/m 9,5 km/h (2 Bft) O-SO 107 2 min 0,000 mm 0,0 UV-I 81 W/m -2,3 C -2,0 C 12,9 km/h (3 Bft) 98,00 %
28.11.2018 15:18 0,9 C 3,9 C -0,6 C 79 % 1027,6 hPa 0,0 l/m 8,1 km/h (2 Bft) O-NO 69 2 min 0,000 mm 0,0 UV-I 78 W/m -2,3 C -0,8 C 11,3 km/h (2 Bft) 100,00 %
28.11.2018 15:20 0,9 C 3,9 C -0,6 C 79 % 1027,6 hPa 0,0 l/m 6,6 km/h (2 Bft) O 94 2 min 0,000 mm 0,0 UV-I 74 W/m -2,3 C 0,7 C 9,7 km/h (2 Bft) 100,00 %
28.11.2018 15:22 0,8 C 3,9 C -0,6 C 79 % 1027,7 hPa 0,0 l/m 5,3 km/h (1 Bft) O 89 2 min 0,000 mm 0,0 UV-I 70 W/m -2,4 C 0,8 C 6,4 km/h (2 Bft) 97,87 %
28.11.2018 15:24 0,8 C 3,9 C -1,1 C 79 % 1027,7 hPa 0,0 l/m 5,0 km/h (1 Bft) O 88 2 min 0,000 mm 0,0 UV-I 67 W/m -2,4 C 0,8 C 6,4 km/h (2 Bft) 96,23 %
28.11.2018 15:26 0,8 C 3,9 C -1,1 C 79 % 1027,7 hPa 0,0 l/m 5,3 km/h (1 Bft) O-NO 63 2 min 0,000 mm 0,0 UV-I 63 W/m -2,4 C 0,8 C 8,0 km/h (2 Bft) 100,00 %
28.11.2018 15:28 0,8 C 3,9 C -1,1 C 79 % 1027,7 hPa 0,0 l/m 4,5 km/h (1 Bft) O 95 2 min 0,000 mm 0,0 UV-I 62 W/m -2,4 C 0,8 C 6,4 km/h (2 Bft) 97,87 %
28.11.2018 15:30 0,7 C 3,9 C -1,1 C 80 % 1027,7 hPa 0,0 l/m 3,1 km/h (1 Bft) O 85 2 min 0,000 mm 0,0 UV-I 60 W/m -2,3 C 0,7 C 6,4 km/h (2 Bft) 100,00 %
28.11.2018 15:32 0,7 C 3,9 C -1,1 C 80 % 1027,7 hPa 0,0 l/m 3,5 km/h (1 Bft) O 92 2 min 0,000 mm 0,0 UV-I 58 W/m -2,3 C 0,7 C 4,8 km/h (1 Bft) 97,56 %
28.11.2018 15:34 0,7 C 3,9 C -1,7 C 80 % 1027,8 hPa 0,0 l/m 4,0 km/h (1 Bft) O 91 2 min 0,000 mm 0,0 UV-I 54 W/m -2,3 C 0,7 C 4,8 km/h (1 Bft) 98,11 %
28.11.2018 15:36 0,6 C 3,9 C -1,1 C 80 % 1027,8 hPa 0,0 l/m 4,2 km/h (1 Bft) O 90 2 min 0,000 mm 0,0 UV-I 50 W/m -2,4 C 0,6 C 6,4 km/h (2 Bft) 95,74 %
28.11.2018 15:38 0,6 C 3,9 C -1,7 C 80 % 1027,7 hPa 0,0 l/m 4,1 km/h (1 Bft) O 89 2 min 0,000 mm 0,0 UV-I 46 W/m -2,4 C 0,6 C 4,8 km/h (1 Bft) 94,00 %
28.11.2018 15:40 0,6 C 3,9 C -1,7 C 80 % 1027,7 hPa 0,0 l/m 4,8 km/h (1 Bft) O 90 2 min 0,000 mm 0,0 UV-I 42 W/m -2,4 C 0,6 C 6,4 km/h (2 Bft) 94,00 %
28.11.2018 15:42 0,6 C 3,9 C -1,7 C 80 % 1027,7 hPa 0,0 l/m 4,4 km/h (1 Bft) O 101 2 min 0,000 mm 0,0 UV-I 39 W/m -2,4 C 0,6 C 6,4 km/h (2 Bft) 97,22 %
28.11.2018 15:44 0,5 C 3,9 C -1,7 C 81 % 1027,8 hPa 0,0 l/m 3,8 km/h (1 Bft) O 101 2 min 0,000 mm 0,0 UV-I 35 W/m -2,4 C 0,5 C 4,8 km/h (1 Bft) 94,34 %
28.11.2018 15:46 0,4 C 3,9 C -2,2 C 81 % 1027,7 hPa 0,0 l/m 4,7 km/h (1 Bft) O 101 2 min 0,000 mm 0,0 UV-I 33 W/m -2,5 C 0,4 C 6,4 km/h (2 Bft) 98,00 %
28.11.2018 15:48 0,3 C 3,9 C -2,2 C 81 % 1027,8 hPa 0,0 l/m 4,2 km/h (1 Bft) O-SO 108 2 min 0,000 mm 0,0 UV-I 28 W/m -2,6 C 0,3 C 6,4 km/h (2 Bft) 92,11 %
28.11.2018 15:50 0,3 C 3,9 C -2,2 C 82 % 1027,8 hPa 0,0 l/m 3,9 km/h (1 Bft) O-SO 106 2 min 0,000 mm 0,0 UV-I 26 W/m -2,4 C 0,3 C 4,8 km/h (1 Bft) 94,00 %
28.11.2018 15:52 0,3 C 3,9 C -2,8 C 82 % 1027,9 hPa 0,0 l/m 3,7 km/h (1 Bft) O-SO 107 2 min 0,000 mm 0,0 UV-I 23 W/m -2,4 C 0,3 C 4,8 km/h (1 Bft) 96,00 %
28.11.2018 15:54 0,3 C 3,9 C -2,8 C 82 % 1027,9 hPa 0,0 l/m 3,9 km/h (1 Bft) O-SO 107 2 min 0,000 mm 0,0 UV-I 22 W/m -2,4 C 0,3 C 6,4 km/h (2 Bft) 97,87 %
28.11.2018 15:56 0,2 C 3,9 C -2,8 C 82 % 1027,9 hPa 0,0 l/m 2,8 km/h (1 Bft) O-SO 107 2 min 0,000 mm 0,0 UV-I 19 W/m -2,5 C 0,2 C 3,2 km/h (1 Bft) 94,00 %
28.11.2018 15:58 0,2 C 3,9 C -3,3 C 82 % 1027,8 hPa 0,0 l/m 2,0 km/h (1 Bft) O-SO 107 2 min 0,000 mm 0,0 UV-I 18 W/m -2,5 C 0,2 C 4,8 km/h (1 Bft) 97,73 %
28.11.2018 16:00 0,2 C 3,9 C -3,3 C 82 % 1027,9 hPa 0,0 l/m 2,8 km/h (1 Bft) O-SO 109 2 min 0,025 mm 0,0 UV-I 16 W/m -2,5 C 0,2 C 4,8 km/h (1 Bft) 95,74 %
28.11.2018 16:02 0,1 C 3,9 C -3,3 C 82 % 1027,9 hPa 0,0 l/m 2,6 km/h (1 Bft) O-SO 109 2 min 0,000 mm 0,0 UV-I 16 W/m -2,6 C 0,1 C 3,2 km/h (1 Bft) 97,37 %
28.11.2018 16:04 0,1 C 3,9 C -3,9 C 82 % 1027,9 hPa 0,0 l/m 3,4 km/h (1 Bft) O-SO 109 0 min 0,000 mm 0,0 UV-I 14 W/m -2,6 C 0,1 C 4,8 km/h (1 Bft) 94,64 %
28.11.2018 16:06 0,0 C 3,9 C -3,9 C 83 % 1027,9 hPa 0,0 l/m 3,6 km/h (1 Bft) O-SO 109 0 min 0,000 mm 0,0 UV-I 12 W/m -2,5 C 0,0 C 4,8 km/h (1 Bft) 94,74 %
28.11.2018 16:08 -0,1 C 3,9 C -3,9 C 83 % 1027,9 hPa 0,0 l/m 3,1 km/h (1 Bft) O-SO 109 0 min 0,000 mm 0,0 UV-I 11 W/m -2,6 C -0,1 C 4,8 km/h (1 Bft) 94,12 %
28.11.2018 16:10 -0,1 C 3,9 C -3,9 C 83 % 1027,9 hPa 0,0 l/m 3,4 km/h (1 Bft) O-SO 109 0 min 0,000 mm 0,0 UV-I 11 W/m -2,6 C -0,1 C 4,8 km/h (1 Bft) 93,62 %
28.11.2018 16:12 -0,1 C 3,9 C -3,9 C 83 % 1027,9 hPa 0,0 l/m 2,7 km/h (1 Bft) O-SO 109 0 min 0,000 mm 0,0 UV-I 10 W/m -2,6 C -0,1 C 3,2 km/h (1 Bft) 94,00 %
28.11.2018 16:14 -0,1 C 3,9 C -3,9 C 83 % 1027,9 hPa 0,0 l/m 3,6 km/h (1 Bft) O-SO 109 0 min 0,000 mm 0,0 UV-I 9 W/m -2,6 C -0,1 C 4,8 km/h (1 Bft) 94,00 %
28.11.2018 16:16 -0,2 C 3,9 C -4,4 C 83 % 1027,9 hPa 0,0 l/m 3,3 km/h (1 Bft) O-SO 108 0 min 0,000 mm 0,0 UV-I 8 W/m -2,7 C -0,2 C 4,8 km/h (1 Bft) 97,37 %
28.11.2018 16:18 -0,2 C 3,9 C -4,4 C 83 % 1028,0 hPa 0,0 l/m 3,4 km/h (1 Bft) O-SO 107 0 min 0,000 mm 0,0 UV-I 7 W/m -2,7 C -0,2 C 4,8 km/h (1 Bft) 93,62 %
28.11.2018 16:20 -0,2 C 3,9 C -4,4 C 83 % 1027,9 hPa 0,0 l/m 3,4 km/h (1 Bft) O-SO 105 0 min 0,000 mm 0,0 UV-I 7 W/m -2,7 C -0,2 C 4,8 km/h (1 Bft) 95,83 %
28.11.2018 16:22 -0,3 C 3,9 C -4,4 C 83 % 1027,9 hPa 0,0 l/m 3,4 km/h (1 Bft) O-SO 105 0 min 0,000 mm 0,0 UV-I 7 W/m -2,8 C -0,3 C 4,8 km/h (1 Bft) 95,74 %
28.11.2018 16:24 -0,5 C 3,9 C -5,0 C 84 % 1027,9 hPa 0,0 l/m 3,6 km/h (1 Bft) O-SO 105 0 min 0,000 mm 0,0 UV-I 5 W/m -2,9 C -0,5 C 4,8 km/h (1 Bft) 96,36 %
28.11.2018 16:26 -0,7 C 3,9 C -5,0 C 85 % 1027,9 hPa 0,0 l/m 3,6 km/h (1 Bft) O-SO 105 0 min 0,000 mm 0,0 UV-I 5 W/m -2,9 C -0,7 C 4,8 km/h (1 Bft) 94,87 %
28.11.2018 16:28 -0,7 C 3,9 C -5,0 C 85 % 1027,9 hPa 0,0 l/m 3,4 km/h (1 Bft) O-SO 106 0 min 0,000 mm 0,0 UV-I 5 W/m -2,9 C -0,7 C 4,8 km/h (1 Bft) 94,00 %
28.11.2018 16:30 -0,7 C 3,9 C -5,0 C 85 % 1027,9 hPa 0,0 l/m 3,4 km/h (1 Bft) O-SO 107 0 min 0,000 mm 0,0 UV-I 4 W/m -2,9 C -0,7 C 4,8 km/h (1 Bft) 97,56 %
28.11.2018 16:32 -0,7 C 3,9 C -5,0 C 85 % 1027,9 hPa 0,0 l/m 3,7 km/h (1 Bft) O-SO 107 0 min 0,000 mm 0,0 UV-I 0 W/m -2,9 C -0,7 C 4,8 km/h (1 Bft) 96,00 %
28.11.2018 16:34 -0,8 C 3,9 C -5,0 C 85 % 1027,9 hPa 0,0 l/m 3,8 km/h (1 Bft) O-SO 106 0 min 0,000 mm 0,0 UV-I 0 W/m -3,0 C -0,8 C 4,8 km/h (1 Bft) 93,62 %
28.11.2018 16:36 -0,8 C 3,9 C -5,6 C 85 % 1027,9 hPa 0,0 l/m 4,3 km/h (1 Bft) O-SO 107 0 min 0,000 mm 0,0 UV-I 0 W/m -3,0 C -0,8 C 6,4 km/h (2 Bft) 95,74 %
28.11.2018 16:38 -0,8 C 3,9 C -5,6 C 85 % 1027,9 hPa 0,0 l/m 4,3 km/h (1 Bft) O-SO 107 0 min 0,000 mm 0,0 UV-I 0 W/m -3,0 C -0,8 C 4,8 km/h (1 Bft) 95,74 %
28.11.2018 16:40 -0,8 C 3,9 C -5,6 C 85 % 1027,8 hPa 0,0 l/m 4,5 km/h (1 Bft) O-SO 107 0 min 0,000 mm 0,0 UV-I 0 W/m -3,0 C -0,8 C 6,4 km/h (2 Bft) 97,14 %
28.11.2018 16:42 -0,9 C 3,9 C -5,6 C 85 % 1027,8 hPa 0,0 l/m 3,5 km/h (1 Bft) O-SO 107 0 min 0,000 mm 0,0 UV-I 0 W/m -3,1 C -0,9 C 6,4 km/h (2 Bft) 98,46 %
28.11.2018 16:44 -0,8 C 3,9 C -5,6 C 84 % 1027,8 hPa 0,0 l/m 4,9 km/h (1 Bft) O 90 0 min 0,000 mm 0,0 UV-I 0 W/m -3,2 C -0,8 C 6,4 km/h (2 Bft) 97,37 %
28.11.2018 16:46 -0,9 C 3,9 C -5,6 C 84 % 1027,8 hPa 0,0 l/m 5,2 km/h (1 Bft) O-SO 107 0 min 0,000 mm 0,0 UV-I 0 W/m -3,3 C -0,9 C 6,4 km/h (2 Bft) 100,00 %
28.11.2018 16:48 -1,0 C 3,9 C -5,6 C 85 % 1027,8 hPa 0,0 l/m 4,6 km/h (1 Bft) O-SO 107 0 min 0,000 mm 0,0 UV-I 0 W/m -3,2 C -1,0 C 6,4 km/h (2 Bft) 94,00 %
28.11.2018 16:50 -1,1 C 3,9 C -5,6 C 85 % 1027,8 hPa 0,0 l/m 5,3 km/h (1 Bft) O-SO 107 0 min 0,000 mm 0,0 UV-I 0 W/m -3,3 C -1,1 C 6,4 km/h (2 Bft) 97,14 %
28.11.2018 16:52 -1,1 C 3,9 C -5,6 C 86 % 1027,8 hPa 0,0 l/m 4,7 km/h (1 Bft) O-SO 108 0 min 0,000 mm 0,0 UV-I 0 W/m -3,1 C -1,1 C 6,4 km/h (2 Bft) 96,23 %
28.11.2018 16:54 -1,0 C 3,9 C -5,6 C 86 % 1027,8 hPa 0,0 l/m 4,0 km/h (1 Bft) O-SO 108 0 min 0,000 mm 0,0 UV-I 0 W/m -3,0 C -1,0 C 6,4 km/h (2 Bft) 97,73 %
28.11.2018 16:56 -1,0 C 3,9 C -5,6 C 86 % 1027,8 hPa 0,0 l/m 4,0 km/h (1 Bft) O 98 0 min 0,000 mm 0,0 UV-I 0 W/m -3,0 C -1,0 C 6,4 km/h (2 Bft) 97,73 %
28.11.2018 16:58 -1,0 C 3,9 C -5,6 C 86 % 1027,9 hPa 0,0 l/m 4,6 km/h (1 Bft) O-SO 120 0 min 0,000 mm 0,0 UV-I 0 W/m -3,0 C -1,0 C 6,4 km/h (2 Bft) 98,00 %
28.11.2018 17:00 -0,9 C 3,9 C -5,6 C 85 % 1027,9 hPa 0,0 l/m 6,5 km/h (2 Bft) O-SO 108 0 min 0,000 mm 0,0 UV-I 0 W/m -3,1 C -1,0 C 11,3 km/h (2 Bft) 96,00 %
28.11.2018 17:02 -0,9 C 3,9 C -5,6 C 85 % 1027,9 hPa 0,0 l/m 5,6 km/h (1 Bft) O 98 0 min 0,000 mm 0,0 UV-I 0 W/m -3,1 C -0,9 C 9,7 km/h (2 Bft) 98,00 %
28.11.2018 17:04 -0,9 C 3,9 C -5,6 C 84 % 1027,9 hPa 0,0 l/m 4,2 km/h (1 Bft) O-SO 106 0 min 0,000 mm 0,0 UV-I 0 W/m -3,3 C -0,9 C 6,4 km/h (2 Bft) 97,44 %
28.11.2018 17:06 -0,8 C 3,9 C -5,6 C 84 % 1027,9 hPa 0,0 l/m 4,9 km/h (1 Bft) O 101 0 min 0,000 mm 0,0 UV-I 0 W/m -3,2 C -0,8 C 9,7 km/h (2 Bft) 100,00 %
28.11.2018 17:08 -0,8 C 3,9 C -5,6 C 84 % 1027,9 hPa 0,0 l/m 4,2 km/h (1 Bft) O-SO 103 0 min 0,000 mm 0,0 UV-I 0 W/m -3,2 C -0,8 C 8,0 km/h (2 Bft) 97,73 %
28.11.2018 17:10 -0,8 C 3,9 C -5,6 C 83 % 1027,9 hPa 0,0 l/m 4,0 km/h (1 Bft) O-SO 104 0 min 0,000 mm 0,0 UV-I 0 W/m -3,3 C -0,8 C 4,8 km/h (1 Bft) 98,11 %
28.11.2018 17:12 -0,8 C 3,9 C -5,0 C 83 % 1027,9 hPa 0,0 l/m 4,4 km/h (1 Bft) O-SO 115 0 min 0,000 mm 0,0 UV-I 0 W/m -3,3 C -0,8 C 6,4 km/h (2 Bft) 100,00 %
28.11.2018 17:14 -0,9 C 3,9 C -5,6 C 84 % 1027,9 hPa 0,0 l/m 4,1 km/h (1 Bft) O-SO 115 0 min 0,000 mm 0,0 UV-I 0 W/m -3,3 C -0,9 C 6,4 km/h (2 Bft) 100,00 %
28.11.2018 17:16 -1,0 C 3,9 C -5,6 C 84 % 1027,9 hPa 0,0 l/m 4,6 km/h (1 Bft) O-SO 105 0 min 0,000 mm 0,0 UV-I 0 W/m -3,4 C -1,0 C 6,4 km/h (2 Bft) 100,00 %
28.11.2018 17:18 -1,1 C 3,9 C -5,6 C 85 % 1027,9 hPa 0,0 l/m 4,6 km/h (1 Bft) O-SO 102 0 min 0,000 mm 0,0 UV-I 0 W/m -3,3 C -1,1 C 6,4 km/h (2 Bft) 100,00 %
28.11.2018 17:20 -1,0 C 3,9 C -5,6 C 85 % 1027,9 hPa 0,0 l/m 4,6 km/h (1 Bft) O-SO 115 0 min 0,000 mm 0,0 UV-I 0 W/m -3,2 C -1,0 C 6,4 km/h (2 Bft) 100,00 %
28.11.2018 17:22 -0,9 C 3,9 C -5,0 C 85 % 1028,0 hPa 0,0 l/m 4,5 km/h (1 Bft) O-SO 109 0 min 0,000 mm 0,0 UV-I 0 W/m -3,1 C -0,9 C 6,4 km/h (2 Bft) 94,74 %
28.11.2018 17:24 -0,9 C 3,9 C -5,0 C 84 % 1028,0 hPa 0,0 l/m 4,5 km/h (1 Bft) SO 128 0 min 0,000 mm 0,0 UV-I 0 W/m -3,3 C -0,9 C 6,4 km/h (2 Bft) 98,00 %
28.11.2018 17:26 -0,9 C 3,9 C -5,6 C 84 % 1028,1 hPa 0,0 l/m 3,5 km/h (1 Bft) O-SO 111 0 min 0,000 mm 0,0 UV-I 0 W/m -3,3 C -0,9 C 6,4 km/h (2 Bft) 100,00 %
28.11.2018 17:28 -1,0 C 3,9 C -5,6 C 84 % 1028,1 hPa 0,0 l/m 3,7 km/h (1 Bft) O-SO 108 0 min 0,000 mm 0,0 UV-I 0 W/m -3,4 C -1,0 C 6,4 km/h (2 Bft) 98,00 %
28.11.2018 17:30 -1,1 C 3,9 C -5,6 C 85 % 1028,1 hPa 0,0 l/m 3,3 km/h (1 Bft) O-SO 108 0 min 0,000 mm 0,0 UV-I 0 W/m -3,3 C -1,1 C 4,8 km/h (1 Bft) 100,00 %
28.11.2018 17:32 -1,1 C 3,9 C -5,6 C 85 % 1028,1 hPa 0,0 l/m 3,1 km/h (1 Bft) O-SO 108 0 min 0,000 mm 0,0 UV-I 0 W/m -3,3 C -1,1 C 4,8 km/h (1 Bft) 100,00 %
28.11.2018 17:34 -1,2 C 3,9 C -6,1 C 85 % 1028,2 hPa 0,0 l/m 3,0 km/h (1 Bft) O-SO 108 0 min 0,000 mm 0,0 UV-I 0 W/m -3,4 C -1,2 C 4,8 km/h (1 Bft) 100,00 %
28.11.2018 17:36 -1,2 C 3,9 C -6,1 C 85 % 1028,2 hPa 0,0 l/m 2,8 km/h (1 Bft) O-SO 108 0 min 0,000 mm 0,0 UV-I 0 W/m -3,4 C -1,2 C 4,8 km/h (1 Bft) 100,00 %
28.11.2018 17:38 -1,2 C 3,9 C -6,1 C 85 % 1028,3 hPa 0,0 l/m 3,1 km/h (1 Bft) O-SO 123 0 min 0,000 mm 0,0 UV-I 0 W/m -3,4 C -1,2 C 4,8 km/h (1 Bft) 100,00 %
28.11.2018 17:40 -1,2 C 3,9 C -6,1 C 85 % 1028,2 hPa 0,0 l/m 3,2 km/h (1 Bft) O-SO 123 0 min 0,000 mm 0,0 UV-I 0 W/m -3,4 C -1,2 C 4,8 km/h (1 Bft) 100,00 %
28.11.2018 17:42 -1,3 C 3,9 C -6,1 C 85 % 1028,2 hPa 0,0 l/m 3,0 km/h (1 Bft) O-SO 123 0 min 0,000 mm 0,0 UV-I 0 W/m -3,5 C -1,3 C 4,8 km/h (1 Bft) 100,00 %
28.11.2018 17:44 -1,6 C 3,9 C -5,6 C 86 % 1028,2 hPa 0,0 l/m 3,5 km/h (1 Bft) O-SO 109 0 min 0,000 mm 0,0 UV-I 0 W/m -3,6 C -1,6 C 6,4 km/h (2 Bft) 97,87 %
28.11.2018 17:46 -1,8 C 3,9 C -5,6 C 87 % 1028,2 hPa 0,0 l/m 3,6 km/h (1 Bft) O-SO 109 0 min 0,000 mm 0,0 UV-I 0 W/m -3,7 C -1,8 C 4,8 km/h (1 Bft) 98,00 %
28.11.2018 17:48 -2,0 C 3,9 C -5,0 C 88 % 1028,2 hPa 0,0 l/m 3,9 km/h (1 Bft) O-SO 109 0 min 0,000 mm 0,0 UV-I 0 W/m -3,7 C -2,0 C 4,8 km/h (1 Bft) 98,00 %
28.11.2018 17:50 -2,1 C 3,9 C -5,0 C 89 % 1028,3 hPa 0,0 l/m 3,0 km/h (1 Bft) SO 126 0 min 0,000 mm 0,0 UV-I 0 W/m -3,7 C -2,1 C 4,8 km/h (1 Bft) 100,00 %
28.11.2018 17:52 -2,1 C 3,9 C -5,0 C 89 % 1028,4 hPa 0,0 l/m 2,7 km/h (1 Bft) SO 126 0 min 0,000 mm 0,0 UV-I 0 W/m -3,7 C -2,1 C 4,8 km/h (1 Bft) 100,00 %
28.11.2018 17:54 -2,1 C 3,9 C -5,0 C 90 % 1028,4 hPa 0,0 l/m 2,8 km/h (1 Bft) O 100 0 min 0,000 mm 0,0 UV-I 0 W/m -3,5 C -2,1 C 3,2 km/h (1 Bft) 98,00 %
28.11.2018 17:56 -2,1 C 3,9 C -5,0 C 89 % 1028,4 hPa 0,0 l/m 2,2 km/h (1 Bft) O 100 0 min 0,000 mm 0,0 UV-I 0 W/m -3,7 C -2,1 C 3,2 km/h (1 Bft) 98,00 %
28.11.2018 17:58 -2,2 C 3,9 C -5,0 C 90 % 1028,4 hPa 0,0 l/m 2,3 km/h (1 Bft) O 100 0 min 0,000 mm 0,0 UV-I 0 W/m -3,6 C -2,2 C 3,2 km/h (1 Bft) 96,00 %
28.11.2018 18:00 -2,3 C 3,9 C -5,6 C 90 % 1028,4 hPa 0,0 l/m 1,6 km/h (1 Bft) O 100 0 min 0,000 mm 0,0 UV-I 0 W/m -3,7 C -2,3 C 3,2 km/h (1 Bft) 95,74 %
28.11.2018 18:02 -2,4 C 3,9 C -6,1 C 90 % 1028,4 hPa 0,0 l/m 1,7 km/h (1 Bft) O 100 0 min 0,000 mm 0,0 UV-I 0 W/m -3,8 C -2,4 C 3,2 km/h (1 Bft) 97,56 %
28.11.2018 18:04 -2,6 C 3,9 C -6,1 C 91 % 1028,4 hPa 0,0 l/m 1,5 km/h (1 Bft) O 100 0 min 0,000 mm 0,0 UV-I 0 W/m -3,9 C -2,6 C 3,2 km/h (1 Bft) 97,87 %
28.11.2018 18:06 -2,6 C 3,9 C -6,7 C 92 % 1028,4 hPa 0,0 l/m 1,4 km/h (1 Bft) O 100 0 min 0,000 mm 0,0 UV-I 0 W/m -3,7 C -2,6 C 1,6 km/h (1 Bft) 96,00 %
28.11.2018 18:08 -2,6 C 3,9 C -6,7 C 92 % 1028,4 hPa 0,0 l/m 1,6 km/h (1 Bft) O 100 0 min 0,000 mm 0,0 UV-I 0 W/m -3,7 C -2,6 C 1,6 km/h (1 Bft) 92,68 %
28.11.2018 18:10 -2,7 C 3,9 C -6,7 C 92 % 1028,4 hPa 0,0 l/m 1,3 km/h (1 Bft) O 100 0 min 0,000 mm 0,0 UV-I 0 W/m -3,8 C -2,7 C 1,6 km/h (1 Bft) 95,12 %
28.11.2018 18:12 -2,7 C 3,9 C -6,7 C 93 % 1028,4 hPa 0,0 l/m 1,7 km/h (1 Bft) O 100 0 min 0,000 mm 0,0 UV-I 0 W/m -3,7 C -2,7 C 3,2 km/h (1 Bft) 98,36 %
28.11.2018 18:14 -2,7 C 3,9 C -7,2 C 93 % 1028,5 hPa 0,0 l/m 1,8 km/h (1 Bft) O 100 0 min 0,000 mm 0,0 UV-I 0 W/m -3,7 C -2,7 C 3,2 km/h (1 Bft) 100,00 %
28.11.2018 18:16 -2,7 C 3,9 C -6,7 C 93 % 1028,4 hPa 0,0 l/m 2,1 km/h (1 Bft) O 100 0 min 0,000 mm 0,0 UV-I 0 W/m -3,7 C -2,7 C 3,2 km/h (1 Bft) 100,00 %
28.11.2018 18:18 -2,7 C 3,9 C -6,7 C 93 % 1028,4 hPa 0,0 l/m 2,8 km/h (1 Bft) O 100 0 min 0,000 mm 0,0 UV-I 0 W/m -3,7 C -2,7 C 3,2 km/h (1 Bft) 98,00 %
28.11.2018 18:20 -2,8 C 3,9 C -7,2 C 93 % 1028,4 hPa 0,0 l/m 3,1 km/h (1 Bft) O 100 0 min 0,000 mm 0,0 UV-I 0 W/m -3,8 C -2,8 C 4,8 km/h (1 Bft) 97,22 %
28.11.2018 18:22 -2,8 C 3,9 C -7,2 C 93 % 1028,4 hPa 0,0 l/m 3,9 km/h (1 Bft) O 100 0 min 0,000 mm 0,0 UV-I 0 W/m -3,8 C -2,8 C 4,8 km/h (1 Bft) 100,00 %
28.11.2018 18:24 -2,8 C 3,9 C -7,2 C 93 % 1028,4 hPa 0,0 l/m 3,9 km/h (1 Bft) O-SO 102 0 min 0,000 mm 0,0 UV-I 0 W/m -3,8 C -2,8 C 4,8 km/h (1 Bft) 100,00 %
28.11.2018 18:26 -2,7 C 3,9 C -7,2 C 93 % 1028,4 hPa 0,0 l/m 3,5 km/h (1 Bft) O-SO 102 0 min 0,000 mm 0,0 UV-I 0 W/m -3,7 C -2,7 C 4,8 km/h (1 Bft) 100,00 %
28.11.2018 18:29 -2,7 C 3,9 C -6,7 C 93 % 1028,4 hPa 0,0 l/m 4,3 km/h (1 Bft) O 94 0 min 0,000 mm 0,0 UV-I 0 W/m -3,7 C -2,7 C 6,4 km/h (2 Bft) 97,37 %
28.11.2018 18:30 -2,7 C 3,9 C -7,2 C 93 % 1028,4 hPa 0,0 l/m 4,4 km/h (1 Bft) O 96 0 min 0,000 mm 0,0 UV-I 0 W/m -3,7 C -2,7 C 6,4 km/h (2 Bft) 100,00 %
28.11.2018 18:32 -2,5 C 3,9 C -6,7 C 93 % 1028,4 hPa 0,0 l/m 4,9 km/h (1 Bft) O-SO 106 0 min 0,000 mm 0,0 UV-I 0 W/m -3,5 C -2,5 C 9,7 km/h (2 Bft) 98,11 %
28.11.2018 18:34 -2,2 C 3,9 C -6,1 C 93 % 1028,4 hPa 0,0 l/m 4,2 km/h (1 Bft) O 98 0 min 0,000 mm 0,0 UV-I 0 W/m -3,2 C -2,2 C 6,4 km/h (2 Bft) 96,00 %
28.11.2018 18:36 -1,9 C 3,9 C -6,1 C 93 % 1028,4 hPa 0,0 l/m 3,4 km/h (1 Bft) O 98 0 min 0,000 mm 0,0 UV-I 0 W/m -2,9 C -1,9 C 4,8 km/h (1 Bft) 96,00 %
28.11.2018 18:39 -1,8 C 3,9 C -6,1 C 92 % 1028,4 hPa 0,0 l/m 3,0 km/h (1 Bft) O 98 0 min 0,000 mm 0,0 UV-I 0 W/m -2,9 C -1,8 C 4,8 km/h (1 Bft) 98,46 %
28.11.2018 18:40 -1,8 C 3,9 C -6,1 C 91 % 1028,4 hPa 0,0 l/m 3,3 km/h (1 Bft) O 98 0 min 0,000 mm 0,0 UV-I 0 W/m -3,1 C -1,8 C 4,8 km/h (1 Bft) 92,31 %
28.11.2018 18:42 -1,9 C 3,9 C -6,1 C 91 % 1028,3 hPa 0,0 l/m 4,9 km/h (1 Bft) O-SO 109 0 min 0,000 mm 0,0 UV-I 0 W/m -3,2 C -1,9 C 9,7 km/h (2 Bft) 94,29 %
28.11.2018 18:44 -1,9 C 3,9 C -6,1 C 91 % 1028,4 hPa 0,0 l/m 5,5 km/h (1 Bft) O-SO 113 0 min 0,000 mm 0,0 UV-I 0 W/m -3,2 C -1,9 C 9,7 km/h (2 Bft) 98,21 %
28.11.2018 18:46 -1,9 C 3,9 C -6,1 C 90 % 1028,4 hPa 0,0 l/m 4,5 km/h (1 Bft) O-SO 109 0 min 0,000 mm 0,0 UV-I 0 W/m -3,3 C -1,9 C 6,4 km/h (2 Bft) 97,87 %
28.11.2018 18:48 -2,0 C 3,9 C -6,1 C 90 % 1028,4 hPa 0,0 l/m 3,8 km/h (1 Bft) SO 132 0 min 0,000 mm 0,0 UV-I 0 W/m -3,4 C -2,0 C 6,4 km/h (2 Bft) 98,00 %
28.11.2018 18:50 -2,2 C 3,9 C -6,1 C 90 % 1028,3 hPa 0,0 l/m 3,7 km/h (1 Bft) O-SO 116 0 min 0,000 mm 0,0 UV-I 0 W/m -3,6 C -2,2 C 4,8 km/h (1 Bft) 97,37 %
28.11.2018 18:52 -2,3 C 3,9 C -6,1 C 91 % 1028,3 hPa 0,0 l/m 4,0 km/h (1 Bft) O-SO 115 0 min 0,000 mm 0,0 UV-I 0 W/m -3,6 C -2,3 C 6,4 km/h (2 Bft) 97,92 %
28.11.2018 18:54 -2,2 C 3,9 C -6,1 C 92 % 1028,3 hPa 0,0 l/m 4,3 km/h (1 Bft) O-SO 105 0 min 0,000 mm 0,0 UV-I 0 W/m -3,3 C -2,2 C 6,4 km/h (2 Bft) 95,92 %
28.11.2018 18:56 -2,0 C 3,9 C -6,1 C 92 % 1028,3 hPa 0,0 l/m 4,1 km/h (1 Bft) O 97 0 min 0,000 mm 0,0 UV-I 0 W/m -3,1 C -2,0 C 6,4 km/h (2 Bft) 94,00 %
28.11.2018 18:58 -1,9 C 3,9 C -5,6 C 92 % 1028,3 hPa 0,0 l/m 3,9 km/h (1 Bft) O 95 0 min 0,000 mm 0,0 UV-I 0 W/m -3,0 C -1,9 C 4,8 km/h (1 Bft) 97,22 %
28.11.2018 19:00 -1,9 C 3,9 C -5,6 C 91 % 1028,3 hPa 0,0 l/m 4,3 km/h (1 Bft) O 80 0 min 0,000 mm 0,0 UV-I 0 W/m -3,2 C -1,9 C 6,4 km/h (2 Bft) 92,45 %
28.11.2018 19:02 -1,9 C 3,9 C -5,0 C 91 % 1028,3 hPa 0,0 l/m 4,5 km/h (1 Bft) O 96 0 min 0,000 mm 0,0 UV-I 0 W/m -3,2 C -1,9 C 6,4 km/h (2 Bft) 92,00 %
28.11.2018 19:04 -1,9 C 3,9 C -5,0 C 91 % 1028,3 hPa 0,0 l/m 4,1 km/h (1 Bft) O 96 0 min 0,000 mm 0,0 UV-I 0 W/m -3,2 C -1,9 C 6,4 km/h (2 Bft) 94,00 %
28.11.2018 19:06 -2,0 C 3,9 C -5,0 C 91 % 1028,3 hPa 0,0 l/m 3,1 km/h (1 Bft) O 96 0 min 0,000 mm 0,0 UV-I 0 W/m -3,3 C -2,0 C 4,8 km/h (1 Bft) 92,00 %
28.11.2018 19:09 -2,2 C 3,9 C -5,6 C 91 % 1028,5 hPa 0,0 l/m 2,8 km/h (1 Bft) O 96 0 min 0,000 mm 0,0 UV-I 0 W/m -3,5 C -2,2 C 4,8 km/h (1 Bft) 92,19 %
28.11.2018 19:10 -2,2 C 3,9 C -5,6 C 91 % 1028,5 hPa 0,0 l/m 2,1 km/h (1 Bft) O 96 0 min 0,000 mm 0,0 UV-I 0 W/m -3,5 C -2,2 C 3,2 km/h (1 Bft) 100,00 %
28.11.2018 19:12 -2,3 C 3,9 C -5,6 C 91 % 1028,5 hPa 0,0 l/m 2,5 km/h (1 Bft) O 96 0 min 0,000 mm 0,0 UV-I 0 W/m -3,6 C -2,3 C 3,2 km/h (1 Bft) 89,47 %
28.11.2018 19:14 -2,3 C 3,9 C -6,1 C 91 % 1028,5 hPa 0,0 l/m 2,2 km/h (1 Bft) O 96 0 min 0,000 mm 0,0 UV-I 0 W/m -3,6 C -2,3 C 3,2 km/h (1 Bft) 94,44 %
28.11.2018 19:16 -2,3 C 3,9 C -6,1 C 91 % 1028,5 hPa 0,0 l/m 2,9 km/h (1 Bft) O 96 0 min 0,000 mm 0,0 UV-I 0 W/m -3,6 C -2,3 C 3,2 km/h (1 Bft) 93,62 %
28.11.2018 19:18 -2,3 C 3,9 C -6,1 C 92 % 1028,6 hPa 0,0 l/m 3,2 km/h (1 Bft) O 96 0 min 0,000 mm 0,0 UV-I 0 W/m -3,4 C -2,3 C 3,2 km/h (1 Bft) 95,74 %
28.11.2018 19:20 -2,3 C 3,9 C -6,1 C 92 % 1028,6 hPa 0,0 l/m 3,1 km/h (1 Bft) O 96 0 min 0,000 mm 0,0 UV-I 0 W/m -3,4 C -2,3 C 4,8 km/h (1 Bft) 95,74 %
28.11.2018 19:22 -2,3 C 3,9 C -6,1 C 92 % 1028,6 hPa 0,0 l/m 3,4 km/h (1 Bft) O 96 0 min 0,000 mm 0,0 UV-I 0 W/m -3,4 C -2,3 C 4,8 km/h (1 Bft) 97,87 %
28.11.2018 19:24 -2,3 C 3,9 C -6,7 C 92 % 1028,6 hPa 0,0 l/m 3,0 km/h (1 Bft) O 96 0 min 0,000 mm 0,0 UV-I 0 W/m -3,4 C -2,3 C 3,2 km/h (1 Bft) 98,00 %
28.11.2018 19:26 -2,5 C 3,9 C -6,7 C 91 % 1028,6 hPa 0,0 l/m 2,7 km/h (1 Bft) O 96 0 min 0,000 mm 0,0 UV-I 0 W/m -3,8 C -2,5 C 3,2 km/h (1 Bft) 97,56 %
28.11.2018 19:28 -2,7 C 3,9 C -7,2 C 91 % 1028,6 hPa 0,0 l/m 3,2 km/h (1 Bft) O 96 0 min 0,000 mm 0,0 UV-I 0 W/m -4,0 C -2,7 C 4,8 km/h (1 Bft) 98,00 %
28.11.2018 19:30 -2,7 C 3,9 C -7,2 C 92 % 1028,6 hPa 0,0 l/m 3,6 km/h (1 Bft) O 96 0 min 0,000 mm 0,0 UV-I 0 W/m -3,8 C -2,7 C 4,8 km/h (1 Bft) 95,12 %
28.11.2018 19:32 -2,6 C 3,9 C -7,2 C 93 % 1028,6 hPa 0,0 l/m 2,7 km/h (1 Bft) O 96 0 min 0,000 mm 0,0 UV-I 0 W/m -3,6 C -2,6 C 4,8 km/h (1 Bft) 97,87 %
28.11.2018 19:34 -2,5 C 3,9 C -7,2 C 93 % 1028,6 hPa 0,0 l/m 2,0 km/h (1 Bft) O 96 0 min 0,000 mm 0,0 UV-I 0 W/m -3,5 C -2,5 C 3,2 km/h (1 Bft) 95,83 %
28.11.2018 19:36 -2,5 C 3,9 C -7,2 C 93 % 1028,6 hPa 0,0 l/m 2,1 km/h (1 Bft) O 96 0 min 0,000 mm 0,0 UV-I 0 W/m -3,5 C -2,5 C 3,2 km/h (1 Bft) 98,08 %
28.11.2018 19:38 -2,5 C 3,9 C -7,2 C 92 % 1028,7 hPa 0,0 l/m 2,1 km/h (1 Bft) O 96 0 min 0,000 mm 0,0 UV-I 0 W/m -3,6 C -2,5 C 3,2 km/h (1 Bft) 97,62 %
28.11.2018 19:40 -2,6 C 3,9 C -7,2 C 92 % 1028,6 hPa 0,0 l/m 2,3 km/h (1 Bft) O 96 0 min 0,000 mm 0,0 UV-I 0 W/m -3,7 C -2,6 C 3,2 km/h (1 Bft) 95,74 %
28.11.2018 19:42 -2,5 C 3,9 C -7,8 C 93 % 1028,6 hPa 0,0 l/m 2,5 km/h (1 Bft) O 96 0 min 0,000 mm 0,0 UV-I 0 W/m -3,5 C -2,5 C 4,8 km/h (1 Bft) 98,11 %
28.11.2018 19:44 -2,5 C 3,9 C -7,8 C 93 % 1028,6 hPa 0,0 l/m 3,1 km/h (1 Bft) O 96 0 min 0,000 mm 0,0 UV-I 0 W/m -3,5 C -2,5 C 4,8 km/h (1 Bft) 97,37 %
28.11.2018 19:46 -2,4 C 3,9 C -7,2 C 93 % 1028,6 hPa 0,0 l/m 5,0 km/h (1 Bft) O-NO 74 0 min 0,000 mm 0,0 UV-I 0 W/m -3,4 C -2,4 C 6,4 km/h (2 Bft) 97,87 %
28.11.2018 19:48 -2,4 C 3,9 C -6,7 C 93 % 1028,5 hPa 0,0 l/m 4,5 km/h (1 Bft) O-NO 74 0 min 0,000 mm 0,0 UV-I 0 W/m -3,4 C -2,4 C 6,4 km/h (2 Bft) 98,00 %
28.11.2018 19:50 -2,4 C 3,9 C -6,7 C 93 % 1028,5 hPa 0,0 l/m 3,5 km/h (1 Bft) O-NO 74 0 min 0,000 mm 0,0 UV-I 0 W/m -3,4 C -2,4 C 4,8 km/h (1 Bft) 95,12 %
28.11.2018 19:52 -2,5 C 3,9 C -6,7 C 93 % 1028,5 hPa 0,0 l/m 3,5 km/h (1 Bft) O-NO 74 0 min 0,000 mm 0,0 UV-I 0 W/m -3,5 C -2,5 C 6,4 km/h (2 Bft) 96,23 %
28.11.2018 19:54 -2,6 C 3,9 C -6,7 C 93 % 1028,5 hPa 0,0 l/m 3,5 km/h (1 Bft) O-NO 74 0 min 0,000 mm 0,0 UV-I 0 W/m -3,6 C -2,6 C 6,4 km/h (2 Bft) 98,00 %
28.11.2018 19:56 -2,6 C 3,9 C -6,1 C 93 % 1028,5 hPa 0,0 l/m 4,5 km/h (1 Bft) O 88 0 min 0,000 mm 0,0 UV-I 0 W/m -3,6 C -2,6 C 6,4 km/h (2 Bft) 100,00 %
28.11.2018 19:58 -2,7 C 3,9 C -6,7 C 93 % 1028,5 hPa 0,0 l/m 3,7 km/h (1 Bft) O 88 0 min 0,000 mm 0,0 UV-I 0 W/m -3,7 C -2,7 C 6,4 km/h (2 Bft) 100,00 %
28.11.2018 20:00 -2,7 C 3,9 C -6,7 C 93 % 1028,6 hPa 0,0 l/m 3,0 km/h (1 Bft) O 86 0 min 0,000 mm 0,0 UV-I 0 W/m -3,7 C -2,7 C 4,8 km/h (1 Bft) 100,00 %
28.11.2018 20:02 -2,8 C 3,9 C -6,7 C 93 % 1028,6 hPa 0,0 l/m 3,1 km/h (1 Bft) O 90 0 min 0,000 mm 0,0 UV-I 0 W/m -3,8 C -2,8 C 4,8 km/h (1 Bft) 100,00 %
28.11.2018 20:04 -2,8 C 3,9 C -6,7 C 93 % 1028,6 hPa 0,0 l/m 2,4 km/h (1 Bft) O 90 0 min 0,000 mm 0,0 UV-I 0 W/m -3,8 C -2,8 C 4,8 km/h (1 Bft) 100,00 %
28.11.2018 20:06 -2,8 C 3,9 C -6,7 C 93 % 1028,6 hPa 0,0 l/m 3,6 km/h (1 Bft) O 101 0 min 0,000 mm 0,0 UV-I 0 W/m -3,8 C -2,8 C 4,8 km/h (1 Bft) 98,00 %
28.11.2018 20:09 -2,8 C 3,9 C -6,7 C 93 % 1028,6 hPa 0,0 l/m 5,2 km/h (1 Bft) O 93 0 min 0,000 mm 0,0 UV-I 0 W/m -3,8 C -2,8 C 6,4 km/h (2 Bft) 95,95 %
28.11.2018 20:10 -2,7 C 3,9 C -6,7 C 93 % 1028,6 hPa 0,0 l/m 5,1 km/h (1 Bft) O 83 0 min 0,000 mm 0,0 UV-I 0 W/m -3,7 C -2,7 C 6,4 km/h (2 Bft) 90,91 %
28.11.2018 20:12 -2,8 C 3,9 C -6,7 C 93 % 1028,5 hPa 0,0 l/m 6,1 km/h (2 Bft) O 94 0 min 0,000 mm 0,0 UV-I 0 W/m -3,8 C -2,8 C 9,7 km/h (2 Bft) 96,23 %
28.11.2018 20:14 -2,7 C 3,9 C -6,1 C 93 % 1028,5 hPa 0,0 l/m 6,2 km/h (2 Bft) O 87 0 min 0,000 mm 0,0 UV-I 0 W/m -3,7 C -2,7 C 9,7 km/h (2 Bft) 97,87 %
28.11.2018 20:16 -2,7 C 3,9 C -6,1 C 93 % 1028,5 hPa 0,0 l/m 5,3 km/h (1 Bft) O 98 0 min 0,000 mm 0,0 UV-I 0 W/m -3,7 C -2,7 C 9,7 km/h (2 Bft) 97,92 %
28.11.2018 20:18 -2,7 C 3,9 C -6,1 C 93 % 1028,5 hPa 0,0 l/m 4,9 km/h (1 Bft) O 81 0 min 0,000 mm 0,0 UV-I 0 W/m -3,7 C -2,7 C 6,4 km/h (2 Bft) 97,96 %
28.11.2018 20:20 -2,7 C 3,9 C -6,1 C 93 % 1028,5 hPa 0,0 l/m 5,5 km/h (1 Bft) O 79 0 min 0,000 mm 0,0 UV-I 0 W/m -3,7 C -2,7 C 8,0 km/h (2 Bft) 93,33 %
28.11.2018 20:22 -2,7 C 3,9 C -5,6 C 93 % 1028,6 hPa 0,0 l/m 4,4 km/h (1 Bft) O-NO 76 0 min 0,000 mm 0,0 UV-I 0 W/m -3,7 C -2,7 C 6,4 km/h (2 Bft) 98,00 %
28.11.2018 20:24 -2,7 C 3,9 C -5,6 C 93 % 1028,6 hPa 0,0 l/m 6,1 km/h (2 Bft) O-NO 63 0 min 0,000 mm 0,0 UV-I 0 W/m -3,7 C -2,7 C 8,0 km/h (2 Bft) 96,43 %
28.11.2018 20:26 -2,8 C 3,9 C -5,6 C 93 % 1028,6 hPa 0,0 l/m 5,5 km/h (1 Bft) O-NO 69 0 min 0,000 mm 0,0 UV-I 0 W/m -3,8 C -2,8 C 8,0 km/h (2 Bft) 100,00 %
28.11.2018 20:28 -2,8 C 3,9 C -5,6 C 93 % 1028,6 hPa 0,0 l/m 4,8 km/h (1 Bft) O 81 0 min 0,000 mm 0,0 UV-I 0 W/m -3,8 C -2,8 C 6,4 km/h (2 Bft) 98,00 %
28.11.2018 20:30 -2,8 C 3,9 C -5,6 C 93 % 1028,7 hPa 0,0 l/m 4,8 km/h (1 Bft) O-NO 70 0 min 0,000 mm 0,0 UV-I 0 W/m -3,8 C -2,8 C 6,4 km/h (2 Bft) 100,00 %
28.11.2018 20:32 -2,9 C 3,9 C -6,1 C 93 % 1028,7 hPa 0,0 l/m 4,0 km/h (1 Bft) O 88 0 min 0,000 mm 0,0 UV-I 0 W/m -3,9 C -2,9 C 6,4 km/h (2 Bft) 100,00 %
28.11.2018 20:34 -2,9 C 3,9 C -6,1 C 93 % 1028,8 hPa 0,0 l/m 2,5 km/h (1 Bft) O 88 0 min 0,000 mm 0,0 UV-I 0 W/m -3,9 C -2,9 C 4,8 km/h (1 Bft) 100,00 %
28.11.2018 20:36 -3,0 C 3,9 C -6,1 C 93 % 1028,8 hPa 0,0 l/m 2,6 km/h (1 Bft) O 88 0 min 0,000 mm 0,0 UV-I 0 W/m -4,0 C -3,0 C 4,8 km/h (1 Bft) 100,00 %
28.11.2018 20:38 -3,1 C 3,9 C -6,7 C 93 % 1028,9 hPa 0,0 l/m 3,1 km/h (1 Bft) O 95 0 min 0,000 mm 0,0 UV-I 0 W/m -4,1 C -3,1 C 4,8 km/h (1 Bft) 100,00 %
28.11.2018 20:40 -3,1 C 3,9 C -6,7 C 93 % 1028,9 hPa 0,0 l/m 3,1 km/h (1 Bft) O-NO 68 0 min 0,000 mm 0,0 UV-I 0 W/m -4,1 C -3,1 C 4,8 km/h (1 Bft) 100,00 %
28.11.2018 20:42 -3,1 C 3,9 C -6,7 C 93 % 1028,9 hPa 0,0 l/m 3,3 km/h (1 Bft) O-NO 68 0 min 0,000 mm 0,0 UV-I 0 W/m -4,1 C -3,1 C 4,8 km/h (1 Bft) 97,87 %
28.11.2018 20:44 -3,1 C 3,9 C -6,7 C 93 % 1028,9 hPa 0,0 l/m 3,4 km/h (1 Bft) O-NO 68 0 min 0,000 mm 0,0 UV-I 0 W/m -4,1 C -3,1 C 4,8 km/h (1 Bft) 98,00 %
28.11.2018 20:46 -3,1 C 3,9 C -6,7 C 93 % 1028,9 hPa 0,0 l/m 3,4 km/h (1 Bft) O-NO 68 0 min 0,000 mm 0,0 UV-I 0 W/m -4,1 C -3,1 C 4,8 km/h (1 Bft) 97,62 %
28.11.2018 20:49 -3,1 C 3,9 C -6,7 C 93 % 1028,9 hPa 0,0 l/m 2,3 km/h (1 Bft) O-NO 67 0 min 0,000 mm 0,0 UV-I 0 W/m -4,1 C -3,1 C 6,4 km/h (2 Bft) 96,15 %
28.11.2018 20:50 -3,1 C 3,9 C -7,2 C 93 % 1028,9 hPa 0,0 l/m 0,8 km/h (0 Bft) O-NO 67 0 min 0,000 mm 0,0 UV-I 0 W/m -4,1 C -3,1 C 1,6 km/h (1 Bft) 100,00 %
28.11.2018 20:52 -3,1 C 3,9 C -7,2 C 93 % 1028,9 hPa 0,0 l/m 0,1 km/h (0 Bft) O-NO 67 0 min 0,000 mm 0,0 UV-I 0 W/m -4,1 C -3,1 C 1,6 km/h (1 Bft) 95,74 %
28.11.2018 20:54 -3,2 C 3,9 C -7,8 C 93 % 1028,9 hPa 0,0 l/m 0,7 km/h (0 Bft) O-NO 67 0 min 0,000 mm 0,0 UV-I 0 W/m -4,2 C -3,2 C 1,6 km/h (1 Bft) 97,62 %
28.11.2018 20:56 -3,2 C 3,9 C -7,8 C 93 % 1028,9 hPa 0,0 l/m 0,6 km/h (0 Bft) O-NO 67 0 min 0,000 mm 0,0 UV-I 0 W/m -4,2 C -3,2 C 1,6 km/h (1 Bft) 97,87 %
28.11.2018 20:58 -3,3 C 3,9 C -7,8 C 93 % 1028,9 hPa 0,0 l/m 1,1 km/h (1 Bft) O-NO 67 0 min 0,000 mm 0,0 UV-I 0 W/m -4,3 C -3,3 C 3,2 km/h (1 Bft) 97,87 %
28.11.2018 21:00 -3,2 C 3,9 C -8,3 C 93 % 1028,9 hPa 0,0 l/m 2,6 km/h (1 Bft) O-NO 67 0 min 0,000 mm 0,0 UV-I 0 W/m -4,2 C -3,2 C 4,8 km/h (1 Bft) 96,00 %
28.11.2018 21:02 -3,2 C 3,9 C -8,3 C 93 % 1028,9 hPa 0,0 l/m 3,6 km/h (1 Bft) O-NO 67 0 min 0,000 mm 0,0 UV-I 0 W/m -4,2 C -3,2 C 4,8 km/h (1 Bft) 97,37 %
28.11.2018 21:04 -3,3 C 3,9 C -7,8 C 93 % 1028,8 hPa 0,0 l/m 4,0 km/h (1 Bft) O-NO 75 0 min 0,000 mm 0,0 UV-I 0 W/m -4,3 C -3,3 C 6,4 km/h (2 Bft) 98,21 %
28.11.2018 21:06 -3,3 C 3,9 C -7,8 C 93 % 1028,9 hPa 0,0 l/m 3,2 km/h (1 Bft) O 98 0 min 0,000 mm 0,0 UV-I 0 W/m -4,3 C -3,3 C 4,8 km/h (1 Bft) 97,87 %
28.11.2018 21:09 -3,2 C 3,9 C -7,8 C 93 % 1028,9 hPa 0,0 l/m 3,8 km/h (1 Bft) O-NO 74 0 min 0,000 mm 0,0 UV-I 0 W/m -4,2 C -3,2 C 6,4 km/h (2 Bft) 97,01 %
28.11.2018 21:10 -3,2 C 3,9 C -7,2 C 93 % 1028,9 hPa 0,0 l/m 3,9 km/h (1 Bft) O-NO 76 0 min 0,000 mm 0,0 UV-I 0 W/m -4,2 C -3,2 C 4,8 km/h (1 Bft) 100,00 %
28.11.2018 21:12 -3,2 C 3,9 C -6,7 C 93 % 1028,9 hPa 0,0 l/m 4,4 km/h (1 Bft) O-NO 70 0 min 0,000 mm 0,0 UV-I 0 W/m -4,2 C -3,2 C 6,4 km/h (2 Bft) 96,00 %
28.11.2018 21:14 -3,2 C 3,9 C -6,7 C 93 % 1028,8 hPa 0,0 l/m 4,1 km/h (1 Bft) O-NO 77 0 min 0,000 mm 0,0 UV-I 0 W/m -4,2 C -3,2 C 6,4 km/h (2 Bft) 95,74 %
28.11.2018 21:16 -3,2 C 3,9 C -6,7 C 92 % 1028,9 hPa 0,0 l/m 4,6 km/h (1 Bft) O 88 0 min 0,000 mm 0,0 UV-I 0 W/m -4,3 C -3,2 C 6,4 km/h (2 Bft) 93,62 %
28.11.2018 21:19 -3,2 C 3,9 C -6,1 C 92 % 1028,8 hPa 0,0 l/m 4,6 km/h (1 Bft) O-NO 74 0 min 0,000 mm 0,0 UV-I 0 W/m -4,3 C -3,2 C 8,0 km/h (2 Bft) 96,25 %
28.11.2018 21:20 -3,2 C 3,9 C -6,1 C 92 % 1028,8 hPa 0,0 l/m 3,3 km/h (1 Bft) O 82 0 min 0,000 mm 0,0 UV-I 0 W/m -4,3 C -3,2 C 6,4 km/h (2 Bft) 100,00 %
28.11.2018 21:22 -3,2 C 3,9 C -6,1 C 92 % 1028,7 hPa 0,0 l/m 4,3 km/h (1 Bft) O 84 0 min 0,000 mm 0,0 UV-I 0 W/m -4,3 C -3,2 C 4,8 km/h (1 Bft) 98,00 %
28.11.2018 21:24 -3,3 C 3,9 C -6,7 C 92 % 1028,8 hPa 0,0 l/m 4,3 km/h (1 Bft) O 87 0 min 0,000 mm 0,0 UV-I 0 W/m -4,4 C -3,3 C 6,4 km/h (2 Bft) 96,00 %
28.11.2018 21:26 -3,3 C 3,9 C -6,7 C 92 % 1028,8 hPa 0,0 l/m 5,0 km/h (1 Bft) O 87 0 min 0,000 mm 0,0 UV-I 0 W/m -4,4 C -3,3 C 11,3 km/h (2 Bft) 95,83 %
28.11.2018 21:28 -3,3 C 3,9 C -6,1 C 92 % 1028,8 hPa 0,0 l/m 6,3 km/h (2 Bft) O-NO 71 0 min 0,000 mm 0,0 UV-I 0 W/m -4,4 C -3,3 C 9,7 km/h (2 Bft) 98,46 %
28.11.2018 21:30 -3,2 C 3,9 C -6,1 C 92 % 1028,7 hPa 0,0 l/m 5,9 km/h (2 Bft) O-NO 59 0 min 0,000 mm 0,0 UV-I 0 W/m -4,3 C -3,2 C 8,0 km/h (2 Bft) 93,88 %
28.11.2018 21:32 -3,2 C 3,9 C -6,1 C 92 % 1028,7 hPa 0,0 l/m 6,7 km/h (2 Bft) O-NO 74 0 min 0,000 mm 0,0 UV-I 0 W/m -4,3 C -3,5 C 11,3 km/h (2 Bft) 100,00 %
28.11.2018 21:34 -3,2 C 3,9 C -5,6 C 92 % 1028,6 hPa 0,0 l/m 6,8 km/h (2 Bft) O 84 0 min 0,000 mm 0,0 UV-I 0 W/m -4,3 C -3,6 C 11,3 km/h (2 Bft) 100,00 %
28.11.2018 21:36 -3,2 C 3,9 C -5,6 C 92 % 1028,6 hPa 0,0 l/m 6,0 km/h (2 Bft) O-NO 76 0 min 0,000 mm 0,0 UV-I 0 W/m -4,3 C -3,2 C 11,3 km/h (2 Bft) 100,00 %
28.11.2018 21:38 -3,2 C 3,9 C -5,6 C 92 % 1028,7 hPa 0,0 l/m 7,8 km/h (2 Bft) O-NO 74 0 min 0,000 mm 0,0 UV-I 0 W/m -4,3 C -4,8 C 11,3 km/h (2 Bft) 98,11 %
28.11.2018 21:40 -3,3 C 3,9 C -5,6 C 92 % 1028,6 hPa 0,0 l/m 7,7 km/h (2 Bft) O-NO 74 0 min 0,000 mm 0,0 UV-I 0 W/m -4,4 C -4,8 C 11,3 km/h (2 Bft) 100,00 %
28.11.2018 21:42 -3,3 C 3,9 C -5,6 C 92 % 1028,6 hPa 0,0 l/m 7,9 km/h (2 Bft) O-NO 77 0 min 0,000 mm 0,0 UV-I 0 W/m -4,4 C -5,0 C 11,3 km/h (2 Bft) 96,00 %
28.11.2018 21:44 -3,3 C 3,9 C -5,6 C 92 % 1028,6 hPa 0,0 l/m 8,0 km/h (2 Bft) O-NO 78 0 min 0,000 mm 0,0 UV-I 0 W/m -4,4 C -5,1 C 11,3 km/h (2 Bft) 97,87 %
28.11.2018 21:46 -3,3 C 3,9 C -5,6 C 92 % 1028,6 hPa 0,0 l/m 7,3 km/h (2 Bft) O 87 0 min 0,000 mm 0,0 UV-I 0 W/m -4,4 C -4,3 C 11,3 km/h (2 Bft) 98,11 %
28.11.2018 21:48 -3,3 C 3,9 C -5,0 C 92 % 1028,6 hPa 0,0 l/m 7,0 km/h (2 Bft) O-NO 76 0 min 0,000 mm 0,0 UV-I 0 W/m -4,4 C -4,0 C 9,7 km/h (2 Bft) 94,29 %
28.11.2018 21:50 -3,3 C 3,9 C -5,0 C 92 % 1028,6 hPa 0,0 l/m 7,1 km/h (2 Bft) O-NO 75 0 min 0,000 mm 0,0 UV-I 0 W/m -4,4 C -4,1 C 8,0 km/h (2 Bft) 98,00 %
28.11.2018 21:52 -3,3 C 3,9 C -5,6 C 92 % 1028,6 hPa 0,0 l/m 5,7 km/h (1 Bft) O-NO 72 0 min 0,000 mm 0,0 UV-I 0 W/m -4,4 C -3,3 C 8,0 km/h (2 Bft) 100,00 %
28.11.2018 21:54 -3,3 C 3,9 C -5,6 C 92 % 1028,6 hPa 0,0 l/m 5,5 km/h (1 Bft) O 80 0 min 0,000 mm 0,0 UV-I 0 W/m -4,4 C -3,3 C 8,0 km/h (2 Bft) 100,00 %
28.11.2018 21:56 -3,3 C 3,9 C -5,6 C 92 % 1028,6 hPa 0,0 l/m 3,8 km/h (1 Bft) O 82 0 min 0,000 mm 0,0 UV-I 0 W/m -4,4 C -3,3 C 6,4 km/h (2 Bft) 97,37 %
28.11.2018 21:58 -3,3 C 3,9 C -5,6 C 92 % 1028,6 hPa 0,0 l/m 4,7 km/h (1 Bft) O-NO 75 0 min 0,000 mm 0,0 UV-I 0 W/m -4,4 C -3,3 C 6,4 km/h (2 Bft) 100,00 %
28.11.2018 22:00 -3,4 C 3,9 C -6,1 C 92 % 1028,7 hPa 0,0 l/m 3,8 km/h (1 Bft) O-NO 76 0 min 0,000 mm 0,0 UV-I 0 W/m -4,5 C -3,4 C 6,4 km/h (2 Bft) 95,12 %
28.11.2018 22:02 -3,4 C 3,9 C -6,7 C 92 % 1028,6 hPa 0,0 l/m 4,3 km/h (1 Bft) O 79 0 min 0,000 mm 0,0 UV-I 0 W/m -4,5 C -3,4 C 6,4 km/h (2 Bft) 98,00 %
28.11.2018 22:04 -3,5 C 3,9 C -6,7 C 92 % 1028,6 hPa 0,0 l/m 4,0 km/h (1 Bft) O 82 0 min 0,000 mm 0,0 UV-I 0 W/m -4,6 C -3,5 C 6,4 km/h (2 Bft) 100,00 %
28.11.2018 22:06 -3,4 C 3,9 C -6,7 C 92 % 1028,6 hPa 0,0 l/m 3,9 km/h (1 Bft) O-NO 74 0 min 0,000 mm 0,0 UV-I 0 W/m -4,5 C -3,4 C 4,8 km/h (1 Bft) 100,00 %
28.11.2018 22:09 -3,5 C 3,9 C -6,7 C 92 % 1028,7 hPa 0,0 l/m 3,9 km/h (1 Bft) O 84 0 min 0,000 mm 0,0 UV-I 0 W/m -4,6 C -3,5 C 4,8 km/h (1 Bft) 98,68 %
28.11.2018 22:10 -3,5 C 3,9 C -6,7 C 92 % 1028,7 hPa 0,0 l/m 3,7 km/h (1 Bft) O 84 0 min 0,000 mm 0,0 UV-I 0 W/m -4,6 C -3,5 C 4,8 km/h (1 Bft) 100,00 %
28.11.2018 22:12 -3,6 C 3,9 C -6,7 C 92 % 1028,7 hPa 0,0 l/m 4,0 km/h (1 Bft) O-NO 76 0 min 0,000 mm 0,0 UV-I 0 W/m -4,7 C -3,6 C 6,4 km/h (2 Bft) 97,56 %
28.11.2018 22:14 -3,6 C 3,9 C -6,7 C 92 % 1028,6 hPa 0,0 l/m 5,4 km/h (1 Bft) O-NO 74 0 min 0,000 mm 0,0 UV-I 0 W/m -4,7 C -3,6 C 8,0 km/h (2 Bft) 98,00 %
28.11.2018 22:16 -3,6 C 3,9 C -6,7 C 92 % 1028,6 hPa 0,0 l/m 5,9 km/h (2 Bft) O-NO 65 0 min 0,000 mm 0,0 UV-I 0 W/m -4,7 C -3,6 C 8,0 km/h (2 Bft) 98,00 %
28.11.2018 22:18 -3,5 C 3,9 C -6,7 C 92 % 1028,6 hPa 0,0 l/m 6,1 km/h (2 Bft) O-NO 72 0 min 0,000 mm 0,0 UV-I 0 W/m -4,6 C -3,5 C 8,0 km/h (2 Bft) 93,18 %
28.11.2018 22:20 -3,5 C 3,9 C -6,1 C 92 % 1028,6 hPa 0,0 l/m 4,7 km/h (1 Bft) O-NO 78 0 min 0,000 mm 0,0 UV-I 0 W/m -4,6 C -3,5 C 6,4 km/h (2 Bft) 96,23 %
28.11.2018 22:22 -3,5 C 3,9 C -6,1 C 92 % 1028,6 hPa 0,0 l/m 3,7 km/h (1 Bft) O 84 0 min 0,000 mm 0,0 UV-I 0 W/m -4,6 C -3,5 C 4,8 km/h (1 Bft) 97,14 %
28.11.2018 22:24 -3,5 C 3,9 C -6,1 C 92 % 1028,6 hPa 0,0 l/m 3,3 km/h (1 Bft) O 80 0 min 0,000 mm 0,0 UV-I 0 W/m -4,6 C -3,5 C 6,4 km/h (2 Bft) 94,00 %
28.11.2018 22:26 -3,6 C 3,9 C -6,1 C 92 % 1028,6 hPa 0,0 l/m 4,1 km/h (1 Bft) O 90 0 min 0,000 mm 0,0 UV-I 0 W/m -4,7 C -3,6 C 6,4 km/h (2 Bft) 93,18 %
28.11.2018 22:28 -3,6 C 3,9 C -6,7 C 92 % 1028,6 hPa 0,0 l/m 4,7 km/h (1 Bft) O 89 0 min 0,000 mm 0,0 UV-I 0 W/m -4,7 C -3,6 C 6,4 km/h (2 Bft) 96,00 %
28.11.2018 22:30 -3,6 C 3,9 C -6,7 C 92 % 1028,6 hPa 0,0 l/m 3,6 km/h (1 Bft) O 90 0 min 0,000 mm 0,0 UV-I 0 W/m -4,7 C -3,6 C 4,8 km/h (1 Bft) 94,00 %
28.11.2018 22:32 -3,6 C 3,9 C -6,7 C 92 % 1028,7 hPa 0,0 l/m 2,9 km/h (1 Bft) O 89 0 min 0,000 mm 0,0 UV-I 0 W/m -4,7 C -3,6 C 3,2 km/h (1 Bft) 96,00 %
28.11.2018 22:34 -3,7 C 3,9 C -7,2 C 92 % 1028,7 hPa 0,0 l/m 2,6 km/h (1 Bft) O 90 0 min 0,000 mm 0,0 UV-I 0 W/m -4,8 C -3,7 C 3,2 km/h (1 Bft) 93,18 %
28.11.2018 22:36 -3,8 C 3,9 C -7,8 C 92 % 1028,6 hPa 0,0 l/m 3,3 km/h (1 Bft) O 90 0 min 0,000 mm 0,0 UV-I 0 W/m -4,9 C -3,8 C 4,8 km/h (1 Bft) 95,74 %
28.11.2018 22:38 -3,8 C 3,9 C -7,8 C 92 % 1028,6 hPa 0,0 l/m 4,2 km/h (1 Bft) O 90 0 min 0,000 mm 0,0 UV-I 0 W/m -4,9 C -3,8 C 6,4 km/h (2 Bft) 96,00 %
28.11.2018 22:40 -3,7 C 3,9 C -7,8 C 92 % 1028,6 hPa 0,0 l/m 4,2 km/h (1 Bft) O 80 0 min 0,000 mm 0,0 UV-I 0 W/m -4,8 C -3,7 C 4,8 km/h (1 Bft) 97,87 %
28.11.2018 22:42 -3,7 C 3,9 C -7,2 C 92 % 1028,6 hPa 0,0 l/m 4,5 km/h (1 Bft) O-NO 76 0 min 0,000 mm 0,0 UV-I 0 W/m -4,8 C -3,7 C 6,4 km/h (2 Bft) 97,73 %
28.11.2018 22:44 -3,7 C 3,9 C -7,2 C 93 % 1028,6 hPa 0,0 l/m 5,1 km/h (1 Bft) O-NO 71 0 min 0,000 mm 0,0 UV-I 0 W/m -4,7 C -3,7 C 6,4 km/h (2 Bft) 95,12 %
28.11.2018 22:46 -3,7 C 3,9 C -7,2 C 93 % 1028,7 hPa 0,0 l/m 5,6 km/h (1 Bft) O-NO 78 0 min 0,000 mm 0,0 UV-I 0 W/m -4,7 C -3,7 C 8,0 km/h (2 Bft) 97,22 %
28.11.2018 22:48 -3,7 C 3,9 C -6,7 C 93 % 1028,6 hPa 0,0 l/m 4,2 km/h (1 Bft) O-NO 76 0 min 0,000 mm 0,0 UV-I 0 W/m -4,7 C -3,7 C 6,4 km/h (2 Bft) 98,36 %
28.11.2018 22:50 -3,7 C 3,9 C -6,7 C 92 % 1028,6 hPa 0,0 l/m 3,1 km/h (1 Bft) O-NO 76 0 min 0,000 mm 0,0 UV-I 0 W/m -4,8 C -3,7 C 4,8 km/h (1 Bft) 94,00 %
28.11.2018 22:52 -3,8 C 3,9 C -6,7 C 92 % 1028,6 hPa 0,0 l/m 3,0 km/h (1 Bft) O-NO 76 0 min 0,000 mm 0,0 UV-I 0 W/m -4,9 C -3,8 C 4,8 km/h (1 Bft) 97,44 %
28.11.2018 22:54 -3,7 C 3,9 C -6,7 C 93 % 1028,6 hPa 0,0 l/m 5,1 km/h (1 Bft) O-NO 71 0 min 0,000 mm 0,0 UV-I 0 W/m -4,7 C -3,7 C 6,4 km/h (2 Bft) 94,00 %
28.11.2018 22:56 -3,7 C 3,9 C -6,1 C 93 % 1028,5 hPa 0,0 l/m 7,6 km/h (2 Bft) O-NO 74 0 min 0,000 mm 0,0 UV-I 0 W/m -4,7 C -5,1 C 11,3 km/h (2 Bft) 95,12 %
28.11.2018 22:58 -3,7 C 3,9 C -6,1 C 93 % 1028,5 hPa 0,0 l/m 7,9 km/h (2 Bft) O-NO 78 0 min 0,000 mm 0,0 UV-I 0 W/m -4,7 C -5,4 C 11,3 km/h (2 Bft) 94,34 %
28.11.2018 23:00 -3,6 C 3,9 C -6,1 C 93 % 1028,5 hPa 0,0 l/m 6,8 km/h (2 Bft) O-NO 75 0 min 0,000 mm 0,0 UV-I 0 W/m -4,6 C -4,0 C 11,3 km/h (2 Bft) 96,23 %
28.11.2018 23:02 -3,6 C 3,9 C -6,1 C 93 % 1028,6 hPa 0,0 l/m 5,5 km/h (1 Bft) O 93 0 min 0,000 mm 0,0 UV-I 0 W/m -4,6 C -3,6 C 8,0 km/h (2 Bft) 97,14 %
28.11.2018 23:04 -3,7 C 3,9 C -6,1 C 93 % 1028,6 hPa 0,0 l/m 4,7 km/h (1 Bft) O 80 0 min 0,000 mm 0,0 UV-I 0 W/m -4,7 C -3,7 C 8,0 km/h (2 Bft) 96,23 %
28.11.2018 23:06 -3,7 C 3,9 C -6,1 C 93 % 1028,7 hPa 0,0 l/m 3,6 km/h (1 Bft) O 84 0 min 0,000 mm 0,0 UV-I 0 W/m -4,7 C -3,7 C 4,8 km/h (1 Bft) 100,00 %
28.11.2018 23:08 -3,7 C 3,9 C -6,1 C 93 % 1028,8 hPa 0,0 l/m 2,8 km/h (1 Bft) O 84 0 min 0,000 mm 0,0 UV-I 0 W/m -4,7 C -3,7 C 4,8 km/h (1 Bft) 95,12 %
28.11.2018 23:10 -3,8 C 3,9 C -6,7 C 92 % 1028,8 hPa 0,0 l/m 2,5 km/h (1 Bft) O 83 0 min 0,000 mm 0,0 UV-I 0 W/m -4,9 C -3,8 C 4,8 km/h (1 Bft) 95,74 %
28.11.2018 23:12 -3,9 C 3,9 C -7,2 C 92 % 1028,9 hPa 0,0 l/m 4,3 km/h (1 Bft) O-NO 59 0 min 0,000 mm 0,0 UV-I 0 W/m -5,0 C -3,9 C 6,4 km/h (2 Bft) 97,37 %
28.11.2018 23:14 -3,9 C 3,9 C -7,2 C 93 % 1028,9 hPa 0,0 l/m 4,5 km/h (1 Bft) O-NO 64 0 min 0,000 mm 0,0 UV-I 0 W/m -4,9 C -3,9 C 6,4 km/h (2 Bft) 96,23 %
28.11.2018 23:16 -4,0 C 3,9 C -7,2 C 93 % 1028,9 hPa 0,0 l/m 3,8 km/h (1 Bft) NO 55 0 min 0,000 mm 0,0 UV-I 0 W/m -5,0 C -4,0 C 6,4 km/h (2 Bft) 98,11 %
28.11.2018 23:18 -3,9 C 3,9 C -7,2 C 93 % 1028,9 hPa 0,0 l/m 5,0 km/h (1 Bft) O-NO 59 0 min 0,000 mm 0,0 UV-I 0 W/m -4,9 C -3,9 C 6,4 km/h (2 Bft) 97,37 %
28.11.2018 23:20 -3,9 C 3,9 C -6,7 C 93 % 1028,8 hPa 0,0 l/m 6,6 km/h (2 Bft) O-NO 72 0 min 0,000 mm 0,0 UV-I 0 W/m -4,9 C -4,1 C 8,0 km/h (2 Bft) 98,11 %
28.11.2018 23:22 -3,8 C 3,9 C -6,1 C 93 % 1028,8 hPa 0,0 l/m 6,6 km/h (2 Bft) O-NO 76 0 min 0,000 mm 0,0 UV-I 0 W/m -4,8 C -4,0 C 11,3 km/h (2 Bft) 95,56 %
28.11.2018 23:24 -3,8 C 3,9 C -6,1 C 93 % 1028,7 hPa 0,0 l/m 7,4 km/h (2 Bft) O-NO 67 0 min 0,000 mm 0,0 UV-I 0 W/m -4,8 C -5,0 C 8,0 km/h (2 Bft) 97,96 %
28.11.2018 23:26 -3,8 C 3,9 C -6,1 C 93 % 1028,7 hPa 0,0 l/m 7,6 km/h (2 Bft) O-NO 74 0 min 0,000 mm 0,0 UV-I 0 W/m -4,8 C -5,2 C 11,3 km/h (2 Bft) 97,44 %
28.11.2018 23:28 -3,8 C 3,9 C -6,1 C 93 % 1028,6 hPa 0,0 l/m 8,4 km/h (2 Bft) O 81 0 min 0,000 mm 0,0 UV-I 0 W/m -4,8 C -6,1 C 11,3 km/h (2 Bft) 96,43 %
28.11.2018 23:30 -3,8 C 3,9 C -6,1 C 93 % 1028,6 hPa 0,0 l/m 9,7 km/h (2 Bft) O-NO 65 0 min 0,000 mm 0,0 UV-I 0 W/m -4,8 C -7,4 C 12,9 km/h (3 Bft) 97,37 %
28.11.2018 23:32 -3,8 C 3,9 C -6,1 C 93 % 1028,5 hPa 0,0 l/m 9,5 km/h (2 Bft) O-NO 71 0 min 0,000 mm 0,0 UV-I 0 W/m -4,8 C -7,2 C 12,9 km/h (3 Bft) 95,12 %
28.11.2018 23:34 -3,8 C 3,9 C -5,6 C 93 % 1028,6 hPa 0,0 l/m 9,4 km/h (2 Bft) O-NO 76 0 min 0,000 mm 0,0 UV-I 0 W/m -4,8 C -7,1 C 12,9 km/h (3 Bft) 96,23 %
28.11.2018 23:36 -3,9 C 3,9 C -5,6 C 93 % 1028,6 hPa 0,0 l/m 6,9 km/h (2 Bft) O-NO 77 0 min 0,000 mm 0,0 UV-I 0 W/m -4,9 C -4,5 C 12,9 km/h (3 Bft) 94,00 %
28.11.2018 23:38 -3,9 C 3,9 C -6,1 C 93 % 1028,7 hPa 0,0 l/m 7,0 km/h (2 Bft) O 81 0 min 0,000 mm 0,0 UV-I 0 W/m -4,9 C -4,6 C 11,3 km/h (2 Bft) 96,43 %
28.11.2018 23:40 -4,1 C 3,9 C -6,1 C 93 % 1028,8 hPa 0,0 l/m 5,4 km/h (1 Bft) O-NO 78 0 min 0,000 mm 0,0 UV-I 0 W/m -5,1 C -4,1 C 8,0 km/h (2 Bft) 97,14 %
28.11.2018 23:42 -4,2 C 3,9 C -6,1 C 92 % 1028,7 hPa 0,0 l/m 4,6 km/h (1 Bft) O-NO 75 0 min 0,000 mm 0,0 UV-I 0 W/m -5,3 C -4,2 C 8,0 km/h (2 Bft) 98,00 %
28.11.2018 23:44 -4,2 C 3,9 C -6,1 C 93 % 1028,7 hPa 0,0 l/m 4,3 km/h (1 Bft) O-NO 75 0 min 0,000 mm 0,0 UV-I 0 W/m -5,2 C -4,2 C 6,4 km/h (2 Bft) 96,00 %
28.11.2018 23:46 -4,2 C 3,9 C -6,1 C 93 % 1028,7 hPa 0,0 l/m 6,3 km/h (2 Bft) O-NO 71 0 min 0,000 mm 0,0 UV-I 0 W/m -5,2 C -4,2 C 9,7 km/h (2 Bft) 95,12 %
28.11.2018 23:48 -4,1 C 3,9 C -6,1 C 93 % 1028,6 hPa 0,0 l/m 8,2 km/h (2 Bft) O-NO 76 0 min 0,000 mm 0,0 UV-I 0 W/m -5,1 C -6,2 C 11,3 km/h (2 Bft) 100,00 %
28.11.2018 23:50 -4,1 C 3,9 C -6,1 C 93 % 1028,6 hPa 0,0 l/m 8,8 km/h (2 Bft) O-NO 74 0 min 0,000 mm 0,0 UV-I 0 W/m -5,1 C -6,8 C 12,9 km/h (3 Bft) 97,37 %
28.11.2018 23:52 -4,0 C 3,9 C -6,1 C 93 % 1028,5 hPa 0,0 l/m 8,7 km/h (2 Bft) O 87 0 min 0,000 mm 0,0 UV-I 0 W/m -5,0 C -6,6 C 12,9 km/h (3 Bft) 100,00 %
28.11.2018 23:54 -4,0 C 3,9 C -6,1 C 93 % 1028,6 hPa 0,0 l/m 7,4 km/h (2 Bft) O 79 0 min 0,000 mm 0,0 UV-I 0 W/m -5,0 C -5,2 C 11,3 km/h (2 Bft) 100,00 %
28.11.2018 23:56 -4,1 C 3,9 C -6,1 C 93 % 1028,6 hPa 0,0 l/m 5,7 km/h (1 Bft) O 86 0 min 0,000 mm 0,0 UV-I 0 W/m -5,1 C -4,1 C 9,7 km/h (2 Bft) 94,00 %
28.11.2018 23:58 -4,2 C 3,9 C -6,1 C 93 % 1028,6 hPa 0,0 l/m 5,7 km/h (1 Bft) O-NO 66 0 min 0,000 mm 0,0 UV-I 0 W/m -5,2 C -4,2 C 9,7 km/h (2 Bft) 97,56 %
_ Min-Zeit 23:42 00:01 21:00 13:56 00:01 - 20:52 - - - - - - 23:42 23:30 00:26 07:10
Minimum _ -4,2 C 3,9 C -8,3 C 73 % 1023,8 hPa - 0,1 km/h (0 Bft) - - - - - - -5,3 C -7,4 C 1,6 km/h (1 Bft) 88,46 %
_ Max-Zeit 13:50 00:01 10:48 00:54 20:38 00:01 09:48 - - 09:39 13:00 11:16 09:58 00:01 13:30 09:48 00:02
Maximum _ 1,7 C 3,9 C 2,8 C 98 % 1028,9 hPa 0,0 l/m 14,9 km/h
O (3 Bft)
- - 3 min 0,102 mm 0,6 UV-I 326 W/m -0,5 C 1,6 C 20,9 km/h
O-NO (4 Bft)
100,00 %
Durchschnitt _ -1,0 C 3,9 C -2,1 C 89 % 1027,2 hPa #0,0 l/m 5,9 km/h (2 Bft) O - #6:18 h #0,584 mm 0,5 UV-I 158 W/m -2,6 C -1,9 C 9,0 km/h (2 Bft) 97,22 %